     2.11           OBSERVATION DATA    G (GPS)             RINEX VERSION / TYPE
teqc 2010Oct21 OPUS Account 20111029 19:08:18UTC            PGM / RUN BY / DATE
X 1521                                                      MARKER NAME
1153                                                        MARKER NUMBER
CSMIDDLETON NGS                                             OBSERVER / AGENCY
0220320676 TRIMBLE 5700 1.30                                REC # / TYPE / VERS
12518007 TRM41249.00 NONE                                   ANT # / TYPE
  -738795.5320 -5485100.7372  3159569.7981                  APPROX POSITION XYZ
        2.0000        0.0000        0.0000                  ANTENNA: DELTA H/E/N
     1     1                                                WAVELENGTH FACT L1/2
     5    L1    L2    C1    P1    P2                        # / TYPES OF OBSERV
    15                                                      LEAP SECONDS
  2011     9    23     0     0   30.0000000     GPS         TIME OF FIRST OBS
                                                            END OF HEADER
 11  9 23  0  0 30.0000000  0  9G02G29G30G10G12G15G25G05G26
 -31868888.83657 -24820973.38653  21529879.0394                   21529878.2424
 -14668244.61757 -11427497.11853  22340332.9454                   22340333.9224
 -11590743.00457  -9194190.99353  22583801.1094                   22583802.8524
 -18435901.09856 -14348714.69453  23615879.1254                   23615881.3714
 -26887174.76257 -20937160.37953  21541758.5314                   21541759.3594
   -218217.50816                  24499909.516
 -23025772.55558 -17883287.70954  21465204.9454                   21465209.2424
 -31880241.53958 -24826625.63855  20265804.3054                   20265805.0124
  -7593053.13316                  23562945.328
 11  9 23  0  1  0.0000000  0  9G02G29G30G10G12G15G25G05G26
 -31850856.68047 -24806922.34543  21533310.6094                   21533308.9104
 -14771778.66047 -11508172.77443  22320630.6564                   22320632.5554
 -11642022.66847  -9234149.15443  22574043.1954                   22574045.6804
 -18352778.332 6                  23631697.375
 -26841130.35947 -20901281.67843  21550520.5004                   21550520.3444
   -335485.91446   -250799.02352  24477593.6884                   24477603.8524
 -23037270.07447 -17892246.79344  21463017.1414                   21463021.2894
 -31877942.93448 -24824834.51045  20266241.7424                   20266241.8204
  -7711320.293 6                  23540439.797
 11  9 23  0  1 30.0000000  0  9G02G29G30G10G12G15G25G05G26
 -31832722.50047 -24792791.85743  21536761.3834                   21536760.3444
 -14875206.79747 -11588766.15443  22300949.1414                   22300950.9454
 -11692718.85547  -9273652.66743  22564395.3524                   22564398.8794
 -18269506.82047 -14219056.94253  23647543.7664                   23647546.8524
 -26794683.67647 -20865089.36043  21559358.4614                   21559358.8554
   -452868.59046   -342265.35942  24455255.5234                   24455266.0004
 -23048193.65248 -17900758.63744  21460938.3204                   21460941.6024
 -31875123.55548 -24822637.57045  20266778.8134                   20266778.8554
  -7829501.520 6                  23517950.281
 11  9 23  0  2  0.0000000  0  9G02G29G30G10G12G15G25G05G26
 -31814485.84447 -24778581.50043  21540231.7504                   21540230.2344
 -14978526.58247 -11669275.03243  22281288.3364                   22281288.6644
 -11742830.16847  -9312700.38342  22554859.5314                   22554862.0354
 -18186088.461 6                  23663417.422
 -26747836.96146 -20828585.57043  21568273.3524                   21568274.4884
   -570361.88746   -433818.05743  24432898.1174                   24432906.7274
 -23058543.28948 -17908823.31644  21458969.1254                   21458972.3524
 -31871784.40648 -24820035.63645  20267413.8984                   20267414.9184
  -7947592.480 6                  23495477.727
 11  9 23  0  2 30.0000000  0  9G02G29G30G10G12G15G25G05G26
 -31796142.48047 -24764287.95143  21543722.5474                   21543721.1214
 -15081731.45347 -11749694.37743  22261648.7814                   22261650.4884
 -11792351.88747  -9351288.61143  22545436.5084                   22545438.0274
 -18102521.90247 -14088937.91452  23679319.5314                   23679320.1604
 -26700588.71147 -20791768.87743  21577264.4614                   21577265.3324
   -687959.09047   -525451.72043  24410519.1094                   24410528.5864
 -23068315.81248 -17916438.27844  21457109.8134                   21457112.5984
 -31867923.05548 -24817026.76145  20268148.6484                   20268149.4804
  -8065585.437 6                  23473024.594
 11  9 23  0  3  0.0000000  0  9G02G29G30G10G12G15G25G05G26
 -31777689.96947 -24749909.38843  21547233.9064                   21547233.3054
 -15184816.85247 -11830020.52243  22242032.9844                   22242033.4804
 -11841280.82047  -9389415.18743  22536125.6094                   22536126.7504
 -18018806.687 6                  23695249.727
 -26652938.84047 -20754639.05043  21586331.5164                   21586333.6454
   -805654.95347   -617162.15443  24388122.1644                   24388132.1764
 -23077509.46548 -17923602.13844  21455360.1644                   21455363.5634
 -31863537.94948 -24813609.76845  20268983.0314                   20268983.1334
  -8183474.391 6                  23450590.930
 11  9 23  0  3 30.0000000  0  9G02G29G30G10G12G15G25G05G26
 -31759126.87947 -24735444.66443  21550766.5004                   21550764.6954
 -15287779.57847 -11910251.19943  22222439.5084                   22222440.0984
 -11889614.85947  -9427078.09843  22526927.0944                   22526930.7774
 -17934943.96147 -13958357.65853  23711208.2274                   23711216.5634
 -26604888.27747 -20717197.05943  21595475.5234                   21595476.5514
   -923445.71547   -708946.59343  24365706.3134                   24365718.2624
 -23086123.60248 -17930314.39644  21453720.7114                   21453724.6294
 -31858629.84048 -24809785.27945  20269916.8284                   20269917.0204
  -8301253.69146  -6457770.35952  23428178.4064                   23428187.3444
 11  9 23  0  4  0.0000000  0  9G02G29G30G10G12G15G25G05G26
 -31740455.11347 -24720895.18043  21554319.4774                   21554318.3874
 -15390618.96547 -11990385.62943  22202869.3834                   22202871.1134
 -11937355.17647  -9464278.21643  22517842.2974                   22517845.8594
 -17850938.27347 -13892898.63353  23727194.1254                   23727202.6334
 -26556441.26247 -20679446.35343  21604695.0474                   21604694.3954
  -1041330.05546   -800804.06153  24343272.5944                   24343284.3984
 -23094160.69548 -17936577.10344  21452191.3524                   21452195.1454
 -31853201.44548 -24805555.34245  20270950.1254                   20270950.1804
  -8418921.72347  -6549459.57052  23405786.2424                   23405791.2664
 11  9 23  0  4 30.0000000  0  9G02G29G30G10G12G15G25G05G26
 -31721672.21547 -24706259.17143  21557893.7424                   21557892.2584
 -15493330.73847 -12070420.77143  22183323.8284                   22183324.6294
 -11984499.02047  -9501013.84543  22508871.4844                   22508874.3014
 -17766789.94947 -13827328.63843  23743207.9534                   23743213.2774
 -26507598.81247 -20641387.28943  21613989.3204                   21613989.2934
  -1159303.051 6                  24320823.375
 -23101619.62148 -17942389.21443  21450772.2814                   21450774.7894
 -31847251.87148 -24800919.23745  20272082.5554                   20272082.5394
  -8536472.80947  -6641057.34442  23383416.8054                   23383421.1254
 11  9 23  0  5  0.0000000  0  9G02G29G30G10G12G15G25G05G26
 -31702779.21947 -24691537.38543  21561488.8914                   21561487.7774
 -15595914.28547 -12150355.84843  22163802.7424                   22163804.5314
 -12031047.10247  -9537285.01943  22500013.7274                   22500015.8674
 -17682502.523 6                  23759246.930
 -26458364.39847 -20603022.91943  21623358.3834                   21623359.3984
  -1277363.277 5                  24298356.234
 -23108502.43448 -17947752.46944  21449462.2894                   21449465.5634
 -31840784.55948 -24795879.78945  20273313.0164                   20273313.4804
  -8653904.38747  -6732562.42243  23361070.3204                   23361075.1954
 11  9 23  0  5 30.0000000  0  9G02G29G30G10G12G15G25G05G26
 -31683777.32047 -24676730.67443  21565104.5084                   21565104.3134
 -15698368.23847 -12230190.07043  22144306.2114                   22144308.8364
 -12076999.63347  -9573092.06143  22491269.0864                   22491271.1134
 -17598079.340 6                  23775310.773
 -26408741.31647 -20564355.66843  21632801.1644                   21632801.7774
  -1395509.230 5                  24275874.664
 -23114810.83248 -17952668.06544  21448261.7584                   21448264.8714
 -31833801.64548 -24790438.54345  20274641.8524                   20274641.4694
  -8771213.44146  -6823971.87553  23338746.7194                   23338749.7114
 11  9 23  0  6  0.0000000  0  9G02G29G30G10G12G15G25G05G26
 -30089243.81647 -23434237.03443  21868533.8984                   21868533.1054
 -14225263.97747 -11082316.53843  22424628.5084                   22424630.8634
 -10546931.63747  -8380831.51843  22782432.0634                   22782433.1604
 -15938102.551 6                  24091195.664
 -24783310.97747 -19297786.60943  21942110.7894                   21942111.5274
     61688.906 5                  24553167.789
 -21545122.66448 -16729534.51643  21746963.3984                   21746967.4734
 -30250881.95748 -23556994.59345  20575861.3754                   20575861.5784
  -7312969.66847  -5687677.47342  23616241.2814                   23616245.1174
 11  9 23  0  6 30.0000000  0  9G02G29G30G10G12G15G25G05G26
 -30070018.25447 -23419256.11843  21872193.0164                   21872191.8524
 -14327446.96547 -11161939.54043  22405183.8834                   22405186.6094
 -10591686.32047  -8415705.20643  22773915.1024                   22773918.1054
 -15853409.91046 -12336382.52752  24107311.9384                   24107310.4574
 -24732913.48847 -19258515.77843  21951700.5554                   21951702.2584
    -56614.277 6                  24530655.297
 -21550279.94148 -16733553.17544  21745981.7274                   21745985.6804
 -30242867.26648 -23550749.35445  20577386.2504                   20577386.9384
  -7430017.58247  -5778882.31553  23593967.6484                   23593967.6094
 11  9 23  0  7  0.0000000  0  9G02G29G30G10G12G15G25G05G26
 -30050682.56247 -23404189.29643  21875872.5554                   21875872.4104
 -14429492.92247 -11241455.69243  22385764.4694                   22385766.8984
 -10635843.10547  -8450113.17943  22765512.3134                   22765515.0514
 -15768587.828 6                  24123453.422
 -24682134.27747 -19218947.78343  21961363.6024                   21961365.8984
   -174993.434 6                  24508130.031
 -21554864.72748 -16737125.73644  21745109.6484                   21745113.6954
 -30234340.58648 -23544105.15745  20579009.1334                   20579008.7464
  -7546930.852 6                  23571718.563
 11  9 23  0  7 30.0000000  0  9G02G29G30G10G12G15G25G05G26
 -30031237.14548 -23389037.03944  21879572.9304                   21879571.5784
 -14531400.07047 -11320863.84243  22366372.4304                   22366374.3404
 -10679401.93047  -8484054.96843  22757223.6804                   22757227.0164
 -15683639.258 6                  24139617.891
 -24630976.42247 -19179084.49743  21971098.0234                   21971100.7234
   -293445.957 6                  24485587.195
 -21558878.58248 -16740253.42244  21744345.7974                   21744348.8244
 -30225304.12148 -23537063.73645  20580728.7114                   20580728.7624
  -7663706.426 6                  23549497.227
 11  9 23  0  8  0.0000000  0  9G02G29G30G10G12G15G25G05G26
 -30011679.25447 -23373797.14343  21883294.0234                   21883293.3874
 -14633164.01247 -11400160.34943  22347007.6414                   22347008.8674
 -10722359.95747  -8517528.82243  22749048.4694                   22749051.1484
 -15598564.027 6                  24155806.992
 -24579440.41447 -19138926.64143  21980905.8914                   21980906.4184
   -411967.46947   -310394.39852  24463034.0164                   24463045.3134
 -21562320.01248 -16742935.01244  21743691.0004                   21743693.6994
 -30215757.16048 -23529624.56045  20582545.5004                   20582545.2544
  -7780337.961 6                  23527303.367
 11  9 23  0  8 30.0000000  0  9G02G29G30G10G12G15G25G05G26
 -29992010.29347 -23358470.61443  21887037.0704                   21887036.3244
 -14734783.62547 -11479344.34043  22327669.9924                   22327672.5824
 -10764718.11347  -8550535.31143  22740988.6484                   22740990.6454
 -15513366.00047 -12071416.54454  24172020.7664                   24172018.5634
 -24527530.27047 -19098477.22643  21990783.5864                   21990784.9104
   -530556.05947   -402800.41943  24440466.2194                   24440476.5704
 -21565191.39848 -16745172.48544  21743144.3674                   21743146.8404
 -30205702.55948 -23521789.76845  20584458.6254                   20584458.5824
  -7896823.039 6                  23505136.219
 11  9 23  0  9  0.0000000  0  9G02G29G30G10G12G15G25G05G26
 -29972233.39147 -23343060.10543  21890800.6564                   21890799.8794
 -14836260.06647 -11558416.81543  22308359.0394                   22308361.1254
 -10806479.34047  -8583076.31243  22733041.5084                   22733042.3954
 -15428050.77047 -12004936.83853  24188254.6334                   24188255.1414
 -24475251.58247 -19057740.56143  22000732.8204                   22000734.1134
   -649212.047 6                  24417886.234
 -21567497.07048 -16746969.14844  21742705.6094                   21742709.2934
 -30195145.33648 -23513563.33845  20586467.7194                   20586467.6484
  -8013161.28946  -6233278.77353  23482997.8914                   23483004.4614
 11  9 23  0  9 30.0000000  0  9G02G29G30G10G12G15G25G05G26
 -29952343.87547 -23327561.74843  21894585.2974                   21894583.9264
 -14937586.42247 -11637372.31643  22289077.4384                   22289080.7384
 -10847638.88747  -8615148.70043  22725208.3204                   22725210.1054
 -15342616.457 6                  24204513.070
 -24422602.32047 -19016715.23743  22010751.0234                   22010752.7114
   -767928.27746   -587764.68752  24395294.1884                   24395303.1054
 -21569233.70748 -16748322.39544  21742375.4064                   21742378.4614
 -30184082.58248 -23504942.97244  20588572.7274                   20588572.6454
  -8129344.41047  -6323810.93853  23460889.3524                   23460891.4024
 11  9 23  0 10  0.0000000  0  9G02G29G30G10G12G15G25G05G26
 -29932344.77347 -23311978.00943  21898391.3134                   21898390.8444
 -15038763.64847 -11716211.68243  22269823.7974                   22269825.1684
 -10888199.39847  -8646754.29743  22717489.9144                   22717492.8524
 -15257068.453 6                  24220791.875
 -24369588.92647 -18975406.15743  22020838.4144                   22020841.5394
   -886705.031 6                  24372691.250
 -21570405.51248 -16749235.54844  21742152.3914                   21742155.5124
 -30172518.91448 -23495932.30144  20590773.2344                   20590773.8284
  -8245371.66047  -6414221.54353  23438809.8134                   23438813.2034
 11  9 23  0 10 30.0000000  0  9G02G29G30G10G12G15G25G05G26
 -29912234.63348 -23296307.81843  21902218.0474                   21902216.9064
 -15139788.68747 -11794932.41143  22250599.5704                   22250601.5354
 -10928159.44547  -8677892.00943  22709886.7894                   22709888.6954
 -15171407.727 6                  24237092.508
 -24316212.63347 -18933814.39743  22030995.8364                   22030999.2814
  -1005538.18746   -772914.16853  24350078.7274                   24350082.4344
 -21571012.38748 -16749708.45744  21742036.9304                   21742041.3244
 -30160454.97348 -23486531.79344  20593068.8284                   20593069.0394
  -8361238.09447  -6504506.82543  23416761.8984                   23416765.5234
 11  9 23  0 11  0.0000000  0  9G02G29G30G10G12G15G25G05G26
 -29892012.42247 -23280550.24943  21906066.0634                   21906064.9534
 -15240658.12147 -11873531.75944  22231404.7424                   22231406.9304
 -10967517.73847  -8708560.76143  22702396.7424                   22702399.7034
 -15085635.738 6                  24253413.133
 -24262474.88747 -18891940.78943  22041222.4454                   22041225.3364
  -1124423.727 6                  24327455.234
 -21571054.44548 -16749741.27044  21742028.7424                   21742033.5124
 -30147891.56248 -23476742.13044  20595459.6804                   20595459.6214
  -8476938.93447  -6594663.11143  23394743.6804                   23394746.8284
 11  9 23  0 11 30.0000000  0  9G02G29G30G10G12G15G25G05G26
 -29871680.26647 -23264706.99243  21909935.6884                   21909934.9774
 -15341371.84447 -11952009.93443  22212239.9384                   22212241.0164
 -11006276.26247  -8738762.29743  22695021.1024                   22695025.6054
 -14999757.004 6                  24269756.445
 -24208380.35247 -18849789.21443  22051516.2814                   22051517.1994
  -1243361.12146   -958230.02353  24304821.9844                   24304828.8594
 -21570535.11348 -16749336.65544  21742128.1094                   21742131.8984
 -30134832.68048 -23466566.37544  20597944.6724                   20597944.8484
  -8592472.65247  -6684689.24252  23372757.8524                   23372759.7504
 11  9 23  0 12  0.0000000  0  9G02G29G30G10G12G15G25G05G26
 -29851237.93747 -23248777.89943  21913825.4384                   21913823.9344
 -15441927.44547 -12030364.85143  22193104.1334                   22193106.2424
 -11044434.52747  -8768495.91743  22687759.6954                   22687762.0944
 -14913773.652 6                  24286118.305
 -24153931.89147 -18807361.83443  22061877.6024                   22061878.1134
  -1362347.31246  -1050946.03543  24282178.9454                   24282187.8754
 -21569455.30548 -16748495.34044  21742333.7344                   21742337.3404
 -30121279.48848 -23456005.44144  20600523.9144                   20600524.4344
  -8707835.12547  -6774581.73842  23350805.2974                   23350807.1954
 11  9 23  0 12 30.0000000  0  9G02G29G30G10G12G15G25G05G26
 -29830683.86348 -23232761.77143  21917737.2974                   21917734.8634
 -15542321.54747 -12108593.99043  22173999.7114                   22174002.5474
 -11081991.35247  -8797760.89643  22680613.1024                   22680614.6524
 -14827686.910 6                  24302499.375
 -24099131.48447 -18764660.43843  22072306.0234                   22072307.0554
  -1481378.422 5                  24259527.461
 -21567815.29748 -16747217.47944  21742645.7894                   21742649.3554
 -30107232.89848 -23445060.04945  20603196.3444                   20603196.2664
  -8823021.45747  -6864337.17242  23328885.7424                   23328888.0634
 11  9 23  0 13  0.0000000  0  9G02G29G30G10G12G15G25G05G26
 -29810017.64148 -23216658.22843  21921669.6884                   21921668.7384
 -15642551.41447 -12186695.02943  22154927.0554                   22154928.5514
 -11118946.21147  -8826556.83243  22673580.9304                   22673581.2774
 -14741498.914 6                  24318900.633
 -24043981.11347 -18721686.12043  22082801.0704                   22082802.3054
  -1600451.09445  -1236480.68553  24236868.8914                   24236877.2584
 -21565615.93048 -16745503.66644  21743064.0474                   21743068.5394
 -30092694.04348 -23433731.00644  20605962.9774                   20605963.4494
  -8938027.49247  -6953952.08353  23307000.4614                   23307003.2114
 11  9 23  0 13 30.0000000  0  9G02G29G30G10G12G15G25G05G26
 -29789240.45748 -23200468.20243  21925623.4694                   21925622.1054
 -15742615.76247 -12264667.16043  22135884.8444                   22135886.1454
 -11155300.22347  -8854884.73043  22666662.8984                   22666665.0394
 -14655212.848 6                  24335320.984
 -23988484.34447 -18678442.03143  22093361.4774                   22093362.8554
  -1719563.625 6                  24214202.328
 -21562859.78948 -16743356.07044  21743588.6884                   21743592.4654
 -30077666.11348 -23422020.93244  20608823.0084                   20608823.6134
  -9052850.71947  -7043424.37853  23285149.6724                   23285154.2304
 11  9 23  0 14  0.0000000  0  9G02G29G30G10G12G15G25G05G26
 -29768353.40647 -23184192.56543  21929597.7034                   21929597.3014
 -15842514.39847 -12342510.17443  22116874.4844                   22116874.8634
 -11191054.69947  -8882745.32143  22659858.5474                   22659861.6954
 -14568832.59846 -11335412.38553  24351759.3674                   24351757.5044
 -23932645.52347 -18634931.30943  22103987.3674                   22103988.8164
  -1838714.531 6                  24191527.523
 -21559549.46148 -16740776.62644  21744218.9304                   21744221.8714
 -30062152.40248 -23409932.31045  20611775.2424                   20611775.2034
  -9167488.84846  -7132752.70443  23263334.6254                   23263338.1954
 11  9 23  0 14 30.0000000  0  9G02G29G30G10G12G15G25G05G26
 -29747355.28947 -23167830.41843  21933593.3834                   21933592.4804
 -15942243.68448 -12420221.21343  22097897.3524                   22097896.6724
 -11226208.57847  -8910137.90543  22653169.2974                   22653171.5594
 -14482359.391 6                  24368213.586
 -23876466.89147 -18591155.68443  22114677.6804                   22114680.1564
  -1957899.96147  -1515009.59052  24168848.7664                   24168851.1214
 -21555685.36348 -16737765.68044  21744954.1414                   21744957.9414
 -30046153.69948 -23397465.76145  20614819.4144                   20614819.7344
  -9281936.81646  -7221932.73043  23241556.1024                   23241561.8054
 11  9 23  0 15  0.0000000  0  9G02G29G30G10G12G15G25G05G26
 -29726245.24647 -23151381.00043  21937610.4774                   21937610.1134
 -16041800.34848 -12497797.84643  22078952.1954                   22078950.9804
 -11260760.85547  -8937061.73943  22646593.4144                   22646596.9494
 -14395794.48046 -11200577.54352  24384686.6334                   24384689.1054
 -23819950.32047 -18547116.92943  22125432.5164                   22125433.9574
  -2077116.08247  -1607904.88643  24146162.2034                   24146167.4104
 -21551267.98848 -16734323.62144  21745794.6414                   21745798.3674
 -30029670.82448 -23384621.97345  20617956.2974                   20617956.8134
  -9396190.24247  -7310961.34643  23219814.5554                   23219817.9734
 11  9 23  0 15 30.0000000  0  9G02G29G30G10G12G15G25G05G26
 -29705026.91847 -23134847.26243  21941647.9454                   21941648.1094
 -16141186.59448 -12575241.57143  22060040.1174                   22060038.9184
 -11294715.57047  -8963519.93742  22640131.8984                   22640135.0824
 -14309144.52346 -11133058.10242  24401175.7734                   24401180.5664
 -23763102.37947 -18502819.87443  22136250.3444                   22136251.5904
  -2196363.55547  -1700824.55743  24123469.3444                   24123476.4924
 -21546302.70348 -16730454.61144  21746739.6884                   21746743.4064
 -30012709.58248 -23371405.39844  20621183.7424                   20621183.9654
  -9510249.07846  -7399838.05743  23198109.8914                   23198114.9774
 11  9 23  0 16  0.0000000  0  9G02G29G30G10G12G15G25G05G26
 -29683698.25447 -23118227.51243  21945706.4614                   21945706.0394
 -16240397.37148 -12652548.56543  22041160.3914                   22041160.9804
 -11328070.64147  -8989510.90343  22633785.1564                   22633787.8484
 -14222409.594 6                  24417680.383
 -23705923.60247 -18458265.06643  22147131.3284                   22147131.7544
  -2315638.06647  -1793765.28743  24100772.1174                   24100778.2974
 -21540788.80548 -16726158.07144  21747788.8984                   21747792.4574
 -29995269.69948 -23357815.88245  20624502.3674                   20624502.7464
  -9624107.30147  -7488558.55643  23176442.9694                   23176447.2154
 11  9 23  0 16 30.0000000  0  9G02G29G30G10G12G15G25G05G26
 -29662256.94548 -23101520.02943  21949787.1334                   21949787.0704
 -16339429.11348 -12729716.09043  22022315.2814                   22022316.6914
 -11360824.29347  -9015033.31843  22627553.0944                   22627555.4804
 -14135590.113 6                  24434202.297
 -23648415.05547 -18413453.11343  22158074.5234                   22158076.2704
  -2434934.32047  -1886723.15242  24078070.6414                   24078078.2384
 -21534725.84448 -16721433.68944  21748942.4534                   21748946.1334
 -29977351.44148 -23343853.57344  20627912.1954                   20627912.3594
  -9737759.66447  -7577118.65143  23154815.6024                   23154819.9384
 11  9 23  0 17  0.0000000  0  9G02G29G30G10G12G15G25G05G26
 -29640706.08647 -23084727.11443  21953888.3834                   21953887.5274
 -16438282.41848 -12806744.57043  22003503.7894                   22003504.7734
 -11392979.83647  -9040089.33743  22621433.8364                   22621435.9574
 -14048691.56646 -10930107.88352  24450738.2274                   24450739.5274
 -23590582.66847 -18368388.93643  22169080.1414                   22169081.7504
  -2554252.89147  -1979698.07353  24055364.7424                   24055372.8874
 -21528118.54347 -16716285.15544  21750199.6024                   21750203.5474
 -29958959.61348 -23329522.28145  20631412.1484                   20631412.7274
  -9851205.05947  -7665517.43943  23133227.4614                   23133231.9964
 11  9 23  0 17 30.0000000  0  9G02G29G30G10G12G15G25G05G26
 -29619044.09048 -23067847.67743  21958010.6954                   21958008.9264
 -16536953.44547 -12883631.04343  21984726.7194                   21984728.1294
 -11424535.92247  -9064678.64943  22615429.1094                   22615430.4064
 -13961714.512 6                  24467289.719
 -23532427.77347 -18323073.68743  22180147.2504                   22180147.1994
  -2673589.25847  -2072687.19943  24032655.0314                   24032662.6134
 -21520966.91047 -16710712.46544  21751560.6254                   21751564.3794
 -29940094.93048 -23314822.52944  20635001.7664                   20635002.1334
  -9964438.69147  -7753751.29043  23111680.3594                   23111683.7464
 11  9 23  0 18  0.0000000  0  9G02G29G30G10G12G15G25G05G26
 -29597270.51247 -23050881.32643  21962154.3984                   21962152.2114
 -16635439.93747 -12960373.70344  21965985.7814                   21965986.3794
 -11455492.79347  -9088800.72443  22609538.0234                   22609540.0634
 -13874661.773 6                  24483855.227
 -23473952.96947 -18277508.86943  22191274.2664                   22191274.7974
  -2792940.63747  -2165687.62753  24009942.6954                   24009949.3364
 -21513272.58647 -16704716.85643  21753024.4144                   21753027.7344
 -29920759.15647 -23299755.69244  20638681.2584                   20638681.4774
 -10077456.53947  -7841816.93043  23090173.6644                   23090176.5274
 11  9 23  0 18 30.0000000  0  9G02G29G30G10G12G15G25G05G26
 -29575387.02048 -23033829.20243  21966318.6094                   21966317.3984
 -16733740.66847 -13036971.59544  21947279.1804                   21947281.4614
 -11485851.58647  -9112457.02743  22603760.4924                   22603763.5514
 -13787536.215 6                  24500435.820
 -23415162.60547 -18231698.30843  22202461.3594                   22202463.4494
  -2912304.99247  -2258698.48043  23987228.1254                   23987234.1804
 -21505038.17247 -16698300.46743  21754591.9224                   21754594.8954
 -29900955.49248 -23284324.24645  20642449.4384                   20642449.8754
 -10190255.88346  -7929712.34643  23068707.6024                   23068712.4964
 11  9 23  0 19  0.0000000  0  9G02G29G30G10G12G15G25G05G26
 -29553394.00847 -23016691.84943  21970503.4924                   21970502.5594
 -16831854.86347 -13113424.16844  21928609.1174                   21928610.5474
 -11515613.73447  -9135648.14743  22598096.8914                   22598098.9614
 -13700341.133 6                  24517027.352
 -23356060.73447 -18185644.83243  22213707.3984                   22213709.1644
  -3031680.39147  -2351717.79343  23964512.0704                   23964515.5004
 -21496266.36347 -16691465.25444  21756260.9384                   21756264.4964
 -29880686.85547 -23268530.47944  20646306.8204                   20646306.4304
 -10302834.06646  -8017435.44143  23047285.3754                   23047288.5434
 11  9 23  0 19 30.0000000  0  9G02G29G30G10G12G15G25G05G26
 -29531289.41847 -22999467.40143  21974710.3834                   21974709.1994
 -16929778.18747 -13189728.04044  21909975.0944                   21909976.0594
 -11544777.54747  -9158373.64043  22592547.1334                   22592548.6884
 -13613077.289 6                  24533633.297
 -23296647.81647 -18139349.20443  22225013.5704                   22225013.9384
  -3151062.19547  -2444742.26343  23941794.2664                   23941797.8634
 -21486956.81648 -16684211.07644  21758032.4064                   21758036.6054
 -29859953.30548 -23252374.49644  20650252.3444                   20650252.4184
 -10415185.23847  -8104981.58243  23025905.6414                   23025907.2234
 11  9 23  0 20  0.0000000  0  9G02G29G30G10G12G15G25G05G26
 -29509075.46148 -22982157.92143  21978936.6804                   21978936.1374
 -17027510.59047 -13265883.10643  21891377.1024                   21891378.1804
 -11573345.62147  -9180634.01652  22587110.9774                   22587112.1054
 -13525748.96546 -10522619.88752  24550250.4534                   24550256.9494
 -23236929.59847 -18092815.51343  22236377.8594                   22236379.9104
  -3270449.54347  -2537770.96653  23919075.0784                   23919081.1174
 -21477113.46548 -16676540.95444  21759905.2734                   21759910.0314
 -29838759.19948 -23235859.60645  20654285.3444                   20654285.4694
 -10527308.16447  -8192349.89643  23004568.5004                   23004571.9024
 11  9 23  0 20 30.0000000  0  9G02G29G30G10G12G15G25G05G26
 -29486751.54347 -22964762.61443  21983184.3754                   21983184.8634
 -17125049.47348 -13341887.40544  21872815.6564                   21872817.2194
 -11601318.04347  -9202430.65143  22581787.4534                   22581788.5704
 -13438357.961 6                  24566880.398
 -23176908.44947 -18046045.88843  22247800.0084                   22247800.8364
  -3389839.57447  -2630801.73843  23896355.3594                   23896360.6254
 -21466737.80148 -16668456.00744  21761880.1094                   21761883.0204
 -29817106.32048 -23218987.19645  20658405.7274                   20658406.1604
 -10639198.84847  -8279537.09043  22983276.1724                   22983281.7234
 11  9 23  0 21  0.0000000  0 10G02G29G30G10G12G15G25G05G26G21
 -29464316.45347 -22947280.79343  21987453.9384                   21987453.8554
 -17222391.23448 -13417738.08144  21854292.5554                   21854294.5204
 -11628693.94547  -9223762.44843  22576577.5314                   22576578.4804
 -13350905.668 6                  24583522.273
 -23116585.98848 -17999041.42443  22259279.3054                   22259279.9414
  -3509227.89547  -2723831.24642  23873635.8204                   23873640.6214
 -21455830.29748 -16659956.62344  21763955.9924                   21763959.4614
 -29794995.33648 -23201757.85044  20662613.2974                   20662613.3634
 -10750852.12547  -8366539.58543  22962029.2274                   22962032.7384
                                  25199470.875
 11  9 23  0 21 30.0000000  0 10G02G29G30G10G12G15G25G05G26G21
 -29441778.22347 -22929718.50243  21991742.5704                   21991742.2854
 -17319542.02348 -13493439.95444  21835805.6094                   21835806.5664
 -11655482.16047  -9244636.33153  22571480.5234                   22571481.8594
 -13263402.587 6                  24600173.953
 -23055973.56247 -17951811.04243  22270813.1094                   22270814.5664
  -3628620.27747  -2816863.82852  23850915.7114                   23850920.1844
 -21444401.07848 -16651050.69844  21766130.8364                   21766135.2624
 -29772436.74648 -23184179.72444  20666906.0164                   20666906.1844
 -10862272.68047  -8453360.52843  22940826.6724                   22940830.8134
   1389181.00815                  25184153.047
 11  9 23  0 22  0.0000000  0  9G02G29G30G12G15G25G05G26G21
 -29419139.75447 -22912078.05643  21996050.6804                   21996050.3244
 -17416502.59448 -13568993.61044  21817354.8284                   21817356.0474
 -11681686.04747  -9265054.94043  22566494.4224                   22566498.1334
 -22995077.09047 -17904359.38943  22282401.1334                   22282403.3244
  -3748016.70347  -2909899.85253  23828195.0634                   23828198.2734
 -21432454.90648 -16641741.98844  21768403.7194                   21768407.6644
 -29749435.87148 -23166256.95545  20671283.0704                   20671282.5664
 -10973459.85547  -8539999.72043  22919668.3204                   22919671.0274
   1308692.637 5                  25168836.828
 11  9 23  0 22 30.0000000  0  9G02G29G30G12G15G25G05G26G21
 -29396396.41447 -22894355.98643  22000378.8674                   22000378.7814
 -17513266.19548 -13644393.81243  21798941.0554                   21798941.2274
 -11707301.72347  -9285015.13743  22561620.0314                   22561623.1804
 -22933894.90247 -17856684.95343  22294044.0084                   22294046.6174
  -3867409.41447  -3002932.23153  23805474.2504                   23805480.6844
 -21419989.10548 -16632028.39344  21770776.3914                   21770779.9924
 -29725990.09048 -23147987.51144  20675744.6884                   20675744.4304
 -11084405.34847  -8626450.58243  22898555.6334                   22898558.7114
   1228218.824 6                  25153523.352
 11  9 23  0 23  0.0000000  0  9G02G29G30G12G15G25G05G26G21
 -29373540.55947 -22876546.23443  22004728.4614                   22004728.0004
 -17609822.80147 -13719632.64044  21780567.0164                   21780568.4454
 -11732321.98046  -9304511.46443  22556858.5394                   22556861.1644
 -22872422.64147 -17808784.55843  22305741.7894                   22305743.2704
  -3986788.24247  -3095954.84953  23782757.6254                   23782763.6414
 -21406997.90648 -16621905.35444  21773248.6174                   21773251.9264
 -29702093.93748 -23129367.13844  20680291.6564                   20680291.4534
 -11195097.66447  -8712704.24943  22877491.4924                   22877492.0274
   1147766.883 6                  25138213.844
 11  9 23  0 23 30.0000000  0  9G02G29G30G12G15G25G05G26G21
 -29350568.21147 -22858645.68343  22009099.5864                   22009098.5004
 -17706166.69147 -13794705.78844  21762233.4144                   21762234.6374
 -11756743.69547  -9323541.29343  22552211.2974                   22552213.7934
 -22810659.57047 -17760657.57743  22317494.2114                   22317497.2074
  -4106146.52747  -3188961.07343  23760045.0864                   23760050.8244
 -21393479.38348 -16611371.45144  21775820.8444                   21775824.6094
 -29677745.56247 -23110394.32944  20684925.3594                   20684924.4344
 -11305529.48847  -8798754.75843  22856476.4774                   22856478.6994
   1067340.074 6                  25122908.258
 11  9 23  0 24  0.0000000  0  9G02G29G30G12G15G25G05G26G21
 -29327480.16447 -22840655.02643  22013493.6484                   22013492.4104
 -17802296.25447 -13869611.86744  21743939.9454                   21743941.2344
 -11780568.23447  -9342105.88843  22547677.5314                   22547680.4654
 -22748609.37947 -17712306.82843  22329302.5164                   22329306.0904
  -4225481.77346  -3281949.24743  23737335.1414                   23737339.7504
 -21379436.28148 -16600428.74844  21778493.0554                   21778496.9804
 -29652948.52048 -23091071.98644  20689643.7274                   20689643.8954
 -11415698.05147  -8884600.14943  22835512.0164                   22835515.3444
    986937.066 5                  25107607.477
 11  9 23  0 24 30.0000000  0  9G02G29G30G12G15G25G05G26G21
 -29304277.30947 -22822574.87843  22017909.1174                   22017908.6414
 -17898210.41447 -13944350.15144  21725688.4144                   21725690.3444
 -11803797.41047  -9360206.44843  22543257.2584                   22543259.7584
 -22686276.34847 -17663735.69043  22341164.7974                   22341165.9104
  -4344792.59846  -3374918.43553  23714630.4924                   23714636.1134
 -21364871.77348 -16589079.81244  21781264.4064                   21781269.2734
 -29627705.90248 -23071402.38444  20694447.4614                   20694447.0864
 -11525600.65247  -8970238.36143  22814598.4454                   22814600.8404
    906556.277 6                  25092311.781
 11  9 23  0 25  0.0000000  0  9G02G29G30G12G15G25G05G26G21
 -29280959.35547 -22804405.04743  22022346.0234                   22022345.0084
 -17993906.75047 -14018918.58644  21707477.7114                   21707478.8794
 -11826431.62947  -9377843.53043  22538950.7194                   22538953.4844
 -22623663.05548 -17614946.13243  22353079.7504                   22353081.3134
  -4464075.90646  -3467865.99743  23691931.6954                   23691937.3204
 -21349787.45348 -16577325.77844  21784135.1094                   21784139.0354
 -29602019.75847 -23051387.20844  20699335.4534                   20699335.3984
 -11635233.49247  -9055666.34043  22793735.9064                   22793738.3594
    826197.336 5                  25077019.742
 11  9 23  0 25 30.0000000  0  9G02G29G30G12G15G25G05G26G21
 -29257529.41847 -22786147.98743  22026804.9224                   22026802.9614
 -18089386.35948 -14093318.26444  21689308.4224                   21689310.3984
 -11848474.92647  -9395020.12743  22534754.9774                   22534757.3164
 -22560775.96147 -17565943.33543  22365046.1954                   22365048.2344
  -4583332.023 6                  23669237.680
 -21334188.67648 -16565170.89944  21787103.8134                   21787107.8014
 -29575895.40248 -23031030.56144  20704306.5944                   20704306.6914
 -11744596.04347  -9140883.81943  22772923.8134                   22772927.7664
    745856.453 6                  25061732.500
 11  9 23  0 26  0.0000000  0  9G02G29G30G12G15G25G05G26G21
 -29233987.69947 -22767803.76043  22031284.8524                   22031283.1024
 -18184647.16047 -14167547.35344  21671181.3444                   21671182.3834
 -11869928.27347  -9411736.94643  22530672.4774                   22530675.3134
 -22497618.47747 -17516729.76243  22377064.5474                   22377067.5664
  -4702557.88347  -3653695.46152  23646550.1644                   23646552.9694
 -21318077.69148 -16552616.92044  21790169.1724                   21790172.2934
 -29549335.15248 -23010334.22244  20709361.0394                   20709360.6454
 -11853684.93747  -9225888.05643  22752165.4304                   22752167.7274
    665532.832 6                  25046447.531
 11  9 23  0 26 30.0000000  0  9G02G29G30G12G15G25G05G26G21
 -29210333.32447 -22749371.68643  22035785.3594                   22035784.0274
 -18279686.12547 -14241603.60544  21653095.5784                   21653096.0394
 -11890791.46547  -9427994.11443  22526702.5234                   22526705.0394
 -22434192.55547 -17467307.00043  22389134.2974                   22389137.3754
  -4821750.11747  -3746572.20343  23623867.7664                   23623871.2734
 -21301455.58648 -16539664.64544  21793332.2424                   21793336.7664
 -29522340.50848 -22989299.44044  20714497.6884                   20714498.4454
 -11962495.52047  -9310675.38843  22731459.9224                   22731462.0634
    585226.555 5                  25031165.156
 11  9 23  0 27  0.0000000  0  9G02G29G30G12G15G25G05G26G21
 -29186566.34047 -22730851.92643  22040307.9844                   22040306.8524
 -18374501.39548 -14315485.57044  21635053.0234                   21635053.4614
 -11911065.77047  -9443792.21843  22522844.4614                   22522846.3444
 -22370501.71947 -17417677.74943  22401253.9694                   22401256.1374
  -4940906.12947  -3839420.75143  23601193.0864                   23601197.1994
 -21284324.91848 -16526316.04144  21796592.1564                   21796595.7274
 -29494914.58248 -22967928.57444  20719716.5474                   20719717.1844
 -12071024.68447  -9395243.37643  22710806.8364                   22710810.2624
    504937.152 6                  25015887.133
 11  9 23  0 27 30.0000000  0  9G02G29G30G12G15G25G05G26G21
 -29162687.39147 -22712244.96843  22044851.9614                   22044850.4654
 -18469091.37548 -14389191.95744  21617053.0164                   21617053.7974
 -11930752.88347  -9459132.78443  22519098.8754                   22519100.4734
 -22306549.41047 -17367844.83643  22413424.3524                   22413425.5044
  -5060023.71147  -3932239.24343  23578526.1954                   23578530.3954
 -21266688.54348 -16512573.46543  21799947.8674                   21799952.4264
 -29467060.04748 -22946223.73844  20725017.4304                   20725017.3714
 -12179269.51247  -9479589.87043  22690208.5004                   22690211.3484
    424663.004 5                  25000610.977
 11  9 23  0 28  0.0000000  0  9G02G29G30G12G15G25G05G26G21
 -29138696.82047 -22693550.95443  22049417.0394                   22049415.9884
 -18563454.51648 -14462721.63044  21599096.2424                   21599097.0124
 -11949854.09847  -9474016.86843  22515464.3594                   22515465.7854
 -22242340.37547 -17317811.92143  22425642.7034                   22425645.9774
  -5179100.67246  -4025026.25743  23555866.2344                   23555870.2774
 -21248549.02748 -16498438.78444  21803399.9304                   21803403.9024
 -29438779.78948 -22924187.13844  20730398.7504                   20730398.9384
 -12287226.86747  -9563712.31743  22669664.5394                   22669666.9064
    344403.000 5                  24985337.227
 11  9 23  0 28 30.0000000  0  9G02G29G30G12G15G25G05G26G21
 -29114595.12147 -22674770.40143  22054003.7114                   22054003.6334
 -18657589.06648 -14536073.15744  21581183.0164                   21581183.7274
 -11968370.85547  -9488445.52243  22511940.0944                   22511941.7934
 -22177877.64547 -17267581.27543  22437909.8444                   22437912.0204
  -5298134.46546  -4117779.42653  23533212.5704                   23533218.0744
 -21229909.16848 -16483914.19343  21806947.1884                   21806950.9304
 -29410076.58248 -22901820.98344  20735860.6954                   20735860.9454
 -12394893.65247  -9647608.35143  22649176.1884                   22649177.4344
    264156.402 5                  24970067.711
 11  9 23  0 29  0.0000000  0  9G02G29G30G12G15G25G05G26G21
 -29090381.47747 -22655902.62843  22058611.1174                   22058610.5474
 -18751491.70748 -14609243.95844  21563313.6884                   21563314.7624
 -11986303.09447  -9502418.81743  22508527.6484                   22508529.2544
 -22113163.21947 -17217154.57143  22450224.4064                   22450226.6174
  -5417121.19546  -4210495.87153  23510570.9774                   23510577.0314
 -21210770.04748 -16469000.66444  21810589.2584                   21810592.3444
 -29380951.86348 -22879126.42444  20741403.0944                   20741403.0984
 -12502265.15247  -9731274.25643  22628744.0554                   22628746.8404
    183923.402 4                  24954797.047
 11  9 23  0 29 30.0000000  0  9G02G29G30G12G15G25G05G26G21
 -29066060.28947 -22636951.00743  22063239.9614                   22063237.1684
 -18845165.56648 -14682236.54644  21545487.6724                   21545488.5904
 -12003656.94147  -9515941.37043  22505225.5474                   22505227.8634
 -22048205.28147 -17166537.99343  22462585.4774                   22462587.4964
  -5536063.45347  -4303178.00253  23487937.5394                   23487942.9384
 -21191139.06648 -16453703.84444  21814325.3914                   21814328.8164
 -29351413.04348 -22856109.14244  20747024.6414                   20747024.0514
 -12609343.14847  -9814711.58643  22608367.1334                   22608371.1294
    103698.28515                  24939530.422
 11  9 23  0 30  0.0000000  0  9G02G29G30G12G15G25G05G26G21
 -29041628.09847 -22617912.97443  22067889.1644                   22067887.6804
 -18938604.34048 -14755045.85944  21527707.5634                   21527707.6644
 -12020429.41847  -9529010.75043  22502033.5944                   22502035.0984
 -21983003.12147 -17115731.21643  22474992.9224                   22474995.3244
  -5654954.09847  -4395819.86453  23465313.2034                   23465313.5084
 -21171014.41848 -16438022.31643  21818154.2584                   21818158.4694
 -29321458.41448 -22832767.85744  20752724.1334                   20752723.7854
 -12716119.74247  -9897913.92643  22588049.4224                   22588052.4144
     23484.543 5                  24924267.750
 11  9 23  0 30 30.0000000  0  9G02G29G30G12G15G25G05G26G21
 -29017083.61347 -22598787.34943  22072559.6724                   22072557.9494
 -19031804.62148 -14827669.38844  21509972.1334                   21509972.8094
 -12036620.43047  -9541627.25543  22498952.7734                   22498954.3554
 -21917558.78947 -17064735.65243  22487446.6954                   22487448.8554
  -5773788.99647  -4488418.17443  23442699.9224                   23442703.7934
 -21150397.31648 -16421957.04144  21822077.7424                   21822081.6054
 -29291089.44948 -22809103.72144  20758503.7424                   20758502.6604
 -12822590.21947  -9980877.74843  22567788.2664                   22567790.6484
    -56717.211 5                  24909006.141
 11  9 23  0 31  0.0000000  0  9G02G29G30G12G15G25G05G26G21
 -28992425.61347 -22579573.29843  22077252.0164                   22077251.3554
 -19124763.24648 -14900104.62044  21492282.6094                   21492283.8594
 -12052230.05947  -9553790.56243  22495981.9224                   22495984.3954
 -21851874.26647 -17013552.94543  22499945.9144                   22499949.6254
  -5892564.66846  -4580970.42843  23420096.8524                   23420100.9024
 -21129289.01248 -16405509.08944  21826094.5784                   21826098.2934
 -29260307.25448 -22785117.60244  20764360.9614                   20764360.4964
 -12928750.12147 -10063599.51943  22547586.5944                   22547588.2894
   -136906.926 5                  24893745.500
 11  9 23  0 31 30.0000000  0  9G02G29G30G12G15G25G05G26G21
 -28967656.09448 -22560272.36943  22081965.4144                   22081965.0314
 -19217480.03148 -14972351.35444  21474639.0634                   21474640.6254
 -12067261.39847  -9565503.52543  22493121.6954                   22493123.2194
 -21785955.25047 -16962187.66043  22512490.0314                   22512493.3674
  -6011279.63347  -4673475.22943  23397505.8834                   23397509.2304
 -21107693.78548 -16388681.64744  21830204.5474                   21830208.2584
 -29229116.24648 -22760812.89044  20770296.5164                   20770296.2464
 -13034597.79747 -10146078.10143  22527443.7344                   22527445.9734
   -217086.984 5                  24878486.797
 11  9 23  0 32  0.0000000  0  9G02G29G30G12G15G25G05G26G21
 -28942773.85547 -22540883.62843  22086700.3054                   22086699.6214
 -19309951.76648 -15044407.17644  21457041.9694                   21457043.5514
 -12081714.47347  -9576765.65843  22490371.8444                   22490372.4844
 -21719803.32447 -16910640.71243  22525078.5004                   22525081.2624
  -6129930.26247  -4765930.02143  23374927.7194                   23374931.6724
 -21085612.94548 -16371475.83244  21834406.4224                   21834409.3754
 -29197518.00448 -22736190.86744  20776309.4144                   20776309.6684
 -13140128.62147 -10228309.73843  22507361.5394                   22507365.7344
   -297257.016 6                  24863231.219
 11  9 23  0 32 30.0000000  0  9G02G29G30G12G15G25G05G26G21
 -28917778.86747 -22521407.02143  22091456.7584                   22091456.6054
 -19402176.41448 -15116270.50644  21439491.9454                   21439491.9884
 -12095590.79347  -9587578.31053  22487731.4844                   22487733.3914
 -21653422.14547 -16858915.17943  22537710.9384                   22537712.1454
  -6248514.18047  -4858332.92143  23352362.3754                   23352365.3984
 -21063049.05148 -16353893.64343  21838700.0084                   21838703.1524
 -29165515.22348 -22711253.62144  20782399.1644                   20782399.7234
 -13245339.28947 -10310291.98043  22487340.3594                   22487344.0434
   -377417.695 6                  24847977.680
 11  9 23  0 33  0.0000000  0  9G02G29G30G12G15G25G05G26G21
 -28892670.25447 -22501841.89543  22096234.3134                   22096235.3244
 -19494151.20748 -15187939.05444  21421989.7504                   21421990.2074
 -12108890.67647  -9597941.96553  22485200.5634                   22485202.1914
 -21586813.77747 -16807012.67343  22550386.3674                   22550388.7894
  -6367027.16047  -4950680.34543  23329809.4144                   23329812.6294
 -21040003.72748 -16335936.28543  21843085.5164                   21843088.5784
 -29133109.49648 -22686002.41144  20788566.0164                   20788565.7624
 -13350225.64847 -10392021.33843  22467381.5704                   22467384.0984
   -457568.910 5                  24832723.500
 11  9 23  0 33 30.0000000  0  9G02G29G30G12G15G25G05G26G21
 -28867448.47747 -22482188.53543  22101034.1414                   22101033.1884
 -19585874.03948 -15259411.32844  21404535.7894                   21404535.9024
 -12121615.82047  -9607857.55643  22482778.2814                   22482780.1684
 -21519981.91047 -16754935.87043  22563103.3444                   22563106.0744
  -6485467.29747  -5042971.06643  23307269.5944                   23307274.4654
 -21016479.77748 -16317605.87444  21847562.1024                   21847565.3094
 -29100303.48448 -22660439.26644  20794808.6724                   20794808.5164
 -13454784.44547 -10473495.73843  22447484.9304                   22447486.6024
   -537711.926 6                  24817474.094
 11  9 23  0 34  0.0000000  0  9G02G29G30G12G15G25G05G26G21
 -28842111.62147 -22462445.55943  22105855.5084                   22105854.5004
 -19677341.21148 -15330684.37644  21387130.1884                   21387129.9964
 -12133765.71147  -9617325.14243  22480467.1254                   22480468.3244
 -21452928.40647 -16702686.50543  22575862.7734                   22575866.0984
  -6603829.75047  -5135201.42643  23284746.4844                   23284748.9654
 -20992477.92248 -16298903.21043  21852129.5004                   21852132.3204
 -29067098.28148 -22634565.02544  20801127.3834                   20801127.5864
 -13559010.32447 -10554710.58143  22427650.4534                   22427652.7934
   -617845.340 5                  24802223.859
 11  9 23  0 34 30.0000000  0  9G02G29G30G12G15G25G05G26G21
 -28816659.70347 -22442612.83543  22110699.2424                   22110697.8794
 -19768550.68048 -15401756.58644  21369773.4844                   21369774.3404
 -12145341.70747  -9626345.36343  22478264.0634                   22478266.1684
 -21385656.13347 -16650266.62243  22588665.2034                   22588666.9734
  -6722111.56247  -5227368.77743  23262238.6644                   23262241.2154
 -20968000.54748 -16279829.89044  21856787.6174                   21856790.6604
 -29033496.16848 -22608381.60244  20807521.4304                   20807521.5004
 -13662899.85547 -10635663.23343  22407881.2734                   22407883.9844
   -697969.797 5                  24786976.234
 11  9 23  0 35  0.0000000  0  9G02G29G30G12G15G25G05G26G21
 -28791094.97346 -22422692.25943  22115564.0474                   22115562.8484
 -19859502.39848 -15472627.99144  21352465.2894                   21352466.3914
 -12156347.51247  -9634921.33743  22476169.6094                   22476171.5904
 -21318170.73447 -16597680.60443  22601507.3914                   22601509.7194
  -6840312.16847  -5319472.83543  23239745.8364                   23239748.5274
 -20943052.54748 -16260389.90043  21861534.7734                   21861538.1254
 -28999501.84448 -22581892.52944  20813990.2424                   20813991.1254
 -13766451.81247 -10716353.09243  22388176.0864                   22388179.0594
   -778088.266 5                  24771729.367
 11  9 23  0 35 30.0000000  0  9G02G29G30G12G15G25G05G26G21
 -28765417.23047 -22402683.70343  22120449.8204                   22120447.6604
 -19950193.85948 -15543296.58144  21335207.1414                   21335208.2734
 -12166784.14147  -9643053.79743  22474183.6884                   22474185.3404
 -21250475.49647 -16544931.19443  22614389.0164                   22614391.3364
  -6958428.89147  -5411511.53543  23217269.1024                   23217271.1954
 -20917636.25848 -16240585.09244  21866371.4064                   21866374.5164
 -28965117.93448 -22555099.83744  20820533.4384                   20820533.9924
 -13869662.44947 -10796776.82343  22368535.1724                   22368537.9804
   -858201.273 6                  24756485.711
 11  9 23  0 36  0.0000000  0  9G02G29G30G12G15G25G05G26G21
 -28739625.14847 -22382585.89443  22125358.3914                   22125356.2624
 -20040621.76248 -15613759.79844  21317999.2274                   21318001.1524
 -12176651.92647  -9650742.85843  22472305.6254                   22472307.6884
 -21182572.28547 -16492019.64643  22627310.6884                   22627313.9654
  -7076456.78547  -5503481.16343  23194808.1094                   23194810.5124
 -20891752.87948 -16220416.28444  21871296.5314                   21871300.5984
 -28930345.48848 -22528004.40344  20827150.5084                   20827151.1334
 -13972527.10247 -10876930.91643  22348960.9144                   22348963.8524
   -938308.137 5                  24741240.023
 11  9 23  0 36 30.0000000  0  9G02G29G30G12G15G25G05G26G21
 -28713718.21147 -22362398.68943  22130287.9924                   22130286.8134
 -20130783.77048 -15684015.82744  21300842.5944                   21300842.7664
 -12185951.79347  -9657989.56843  22470535.8674                   22470538.0554
 -21114463.80947 -16438948.14243  22640271.9454                   22640274.2774
  -7194393.22747  -5595379.52143  23172365.5944                   23172368.6914
 -20865404.56648 -16199885.14744  21876310.8914                   21876314.3674
 -28895186.68748 -22500607.93144  20833841.2034                   20833840.7034
 -14075042.07447 -10956812.48843  22329453.1334                   22329455.5314
  -1018409.270 5                  24725998.664
 11  9 23  0 37  0.0000000  0  9G02G29G30G12G15G25G05G26G21
 -28687697.39847 -22342122.76843  22135239.7814                   22135238.7854
 -20220678.94948 -15754063.98344  21283736.0784                   21283737.1134
 -12194686.36347  -9664795.66843  22468874.0164                   22468876.0084
 -21046154.70747 -16385720.37743  22653270.0394                   22653273.0044
  -7312236.56247  -5687205.24243  23149940.3284                   23149943.1844
 -20838595.04348 -16178994.65544  21881412.0784                   21881415.9264
 -28859645.12548 -22472913.21244  20840604.6724                   20840604.5944
 -14177204.65247 -11036419.57643  22310011.8364                   22310014.5594
  -1098506.215 5                  24710755.719
 11  9 23  0 37 30.0000000  0  9G02G29G30G12G15G25G05G26G21
 -28661562.99648 -22321758.28043  22140213.1484                   22140211.5274
 -20310305.12948 -15823902.43544  21266680.5234                   21266680.8714
 -12202857.61347  -9671163.03743  22467318.9694                   22467321.4774
 -20977648.37547 -16332338.78543  22666306.2274                   22666309.5274
  -7429984.21947  -5778956.37743  23127533.3054                   23127536.9454
 -20811327.37148 -16157747.13444  21886601.3984                   21886604.6094
 -28823723.32847 -22444922.17644  20847439.6334                   20847439.7114
 -14279012.14847 -11115750.03243  22290638.6804                   22290641.8794
  -1178600.348 5                  24695515.258
 11  9 23  0 38  0.0000000  0  9G02G29G30G12G15G25G05G26G21
 -28635315.74247 -22301305.91443  22145207.5704                   22145206.1294
 -20399660.55148 -15893529.99444  21249676.4774                   21249677.6024
 -12210467.57447  -9677092.86843  22465870.6724                   22465873.3674
 -20908948.54747 -16278806.49143  22679379.6024                   22679382.4104
  -7547633.86747  -5870631.21043  23105145.1414                   23105148.4064
 -20783604.62948 -16136145.00444  21891876.9454                   21891880.0864
 -28787425.32448 -22416637.97244  20854346.9384                   20854347.0984
 -14380461.51647 -11194801.26943  22271333.3134                   22271335.4534
  -1258692.445 5                  24680274.883
 11  9 23  0 38 30.0000000  0  9G02G29G30G12G15G25G05G26G21
 -28608954.46147 -22280764.71043  22150224.1884                   22150223.5124
 -20488742.72748 -15962944.60244  21232724.6484                   21232725.7274
 -12217516.89847  -9682585.74343  22464530.1254                   22464531.7464
 -20840057.90247 -16225125.49643  22692488.8834                   22692491.4574
  -7665181.66447  -5962226.58043  23082776.2974                   23082779.7114
 -20755428.59848 -16114189.76543  21897238.5474                   21897242.2234
 -28750752.39848 -22388061.63644  20861325.7114                   20861326.1954
 -14481548.29347 -11273569.98643  22252096.7344                   22252098.7074
  -1338782.85215                  24665034.859
 11  9 23  0 39  0.0000000  0  9G02G29G30G12G15G25G05G26G21
 -28582477.89148 -22260133.58443  22155262.2194                   22155262.1564
 -20577547.89848 -16032143.35344  21215825.5164                   21215825.7624
 -12224005.85547  -9687642.15543  22463295.3134                   22463296.5744
 -20770978.30147 -16171297.28543  22705634.8284                   22705637.3984
  -7782623.40647  -6053739.43643  23060428.5634                   23060430.9064
 -20726800.66048 -16091882.29943  21902686.3054                   21902688.9694
 -28713706.02748 -22359194.35844  20868376.0084                   20868375.8244
 -14582267.93047 -11352052.70843  22232930.3364                   22232932.0514
  -1418870.766 5                  24649794.242
 11  9 23  0 39 30.0000000  0  9G02G29G30G12G15G25G05G26G21
 -28555888.19547 -22239414.24743  22160322.1564                   22160321.5514
 -20666076.20748 -16101126.42544  21198979.6254                   21198980.4804
 -12229938.20747  -9692264.70843  22462166.3524                   22462167.0554
 -20701715.05147 -16117325.97843  22718815.1564                   22718816.5744
  -7899958.41447  -6145169.13143  23038100.0634                   23038102.1684
 -20697725.63747 -16069226.45944  21908219.0554                   21908222.2664
 -28676290.48447 -22330039.35044  20875495.8984                   20875495.1334
 -14682619.16847 -11430248.34843  22213833.8674                   22213835.1524
  -1498958.57415                  24634552.180
 11  9 23  0 40  0.0000000  0  9G02G29G30G12G15G25G05G26G21
 -28529184.57447 -22218606.19043  22165403.5084                   22165402.7304
 -20754324.64148 -16169891.39244  21182185.8984                   21182186.8634
 -12235314.81247  -9696454.19443  22461143.1334                   22461143.8834
 -20632270.71947 -16063213.55943  22732030.0084                   22732032.1914
  -8017183.19946  -6236512.77843  23015792.1804                   23015795.6954
 -20668205.45747 -16046223.76543  21913836.3054                   21913839.9734
 -28638507.98447 -22300598.47344  20882685.3594                   20882684.7974
 -14782597.85947 -11508153.71943  22194808.9694                   22194811.0634
  -1579046.465 5                  24619311.695
 11  9 23  0 40 30.0000000  0  9G02G29G30G12G15G25G05G26G21
 -28502366.97747 -22197709.32643  22170506.4924                   22170506.0044
 -20842290.95348 -16238436.50044  21165446.5004                   21165447.1374
 -12240137.14547  -9700211.85943  22460225.4774                   22460227.3914
 -20562648.59447 -16008962.58543  22745278.2894                   22745281.0514
  -8134294.71146  -6327768.32843  22993505.8594                   22993508.7934
 -20638242.60548 -16022876.17143  21919539.0554                   21919541.3284
 -28600360.78948 -22270873.37844  20889944.7584                   20889944.2774
 -14882200.15247 -11585765.81943  22175854.3914                   22175856.4264
  -1659135.035 5                  24604072.102
 11  9 23  0 41  0.0000000  0  9G02G29G30G12G15G25G05G26G21
 -28475434.02347 -22176722.58843  22175631.4924                   22175630.5204
 -20929972.21947 -16306759.50944  21148761.0234                   21148762.5274
 -12244406.25047  -9703538.42843  22459412.6724                   22459414.2974
 -20492851.09047 -15954574.96943  22758560.6804                   22758563.7194
  -8251289.22747  -6418932.70343  22971242.9694                   22971245.1954
 -20607839.16047 -15999185.18143  21925323.6804                   21925327.5594
 -28561850.69948 -22240865.50244  20897273.0084                   20897273.2304
 -14981422.28547 -11663081.67343  22156973.6174                   22156975.8954
  -1739223.809 5                  24588830.430
 11  9 23  0 41 30.0000000  0  9G02G29G30G12G15G25G05G26G21
 -28448385.58647 -22155645.94043  22180778.5394                   22180778.0124
 -21017365.88347 -16374858.39744  21132130.4384                   21132130.9734
 -12248123.35547  -9706434.77943  22458705.5394                   22458708.5634
 -20422881.18047 -15900052.90143  22771875.7974                   22771877.7584
  -8368163.62947  -6510003.32043  22949002.2034                   22949004.4184
 -20576997.50447 -15975152.77144  21931192.7114                   21931196.2934
 -28522980.08247 -22210576.62844  20904669.6884                   20904669.2584
 -15080260.25847 -11740098.03343  22138165.0084                   22138168.1294
  -1819313.406 5                  24573590.828
 11  9 23  0 42  0.0000000  0  9G02G29G30G12G15G25G05G26G21
 -28421221.19147 -22134478.83543  22185948.3054                   22185946.9264
 -21104469.32447 -16442731.17644  21115555.2664                   21115556.1644
 -12251289.71147  -9708902.11443  22458102.4844                   22458105.0164
 -20352741.48847 -15845398.66443  22785222.7424                   22785225.2664
  -8484914.50047  -6600977.71243  22926784.6094                   22926787.5784
 -20545719.80147 -15950780.54544  21937144.7344                   21937149.0514
 -28483750.94148 -22180008.46544  20912134.4774                   20912134.3984
 -15178710.41447 -11816812.32343  22119430.6724                   22119432.3794
  -1899403.895 5                  24558349.773
 11  9 23  0 42 30.0000000  0 10G02G29G30G18G12G15G25G05G26G21
 -26818522.51648 -20885622.71243  22490931.8984                   22490930.3134
 -19615858.75448 -15282774.79744  21398828.7504                   21398828.7934
 -10678488.30147  -8483342.48543  22757396.3364                   22757398.5634
   2987395.94916                  24821968.984
 -18707019.15647 -14563017.70143  23098393.1484                   23098396.4184
  -7026116.30947  -5464251.75043  23204385.5944                   23204387.6844
 -18938591.26247 -14698472.60443  22242971.3054                   22242975.2074
 -26868748.68448 -20921565.15844  21219459.3594                   21219458.4494
 -13701347.07047 -10665619.99143  22400563.4694                   22400565.8914
   -404074.445 5                  24842900.484
 11  9 23  0 43  0.0000000  0 10G02G29G30G18G12G15G25G05G26G21
 -26791133.51247 -20864280.63843  22496144.2424                   22496142.0394
 -19702383.51248 -15350196.66244  21382363.6414                   21382364.8524
 -10680566.57047  -8484961.79343  22757000.6024                   22757003.6884
   2875756.438 6                  24800725.516
 -18636558.28147 -14508113.18943  23111801.8204                   23111804.8324
  -7142619.21947  -5555032.97943  23182215.4454                   23182217.6644
 -18906457.91047 -14673433.66344  22249086.2034                   22249090.0634
 -26828818.53947 -20890450.71944  21227058.0004                   21227057.4964
 -13799019.14547 -10741727.96643  22381977.1644                   22381978.8594
   -484176.824 5                  24827658.141
 11  9 23  0 43 30.0000000  0 10G02G29G30G18G12G15G25G05G26G21
 -26763640.12547 -20842857.19643  22501375.6484                   22501374.0634
 -19788623.37547 -15417396.51344  21365952.5474                   21365953.2774
 -10682111.34046  -8486165.61243  22756707.4224                   22756708.8794
   2764273.578 6                  24779509.813
 -18565949.45747 -14453093.37943  23125238.2504                   23125239.9344
  -7259001.83247  -5645720.61443  23160067.8594                   23160069.2384
 -18873908.84847 -14648070.76444  22255279.7584                   22255283.6954
 -26788549.77347 -20859072.44244  21234720.6884                   21234720.7304
 -13896305.16047 -10817535.05543  22363464.3914                   22363465.7074
   -564293.83215                  24812413.203
 11  9 23  0 44  0.0000000  0 10G02G29G30G18G12G15G25G05G26G21
 -26736037.23047 -20821348.47943  22506628.9614                   22506626.4384
 -19874571.40648 -15484368.91644  21349597.2894                   21349597.8054
 -10683119.47747  -8486951.22443  22756515.4384                   22756517.6954
   2652954.047 5                  24758325.734
 -18495190.77047 -14397956.75543  23138702.9694                   23138704.8054
  -7375256.57447  -5736308.30543  23137945.2424                   23137946.5744
 -18840941.82847 -14622382.26144  22261553.4384                   22261558.0164
 -26747939.94548 -20827428.43644  21242448.4534                   21242448.2934
 -13993196.66047 -10893034.90643  22345026.3984                   22345027.4384
   -644421.203 5                  24797165.117
 11  9 23  0 44 30.0000000  0  9G02G29G30G12G15G25G05G26G21
 -26708322.52747 -20799752.63443  22511902.3134                   22511902.6094
 -19960223.05947 -15551110.44644  21333297.7034                   21333298.8324
 -10683590.42247  -8487318.17243  22756425.5314                   22756429.2814
 -18424282.80147 -14342703.80943  23152196.1334                   23152198.5204
  -7491377.84847  -5826792.32643  23115847.7584                   23115849.6294
 -18807557.30948 -14596368.29544  22267906.3054                   22267910.1524
 -26706989.27747 -20795518.80044  21250241.3284                   21250241.5514
 -14089687.84447 -10968222.61043  22326664.0164                   22326665.6054
   -724557.355 5                  24781914.477
 11  9 23  0 45  0.0000000  0 10G02G29G30G18G12G15G25G05G26G21
 -26680495.98447 -20778069.68043  22517197.5944                   22517196.6414
 -20045576.50847 -15617619.53544  21317055.4844                   21317056.5204
 -10683526.42247  -8487268.29343  22756437.7344                   22756441.0084
   2430817.49615                  24716053.500
 -18353230.09047 -14287338.10343  23165717.1954                   23165720.6024
  -7607363.22747  -5917170.31843  23093776.2814                   23093778.3094
 -18773758.52048 -14570031.64144  22274338.4064                   22274341.1054
 -26665700.55148 -20763345.74844  21258098.0944                   21258098.0944
 -14185775.79747 -11043096.28743  22308379.4144                   22308380.1334
   -804703.410 5                  24766664.164
 11  9 23  0 45 30.0000000  0 10G02G29G30G18G12G15G25G05G26G21
 -26652553.75847 -20756296.37343  22522514.6804                   22522513.8834
 -20130625.70747 -15683891.55544  21300871.5864                   21300872.6564
 -10682925.38347  -8486799.92343  22756552.1414                   22756554.5084
   2320004.10515                  24694965.484
 -18282031.83247 -14231859.05443  23179265.3834                   23179268.6334
  -7723205.62947  -6007436.95243  23071732.2424                   23071734.8324
 -18739544.39148 -14543371.28444  22280848.5394                   22280853.1254
 -26624072.82448 -20730908.50244  21266019.4774                   21266019.8554
 -14281453.43047 -11117650.20443  22290172.1804                   22290174.4184
   -884855.367 6                  24751411.813
 11  9 23  0 46  0.0000000  0 10G02G29G30G18G12G15G25G05G26G21
 -26624495.80547 -20734433.18043  22527853.7344                   22527853.3984
 -20215368.69147 -15749925.00644  21284745.2194                   21284745.0514
 -10681789.55547  -8485914.82143  22756768.3914                   22756770.6994
   2209363.793 6                  24673911.438
 -18210691.29347 -14176269.15643  23192841.2274                   23192844.2154
  -7838902.52047  -6097590.13843  23049715.4924                   23049717.3284
 -18704917.93748 -14516389.66844  22287438.1414                   22287441.3094
 -26582108.68748 -20698209.18244  21274005.2584                   21274004.7664
 -14376717.47747 -11191881.81443  22272044.3594                   22272044.6254
   -965014.430 6                  24736157.883
 11  9 23  0 46 30.0000000  0 10G02G29G30G18G12G15G25G05G26G21
 -26596320.68047 -20712478.33143  22533215.0634                   22533214.1604
 -20299801.86348 -15815717.04844  21268678.5474                   21268679.1564
 -10680119.56247  -8484613.47243  22757086.2114                   22757089.0554
   2098898.742 6                  24652890.188
 -18139210.35947 -14120569.69743  23206444.1954                   23206446.0354
  -7954449.92247  -6187626.86943  23027727.4614                   23027729.1214
 -18669880.90648 -14489088.06944  22294105.4144                   22294108.4534
 -26539809.70348 -20665248.92544  21282054.4694                   21282053.6884
 -14471563.49647 -11265787.75643  22253995.4224                   22253997.4454
  -1045180.172 6                  24720902.828
 11  9 23  0 47  0.0000000  0 10G02G29G30G18G12G15G25G05G26G21
 -26568029.03147 -20690432.89143  22538599.1724                   22538599.3164
 -20383923.79348 -15881266.49744  21252670.7734                   21252671.0594
 -10677917.90247  -8482897.95443  22757504.8444                   22757507.5744
   1988610.05547   1559903.15253  24631903.3444                   24631906.9184
 -18067592.86347 -14064763.95743  23220072.3444                   23220074.9304
  -8069845.35546  -6277545.17143  23005768.3134                   23005771.3984
 -18634436.60948 -14461469.17044  22300850.2114                   22300854.7234
 -26497178.85948 -20632030.10244  21290166.6644                   21290166.1604
 -14565988.60947 -11339365.63843  22236026.5704                   22236028.8404
  -1125353.207 6                  24705646.266
 11  9 23  0 47 30.0000000  0 10G02G29G30G18G12G15G25G05G26G21
 -26539620.57447 -20668296.41643  22544005.1254                   22544005.3094
 -20467732.18448 -15946571.66244  21236722.6254                   21236723.4384
 -10675186.39147  -8480769.52843  22758024.7814                   22758027.2194
   1878498.33246   1474102.12043  24610949.7734                   24610953.9924
 -17995841.96147 -14008854.20643  23233726.7894                   23233729.1484
  -8185085.56646  -6367342.65443  22983837.8204                   22983840.8164
 -18598587.87948 -14433535.11944  22307671.9304                   22307675.2814
 -26454218.59848 -20598554.56744  21298341.4774                   21298341.9964
 -14659989.51247 -11412612.93443  22218138.9844                   22218140.4654
  -1205534.578 6                  24690388.891
 11  9 23  0 48  0.0000000  0 10G02G29G30G18G12G15G25G05G26G21
 -26511093.84047 -20646067.75043  22549433.6484                   22549433.4964
 -20551223.50048 -16011629.76045  21220834.4384                   21220834.4104
 -10671925.68747  -8478228.65443  22758645.4304                   22758648.5274
   1768566.25047   1388441.17843  24590030.2344                   24590035.0594
 -17923959.29747 -13952841.77543  23247405.0784                   23247407.8984
  -8300166.38346  -6457015.85743  22961939.3834                   22961942.5394
 -18562336.07447 -14405287.00544  22314570.5004                   22314574.1254
 -26410930.25447 -20564823.36844  21306579.0004                   21306579.8054
 -14753561.27347 -11485525.92743  22200332.5164                   22200334.7114
  -1285723.363 6                  24675127.727
 11  9 23  0 48 30.0000000  0 10G02G29G30G18G12G15G25G05G26G21
 -26482449.06647 -20623747.10543  22554884.0164                   22554884.6724
 -20634395.91048 -16076439.34444  21205007.2894                   21205007.5984
 -10668138.16447  -8475277.32243  22759366.2344                   22759367.5944
   1658814.54346   1302920.87142  24569144.5784                   24569149.0554
 -17851948.96147 -13896729.89643  23261108.4924                   23261111.3164
  -8415085.48847  -6546562.95443  22940071.2424                   22940074.5904
 -18525684.68048 -14376727.47844  22321545.2344                   22321549.4804
 -26367316.99647 -20530838.99544  21314878.3284                   21314878.7304
 -14846701.48447 -11558102.58043  22182608.5234                   22182610.8284
  -1365920.367 5                  24659866.867
 11  9 23  0 49  0.0000000  0 10G02G29G30G18G12G15G25G05G26G21
 -26453685.13347 -20601333.68643  22560357.7194                   22560357.4964
 -20717246.25848 -16140997.98144  21189240.9064                   21189241.6054
 -10663824.95747  -8471916.24543  22760187.5084                   22760188.1454
   1549245.219 6                  24548293.758
 -17779812.88747 -13840519.98443  23274835.4304                   23274838.1604
  -8529838.98447  -6635981.07043  22918234.1804                   22918236.6644
 -18488635.65648 -14347858.14743  22328595.4924                   22328599.3204
 -26323380.51248 -20496602.76944  21323239.4454                   21323239.7154
 -14939405.32047 -11630339.26143  22164968.3914                   22164968.4804
  -1446125.496 6                  24644604.875
 11  9 23  0 49 30.0000000  0 10G02G29G30G18G12G15G25G05G26G21
 -26424802.60547 -20578827.82243  22565853.7814                   22565853.4024
 -20799773.24647 -16205304.64844  21173536.1564                   21173537.0274
 -10658988.85947  -8468148.00143  22761106.8674                   22761109.1334
   1439858.242 6                  24527477.867
 -17707555.35947 -13784215.47843  23288585.6094                   23288588.9184
  -8644424.32447  -6725268.09243  22896428.9224                   22896430.1914
 -18451192.61347 -14318681.74443  22335720.8204                   22335724.5274
 -26279123.83248 -20462117.07244  21331660.9384                   21331660.9734
 -15031670.64147 -11702234.24743  22147409.7424                   22147411.3874
  -1526339.988 6                  24629340.000
 11  9 23  0 50  0.0000000  0 10G02G29G30G18G12G15G25G05G26G21
 -26395802.61747 -20556230.45043  22571372.0864                   22571371.7624
 -20881976.02047 -16269358.71444  21157893.5394                   21157894.1684
 -10653633.21147  -8463974.56643  22762126.2814                   22762128.5744
   1330653.602 6                  24506695.461
 -17635180.43447 -13727819.51543  23302358.1954                   23302361.9694
  -8758840.04347  -6814423.04643  22874655.5084                   22874657.4414
 -18413359.83247 -14289201.65043  22342919.6884                   22342923.8054
 -26234550.68748 -20427384.76244  21340143.0554                   21340142.9884
 -15123495.47347 -11773785.98843  22129936.1804                   22129937.0474
  -1606565.695 6                  24614073.133
 11  9 23  0 50 30.0000000  0 10G02G29G30G18G12G15G25G05G26G21
 -26366683.54747 -20533540.21443  22576914.1024                   22576912.2504
 -20963850.85547 -16333157.21344  21142313.1024                   21142314.0354
 -10647758.64547  -8459397.10843  22763244.0944                   22763246.4384
   1221633.996 5                  24485948.375
 -17562690.52047 -13671333.84343  23316152.3834                   23316156.2664
  -8873081.64547  -6903442.52943  22852916.4534                   22852918.0594
 -18375138.80147 -14259419.05543  22350192.5084                   22350197.3954
 -26189662.78148 -20392407.09644  21348684.9224                   21348684.4144
 -15214875.03947 -11844990.72543  22112546.7734                   22112547.8634
  -1686801.496 6                  24598804.523
 11  9 23  0 51  0.0000000  0 10G02G29G30G18G12G15G25G05G26G21
 -26337445.90647 -20510757.60943  22582477.8204                   22582475.4224
 -21045396.39548 -16396699.09844  21126796.0234                   21126796.7194
 -10641368.14847  -8454417.51243  22764460.7274                   22764462.8754
   1112799.340 5                  24465238.266
 -17490089.30547 -13614761.65943  23329968.1024                   23329969.7624
  -8987147.14147  -6992324.51943  22831210.0784                   22831212.4384
 -18336533.32447 -14229336.89643  22357539.4064                   22357542.9454
 -26144463.30948 -20357186.79644  21357286.2194                   21357285.0204
 -15305806.99247 -11915846.71143  22095243.4614                   22095244.4414
  -1767048.99246  -1352900.85552  24583533.5314                   24583533.9344
 11  9 23  0 51 30.0000000  0 10G02G29G30G18G12G15G25G05G26G21
 -26308089.10247 -20487882.22743  22588064.0394                   22588062.5124
 -21126609.77048 -16459982.18044  21111341.3444                   21111341.2034
 -10634463.03946  -8449036.90343  22765774.3914                   22765776.0204
   1004151.90615                  24444564.828
 -17417378.88347 -13558104.25943  23343803.6254                   23343804.8164
  -9101033.21147  -7081066.72943  22809538.4774                   22809540.2114
 -18297545.56647 -14198956.89443  22364958.3524                   22364964.0204
 -26098954.14848 -20321725.06744  21365946.3754                   21365945.9734
 -15396287.31247 -11986350.65143  22078025.0554                   22078026.7424
  -1847308.176 6                  24568260.844
 11  9 23  0 52  0.0000000  0 10G02G29G30G18G12G15G25G05G26G21
 -26278611.03147 -20464912.20543  22593673.3284                   22593672.3284
 -21207486.78547 -16523003.10844  21095950.5864                   21095950.0434
 -10627043.60547  -8443255.60943  22767186.0784                   22767187.4064
    895694.199 5                  24423924.359
 -17344561.32447 -13501363.27043  23357661.2194                   23357663.1054
  -9214734.41447  -7169664.87543  22787902.2274                   22787904.5944
 -18258176.66047 -14168279.75443  22372449.6254                   22372455.5314
 -26053135.92648 -20286022.55844  21374665.2504                   21374665.2424
 -15486310.73847 -12056498.80043  22060894.5474                   22060896.6174
  -1927577.535 5                  24552985.859
 11  9 23  0 52 30.0000000  0 10G02G29G30G18G12G15G25G05G26G21
 -26249013.12547 -20441848.95743  22599305.4224                   22599304.4304
 -21288027.04747 -16585761.68044  21080624.7114                   21080624.6334
 -10619113.53146  -8437076.44843  22768694.7974                   22768696.8754
    787425.508 6                  24403321.766
 -17271640.73847 -13444542.19343  23371537.0004                   23371542.1374
  -9328249.46947  -7258118.03543  22766300.7114                   22766302.6644
 -18218431.04347 -14137309.21543  22380013.8524                   22380018.0004
 -26007012.80548 -20250082.43444  21383441.8444                   21383441.7974
 -15575875.72747 -12126289.61343  22043851.0164                   22043852.3364
  -2007859.199 5                  24537708.531
 11  9 23  0 53  0.0000000  0 10G02G29G30G18G12G15G25G05G26G21
 -26219292.19947 -20418689.76943  22604961.3444                   22604959.6334
 -21368225.59047 -16648253.98544  21065363.1804                   21065363.7734
 -10610672.23046  -8430498.72943  22770300.9144                   22770303.0864
    679349.844 7                  24382756.828
 -17198618.12147 -13387641.38443  23385433.1484                   23385436.6524
  -9441572.79747  -7346421.75943  22744736.1254                   22744737.9414
 -18178309.11347 -14106045.37443  22387648.7424                   22387652.0124
 -25960584.98448 -20213904.87544  21392276.8134                   21392277.4304
 -15664976.39847 -12195718.64343  22026895.7114                   22026896.9414
  -2088150.977 5                  24522429.117
 11  9 23  0 53 30.0000000  0 10G02G29G30G18G12G15G25G05G26G21
 -26189451.22747 -20395437.07043  22610639.9144                   22610638.5554
 -21448083.09847 -16710480.53444  21050166.8134                   21050167.3484
 -10601725.07447  -8423527.06743  22772003.7194                   22772005.7384
    571465.066 7                  24362225.734
 -17125499.24646 -13330665.74143  23399346.8754                   23399350.9494
  -9554704.19547  -7434575.97343  22723207.5234                   22723209.7034
 -18137816.76647 -14074492.88243  22395354.0944                   22395357.8204
 -25913857.62948 -20177493.95444  21401168.7974                   21401168.7734
 -15753612.36347 -12264785.51843  22010028.3054                   22010029.5044
  -2168456.293 6                  24507146.422
 11  9 23  0 54  0.0000000  0 10G02G29G30G18G12G15G25G05G26G21
 -26159488.65647 -20372089.60443  22616341.3524                   22616341.4064
 -21527596.27048 -16772438.79245  21035035.8364                   21035036.8754
 -10592272.84447  -8416161.54443  22773802.6954                   22773804.3754
    463773.46547    371716.06553  24341732.4844                   24341734.1334
 -17052286.06647 -13273616.47143  23413279.1334                   23413281.8914
  -9667639.99247  -7522577.79743  22701716.4844                   22701717.9494
 -18096955.77747 -14042653.15743  22403129.3754                   22403133.2974
 -25866832.27748 -20140850.77644  21410117.0944                   21410116.9494
 -15841779.34047 -12333486.95143  21993250.8364                   21993251.3444
  -2248774.484 6                  24491863.594
 11  9 23  0 54 30.0000000  0 10G02G29G30G18G12G15G25G05G26G21
 -26129404.18747 -20348647.20743  22622066.3054                   22622065.8794
 -21606762.71948 -16834126.84645  21019971.2974                   21019972.2304
 -10582317.76247  -8408404.40843  22775697.1804                   22775699.5004
    356276.03947    287952.00043  24321275.9614                   24321280.6604
 -16978981.90646 -13216496.45143  23427228.6174                   23427230.5594
  -9780376.80147  -7610424.50943  22680263.1884                   22680265.4734
 -18055729.05147 -14010528.44743  22410974.6484                   22410979.3794
 -25819510.95348 -20103977.02744  21419122.6254                   21419122.7344
 -15929473.97347 -12401820.32043  21976562.3674                   21976563.3404
  -2329106.023 6                  24476577.063
 11  9 23  0 55  0.0000000  0 10G02G29G30G18G12G15G25G05G26G21
 -26099197.89147 -20325110.02643  22627814.5314                   22627812.9924
 -21685580.52348 -16895543.27045  21004972.4774                   21004972.7154
 -10571862.05547  -8400257.17943  22777687.3134                   22777689.1524
    248974.14547    204340.72143  24300856.7894                   24300860.2274
 -16905589.82446 -13159307.84243  23441194.8524                   23441197.5554
  -9892911.60247  -7698113.70543  22658849.0704                   22658850.0434
 -18014139.67247 -13978121.14444  22418888.5864                   22418893.5984
 -25771897.05548 -20066875.29744  21428183.1024                   21428183.2344
 -16016693.24247 -12469783.30843  21959965.7034                   21959966.2544
  -2409451.445 6                  24461287.820
 11  9 23  0 55 30.0000000  0 10G02G29G30G18G12G15G25G05G26G21
 -26068869.89547 -20301477.57643  22633585.6724                   22633586.5084
 -21764047.69947 -16956686.46044  20990040.2584                   20990041.0784
 -10560908.51647  -8391721.96043  22779771.8914                   22779773.7584
    141868.36746    120881.85043  24280474.7974                   24280479.6024
 -16832113.63746 -13102053.63343  23455176.3284                   23455178.9654
 -10005241.98047  -7785643.72043  22637473.0474                   22637473.7854
 -17972191.14147 -13945434.05443  22426872.0864                   22426875.4734
 -25723993.40648 -20029547.76744  21437298.6564                   21437298.8674
 -16103434.50847 -12537373.74343  21943459.2344                   21943459.3554
  -2489811.840 6                  24445995.922
 11  9 23  0 56  0.0000000  0 10G02G29G30G18G12G15G25G05G26G21
 -26038418.43747 -20277749.18243  22639380.4844                   22639380.6914
 -21842160.81247 -17017553.77444  20975175.6954                   20975176.0164
 -10549457.87946  -8382799.42043  22781949.9224                   22781952.6524
     34960.40246     37577.31843  24260131.4454                   24260136.5664
 -16758554.52046 -13044734.89643  23469174.6024                   23469177.6764
 -10117363.52347  -7873010.97543  22616136.8674                   22616138.3054
 -17929884.89147 -13912468.09343  22434922.0234                   22434926.7384
 -25675800.93048 -19991995.16344  21446469.2734                   21446469.3204
 -16189692.95747 -12604588.05243  21927044.8524                   21927045.0004
  -2570185.937 6                  24430701.039
 11  9 23  0 56 30.0000000  0 10G02G29G30G18G12G15G25G05G26G21
 -26007843.51247 -20253924.53943  22645198.4844                   22645198.9774
 -21919917.78947 -17078143.54944  20960379.4454                   20960380.0434
 -10537512.64546  -8373491.39343  22784222.9534                   22784225.3954
    -71748.47746    -45572.16543  24239824.6174                   24239829.4224
 -16684916.28946 -12987354.52643  23483188.2034                   23483190.7074
 -10229273.21547  -7960213.13943  22594840.9384                   22594842.6524
 -17887224.29347 -13879226.12543  22443040.2814                   22443045.0164
 -25627322.35948 -19954219.61844  21455694.6094                   21455694.0164
 -16275465.71947 -12671424.08443  21910722.6254                   21910724.3554
  -2650574.74246  -2041369.56252  24415403.4534                   24415407.8874
 11  9 23  0 57  0.0000000  0 10G02G29G30G18G12G15G25G05G26G21
 -25977144.59047 -20230003.28343  22651040.6954                   22651040.2704
 -21997316.28948 -17138453.98044  20945650.6804                   20945650.9844
 -10525075.06246  -8363799.84243  22786589.6174                   22786592.8754
   -178257.25446   -128565.80552  24219556.1884                   24219560.4144
 -16611201.21147 -12929914.24143  23497215.5084                   23497217.0824
 -10340968.12947  -8047247.96243  22573585.2114                   22573586.9614
 -17844212.23847 -13845710.25343  22451224.7504                   22451229.5664
 -25578559.91848 -19916222.93744  21464973.8754                   21464973.5554
 -16360749.55147 -12737878.78743  21894493.5474                   21894494.6644
  -2730978.11747  -2104021.27752  24400103.7344                   24400107.1954
 11  9 23  0 57 30.0000000  0 10G02G29G30G18G12G15G25G05G26G21
 -25946321.34847 -20205985.15843  22656906.3054                   22656906.6294
 -22074353.64148 -17198483.02244  20930991.0314                   20930990.2544
 -10512147.01247  -8353725.98143  22789050.2734                   22789053.1134
   -284564.29346   -211402.23842  24199326.7734                   24199330.8014
 -16537413.06646 -12872417.11943  23511256.9694                   23511259.5164
 -10452445.05147  -8134112.92043  22552372.0704                   22552374.0044
 -17800851.33647 -13811922.58144  22459476.3444                   22459480.2424
 -25529516.07848 -19878006.92244  21474306.4774                   21474305.9264
 -16445540.93047 -12803949.90643  21878358.1954                   21878359.1484
  -2811396.39546  -2166684.77342  24384799.4454                   24384802.9964
 11  9 23  0 58  0.0000000  0 10G02G29G30G18G12G15G25G05G26G21
 -25915373.99247 -20181870.36543  22662795.1804                   22662794.7734
 -22151028.44948 -17258229.60044  20916400.5164                   20916399.7504
 -10498731.44147  -8343272.38742  22791604.0704                   22791606.2114
   -390669.73446   -294081.29743  24179135.1884                   24179139.8244
 -16463555.14146 -12814865.44043  23525311.0394                   23525313.6524
 -10563701.22747  -8220805.86643  22531200.7114                   22531202.3634
 -17757145.32047 -13777865.98243  22467793.2344                   22467796.9844
 -25480193.97748 -19839574.13544  21483692.4384                   21483691.5944
 -16529837.45347 -12869635.29243  21862317.3134                   21862317.7734
  -2891830.57046  -2229360.62552  24369493.0784                   24369493.7384
 11  9 23  0 58 30.0000000  0 10G02G29G30G18G12G15G25G05G26G21
 -25884300.76247 -20157657.44243  22668708.1254                   22668707.7934
 -22227336.97748 -17317690.72644  20901878.9614                   20901878.8794
 -10484829.15247  -8332439.49643  22794249.3524                   22794251.4774
   -496570.63346   -376601.47153  24158982.6724                   24158986.0314
 -16389628.68746 -12757260.57343  23539378.9224                   23539381.9884
 -10674732.23047  -8307323.53043  22510072.3834                   22510072.6994
 -17713095.51647 -13743541.44943  22476175.5084                   22476179.0004
 -25430594.45348 -19800925.11444  21493130.5704                   21493130.5274
 -16613634.45747 -12934931.68243  21846370.8524                   21846371.8404
  -2972279.70746  -2292048.06443  24354184.3754                   24354185.9924
 11  9 23  0 59  0.0000000  0 10G02G29G30G18G12G15G25G05G26G21
 -25853102.50847 -20133347.09743  22674644.5314                   22674644.7934
 -22303277.90247 -17376865.43744  20887427.9924                   20887427.0634
 -10470443.37547  -8321229.70643  22796986.8134                   22796988.3674
   -602266.75046   -458961.72443  24138869.0394                   24138872.1684
 -16315637.75446 -12699605.35643  23553458.8914                   23553461.7504
 -10785536.01247  -8393663.82943  22488986.9384                   22488988.6994
 -17668705.96547 -13708952.16243  22484622.4534                   22484625.6644
 -25380720.73848 -19762062.47344  21502621.1804                   21502621.0354
 -16696929.56247 -12999836.80243  21830520.6094                   21830520.7624
  -3052745.18746  -2354748.56653  24338871.7584                   24338877.4144
 11  9 23  0 59 30.0000000  0 10G02G29G30G18G12G15G25G05G26G21
 -25821779.61347 -20108939.64843  22680604.9304                   22680603.9144
 -22378849.69547 -17435752.51244  20873047.1024                   20873046.9614
 -10455577.42247  -8309645.98243  22799815.2894                   22799818.7464
   -707758.36846   -541162.78152  24118794.1254                   24118797.1994
 -16241586.30146 -12641902.93052  23567551.5474                   23567554.3014
 -10896110.30947  -8479825.57043  22467945.2664                   22467947.4454
 -17623980.58647 -13674101.31344  22493133.4224                   22493137.9304
 -25330576.77748 -19722989.26444  21512163.6884                   21512163.5634
 -16779720.67647 -13064349.32943  21814765.8754                   21814766.6054
  -3133228.02346  -2417462.20253  24323556.6724                   24323559.6094
 11  9 23  1  0  0.0000000  0 10G02G29G30G18G12G15G25G05G26G21
 -25790330.02347 -20084433.39543  22686589.6024                   22686588.9384
 -22454048.93048 -17494349.28444  20858737.5864                   20858737.1254
 -10440231.92647  -8297688.36643  22802735.8524                   22802738.2194
   -813042.801 6                  24098759.563
 -16167476.47746 -12584155.09543  23581653.4924                   23581655.5744
 -11006450.48447  -8565804.76643  22446948.1414                   22446948.9924
 -17578920.76647 -13638989.78443  22501708.5474                   22501712.0944
 -25280163.22748 -19683705.90043  21521756.8204                   21521755.7344
 -16862003.20347 -13128465.47143  21799108.1094                   21799108.5634
  -3213727.34846  -2480189.05043  24308238.5634                   24308240.9064
 11  9 23  1  0 30.0000000  0 10G02G29G30G18G12G15G25G05G26G21
 -25758753.72747 -20059828.53443  22692598.6334                   22692597.5904
 -22528873.04747 -17552653.73744  20844498.9064                   20844497.9654
 -10424409.51247  -8285359.22243  22805746.1954                   22805748.3794
   -918119.27746   -705079.85353  24078764.0704                   24078768.2774
 -16093310.89546 -12526363.69443  23595766.2734                   23595769.5634
 -11116553.69547  -8651599.37943  22425996.1644                   22425997.3874
 -17533529.78547 -13603620.19843  22510346.2584                   22510350.2194
 -25229482.57448 -19644214.47644  21531400.9454                   21531400.3874
 -16943773.97747 -13192182.76543  21783547.3444                   21783547.7974
  -3294243.39146  -2542925.70853  24292916.3204                   24292916.8874
 11  9 23  1  1  0.0000000  0 10G02G29G30G18G12G15G25G05G26G21
 -25727049.87547 -20035124.20743  22698631.7114                   22698630.6804
 -22603319.39848 -17610663.85344  20830332.2274                   20830332.0474
 -10408111.89847  -8272659.86343  22808847.9844                   22808848.6414
  -1022986.062 6                  24058808.188
 -16019091.78946 -12468530.73842  23609891.0394                   23609894.3524
 -11226416.36347  -8737206.41843  22405090.4064                   22405090.9574
 -17487809.93447 -13567994.31343  22519046.2194                   22519050.4494
 -25178536.76248 -19604516.42244  21541095.5394                   21541095.7734
 -17025029.59047 -13255498.82143  21768085.1024                   21768085.5044
  -3374775.87946  -2605678.05543  24277591.2894                   24277593.4884
 11  9 23  1  1 30.0000000  0 10G02G29G30G18G12G15G25G05G26G21
 -25695219.62547 -20010321.32443  22704688.8594                   22704687.8444
 -22677387.48848 -17668379.16844  20816237.3674                   20816236.7934
 -10391343.08647  -8259593.26043  22812038.2344                   22812040.5354
  -1127643.81646   -868345.54453  24038892.4844                   24038894.2154
 -15944823.91446 -12410659.76843  23624023.1414                   23624026.7814
 -11336036.62947  -8822624.77143  22384229.2894                   22384231.0634
 -17441765.74247 -13532115.81343  22527807.9064                   22527811.4144
 -25127329.75448 -19564614.87444  21550839.8524                   21550839.7854
 -17105768.40647 -13318412.04443  21752721.0634                   21752721.3674
  -3455326.82046  -2668444.78343  24262263.7114                   24262265.5944
 11  9 23  1  2  0.0000000  0 10G02G29G30G18G12G15G25G05G26G21
 -25663262.02347 -19985419.37943  22710770.4614                   22710769.2074
 -22751074.53548 -17725797.59645  20802215.1954                   20802213.9654
 -10374104.71147  -8246160.86543  22815319.3984                   22815321.7464
  -1232090.90246   -949732.41452  24019016.8364                   24019020.0944
 -15870509.52346 -12352752.48442  23638164.9454                   23638167.8244
 -11445411.13347  -8907851.47043  22363416.3834                   22363416.1134
 -17395399.78147 -13495986.44143  22536631.2584                   22536635.1454
 -25075863.19548 -19524511.06044  21560633.7584                   21560633.3594
 -17185986.51647 -13380919.55443  21737455.4614                   21737455.9224
  -3535895.85546  -2731225.87153  24246931.1954                   24246933.3164
 11  9 23  1  2 30.0000000  0 10G02G29G30G18G12G15G25G05G26G21
 -25631176.67247 -19960417.84743  22716876.0394                   22716874.5394
 -22824378.20348 -17782917.31944  20788265.8054                   20788265.2774
 -10356399.44146  -8232364.47643  22818687.4384                   22818691.2074
  -1336326.11346  -1030954.48543  23999180.6174                   23999184.4184
 -15796151.906 6                  23652314.492
 -11554537.04347  -8992884.55243  22342650.4614                   22342650.8244
 -17348715.04347 -13459608.76343  22545515.2424                   22545519.1954
 -25024139.57848 -19484206.90244  21570476.0394                   21570476.0434
 -17265681.16847 -13443019.15343  21722289.6414                   21722289.6134
  -3616483.36346  -2794021.19543  24231596.5474                   24231597.7424
 11  9 23  1  3  0.0000000  0 10G02G29G30G18G12G15G25G05G26G21
 -25598962.98047 -19935316.25743  22723006.2664                   22723005.0824
 -22897295.83648 -17839736.17544  20774390.1884                   20774389.0514
 -10338229.15246  -8218205.86243  22822146.2034                   22822147.5084
  -1440348.672 6                  23979385.852
 -15721753.59846 -12236838.77052  23666471.3754                   23666475.7814
 -11663410.43747  -9077720.87843  22321931.3364                   22321932.9344
 -17301714.17247 -13422984.79444  22554459.1804                   22554462.5744
 -24972161.21948 -19443704.30544  21580367.7894                   21580367.4304
 -17344848.95747 -13504708.23143  21707224.5234                   21707225.2274
  -3697089.37146  -2856830.87942  24216257.0084                   24216257.8954
 11  9 23  1  3 30.0000000  0 10G02G29G30G18G12G15G25G05G26G21
 -25566620.70347 -19910114.44143  22729160.5084                   22729160.0984
 -22969825.11748 -17896252.43144  20760587.9614                   20760587.5434
 -10319596.46546  -8203686.99343  22825691.5234                   22825693.7074
  -1544157.58646  -1192900.57052  23959631.4454                   23959636.1684
 -15647317.41046 -12178836.47843  23680636.7974                   23680639.6994
 -11772028.51647  -9162358.19043  22301262.3834                   22301263.6844
 -17254400.29747 -13386116.81043  22563462.5554                   22563466.9344
 -24919930.75048 -19403005.28144  21590306.8134                   21590307.3914
 -17423486.85947 -13565984.41043  21692260.4774                   21692260.8914
  -3777714.16046  -2919655.26753  24200913.9304                   24200918.3014
 11  9 23  1  4  0.0000000  0 10G02G29G30G18G12G15G25G05G26G21
 -25534150.27047 -19884812.75243  22735338.9534                   22735338.2774
 -23041965.12948 -17952465.40644  20746860.1024                   20746860.1094
 -10300504.71146  -8188810.13853  22829325.0554                   22829326.4534
  -1647752.301 6                  23939917.992
 -15572847.33646 -12120807.92443  23694808.3284                   23694812.2304
 -11880389.16847  -9246794.93343  22280642.3524                   22280643.5904
 -17206777.44947 -13349008.09443  22572524.8754                   22572529.0204
 -24867450.82448 -19362111.84744  21600293.3364                   21600292.7584
 -17501592.76247 -13626846.08043  21677397.2974                   21677397.9654
  -3858358.984 6                  24185567.930
 11  9 23  1  4 30.0000000  0 10G02G29G30G18G12G15G25G05G26G21
 -25501550.64847 -19859410.50643  22741542.6334                   22741541.9654
 -23113712.73448 -18008372.57644  20733207.1414                   20733207.5944
 -10280955.86747  -8173577.35243  22833045.4224                   22833046.3404
  -1751131.64146  -1354177.91553  23920246.1024                   23920246.6994
 -15498345.76646 -12062754.76243  23708985.3914                   23708989.3404
 -11988488.94147  -9331028.41243  22260071.6254                   22260072.5824
 -17158848.02047 -13311660.50043  22581646.2034                   22581649.6024
 -24814724.07848 -19321026.03844  21610326.8364                   21610326.6524
 -17579163.25847 -13687290.52543  21662636.0164                   21662636.2424
  -3939023.633 6                  24170218.398
 11  9 23  1  5  0.0000000  0 10G02G29G30G18G12G15G25G05G26G21
 -25468822.87547 -19833908.32243  22747770.4774                   22747769.8054
 -23185067.35948 -18063973.54345  20719629.0164                   20719628.9384
 -10260953.74647  -8157991.48353  22836851.3134                   22836849.8594
  -1854296.02046  -1434565.44543  23900613.8754                   23900616.1844
 -15423817.086 6                  23723166.602
 -12096325.70347  -9415056.96143  22239550.6644                   22239551.6954
 -17110616.47347 -13274077.54944  22590823.9534                   22590828.9694
 -24761754.03948 -19279750.69144  21620406.4534                   21620406.4024
 -17656196.82047 -13747316.57143  21647976.6484                   21647977.3484
  -4019709.613 6                  24154864.523
 11  9 23  1  5 30.0000000  0 10G02G29G30G18G12G15G25G05G26G21
 -25435966.03147 -19808305.54743  22754022.9224                   22754022.7664
 -23256025.81248 -18119265.78845  20706126.3204                   20706125.6414
 -10240499.926 6                  22840743.328
  -1957243.461 6                  23881023.789
 -15349263.410 6                  23737353.578
 -12203895.57847  -9498877.50243  22219080.6174                   22219081.3794
 -17062084.84047 -13236260.72844  22600058.9774                   22600063.1764
 -24708542.10248 -19238286.83944  21630532.7504                   21630531.6994
 -17732689.20747 -13806920.88743  21633420.7344                   21633421.0394
  -4100416.67646  -3171112.34153  24139504.9534                   24139505.8634
 11  9 23  1  6  0.0000000  0 10G02G29G30G18G12G15G25G05G26G21
 -25402977.95747 -19782600.49443  22760301.0474                   22760300.0984
 -23326583.98048 -18174246.14544  20692699.1414                   20692698.8014
 -10219595.28946  -8125763.94353  22844721.8134                   22844722.4654
  -2059971.67646  -1594831.73653  23861474.9384                   23861474.9774
 -15274685.87946 -11888474.44152  23751546.0234                   23751547.6524
 -12311193.92647  -9582486.57443  22198662.6724                   22198663.2464
 -17013254.57847 -13198211.18043  22609351.2034                   22609355.7734
 -24655088.77748 -19196634.87344  21640704.5164                   21640703.7154
 -17808636.16447 -13866100.31343  21618968.1334                   21618968.9844
  -4181142.945 6                  24124143.547
 11  9 23  1  6 30.0000000  0 10G02G29G30G18G12G15G25G05G26G21
 -25369859.11347 -19756793.58243  22766603.2504                   22766602.2544
 -23396740.84048 -18228913.76644  20679348.2734                   20679347.8874
 -10198243.15647  -8109125.99453  22848784.5864                   22848786.6994
  -2162480.16046  -1674708.18543  23841968.4454                   23841970.3984
 -15200088.336 6                  23765741.930
 -12418218.57447  -9665882.25143  22178296.4144                   22178296.5204
 -16964129.69547 -13159932.10144  22618699.3914                   22618704.6804
 -24601397.43748 -19154797.45644  21650921.3754                   21650921.9144
 -17884035.48047 -13924852.91343  21604620.1254                   21604621.0634
  -4261890.09846  -3296935.18052  24108777.9924                   24108780.4454
 11  9 23  1  7  0.0000000  0 10G02G29G30G18G12G15G25G05G26G21
 -25336609.43747 -19730884.68643  22772930.6254                   22772928.5044
 -23466494.43048 -18283267.14144  20666074.1484                   20666073.8364
 -10176446.41447  -8092141.59943  22852932.0784                   22852934.2814
  -2264768.51646  -1754413.32442  23822503.6484                   23822506.0514
 -15125473.84846 -11772205.28552  23779939.3284                   23779942.0744
 -12524966.86347  -9749062.60143  22157982.5944                   22157982.9024
 -16914713.48048 -13121425.92444  22628103.3754                   22628107.6174
 -24547470.95348 -19112776.82743  21661183.3134                   21661184.1484
 -17958884.55147 -13983176.81943  21590377.0784                   21590378.0004
  -4342658.48446  -3359871.34052  24093407.9144                   24093410.1914
 11  9 23  1  7 30.0000000  0 10G02G29G30G18G12G15G25G05G26G21
 -25303227.46947 -19704872.90043  22779282.8364                   22779281.7624
 -23535841.60247 -18337303.83544  20652878.1254                   20652877.5354
 -10154206.59047  -8074811.81443  22857164.7344                   22857166.6724
  -2366834.85546  -1833945.51253  23803079.3914                   23803085.7074
 -15050844.40246 -11714052.57042  23794142.2194                   23794145.5164
 -12631434.34447  -9832024.13743  22137722.6334                   22137722.7194
 -16865007.96548 -13082694.35044  22637561.6254                   22637564.5664
 -24493310.71148 -19070573.99644  21671489.4304                   21671489.8954
 -18033179.81647 -14041069.14443  21576239.3134                   21576240.1254
  -4423447.07447  -3422823.45443  24078034.4844                   24078034.8554
 11  9 23  1  8  0.0000000  0 10G02G29G30G18G12G15G25G05G26G21
 -25269714.21547 -19678758.53943  22785660.1884                   22785659.2894
 -23604781.53548 -18391023.22644  20639759.3674                   20639758.3954
 -10131527.59046  -8057139.83242  22861480.2584                   22861482.2384
  -2468679.49246  -1913304.46443  23783699.6254                   23783702.8874
 -14976204.11747 -11655891.10343  23808345.8594                   23808348.0984
 -12737619.39847  -9914765.67943  22117516.3834                   22117516.2234
 -16815017.57847 -13043740.86043  22647074.7034                   22647077.9804
 -24438920.17648 -19028191.76544  21681840.1254                   21681839.6724
 -18106919.25447 -14098528.38443  21562206.6564                   21562207.4304
  -4504257.51647  -3485792.28055  24062656.1884                   24062656.5664
 11  9 23  1  8 30.0000000  0 10G02G29G30G18G12G15G25G05G26G21
 -25236073.29747 -19652544.82843  22792061.4304                   22792060.5434
 -23673316.09448 -18444426.73745  20626717.7114                   20626717.0704
 -10108416.16047  -8039131.03443  22865878.9384                   22865881.5944
  -2570305.52346  -1992493.32343  23764360.8834                   23764363.7854
 -14901560.34847 -11597727.33043  23822549.7974                   23822552.3874
 -12843523.27747  -9997288.06243  22097363.1644                   22097363.5164
 -16764749.53148 -13004570.92143  22656640.4454                   22656644.9384
 -24384305.78548 -18985635.05444  21692232.5394                   21692231.8054
 -18180104.60247 -14155555.81943  21548280.1024                   21548281.6724
  -4585094.35547  -3548781.80553  24047274.2194                   24047273.3594
 11  9 23  1  9  0.0000000  0 10G02G29G30G18G12G15G25G05G26G21
 -25202299.62947 -19626227.60843  22798488.1334                   22798487.5354
 -23741438.22748 -18497508.88545  20613754.5634                   20613753.9924
 -10084869.90246  -8020783.15743  22870359.1804                   22870361.3164
  -2671707.37146  -2071507.37543  23745064.7034                   23745067.2974
 -14826910.88347 -11539558.67453  23836755.7584                   23836758.1214
 -12949137.94147 -10079585.04443  22077265.0314                   22077265.3594
 -16714201.97748 -12965183.27344  22666259.0554                   22666263.2664
 -24329465.32048 -18942902.18244  21702668.6884                   21702667.6454
 -18252727.87547 -14212145.26743  21534460.2734                   21534460.8284
  -4665952.44547  -3611788.02742  24031887.4844                   24031886.6414
 11  9 23  1  9 30.0000000  0 10G02G29G30G18G12G15G25G05G26G21
 -25168393.08647 -19599807.06843  22804939.9384                   22804939.7974
 -23809146.02348 -18550268.17845  20600870.3914                   20600870.0474
 -10060892.012 6                  22874922.047
  -2772884.75046  -2150346.82543  23725811.1724                   23725813.6804
 -14752259.10946 -11481388.68442  23850960.0634                   23850964.6684
 -13054460.83247 -10161654.76743  22057223.1414                   22057223.9964
 -16663378.53548 -12925580.61643  22675930.6414                   22675935.4964
 -24274401.38748 -18899995.21644  21713146.3054                   21713147.2624
 -18324786.83647 -14268295.06443  21520747.7814                   21520747.6724
  -4746833.12947  -3674811.87253  24016495.6024                   24016496.0234
 11  9 23  1 10  0.0000000  0 10G02G29G30G18G12G15G25G05G26G21
 -25134350.56647 -19573280.35643  22811417.9304                   22811417.4734
 -23876434.68748 -18602700.84144  20588065.2894                   20588065.2894
 -10036482.20746  -7983078.61453  22879567.1334                   22879569.1844
  -2873833.48846  -2229007.74953  23706600.8054                   23706605.0204
 -14677604.734 6                  23865166.102
 -13159485.93447 -10243492.33144  22037237.3134                   22037238.7234
 -16612279.27748 -12885763.02143  22685654.3364                   22685659.6094
 -24219113.51648 -18856913.74143  21723667.4534                   21723667.1764
 -18396275.54747 -14324000.44543  21507143.8054                   21507142.8954
  -4827733.41847  -3737850.98943  24001101.0394                   24001101.8634
 11  9 23  1 10 30.0000000  0 10G02G29G30G18G12G15G25G05G26G21
 -25100174.84847 -19546649.83743  22817921.6024                   22817921.1254
 -23943305.26247 -18654807.74944  20575340.0234                   20575340.4184
 -10011646.26247  -7963725.85943  22884293.1254                   22884296.3244
  -2974556.23047  -2307492.88943  23687434.8284                   23687436.8094
 -14602954.102 6                  23879372.133
 -13264213.39547 -10325098.05143  22017307.9534                   22017308.9804
 -16560910.60247 -12845735.51844  22695429.5004                   22695435.0394
 -24163607.26248 -18813662.09144  21734229.6174                   21734230.0824
 -18467194.70347 -14379262.14643  21493648.3834                   21493648.1804
  -4908656.91846  -3800908.03542  23985701.5784                   23985702.2544
 11  9 23  1 11  0.0000000  0 10G02G29G30G18G12G15G25G05G26G21
 -25065865.77747 -19519915.54043  22824451.0704                   22824449.6844
 -24009755.48848 -18706587.11445  20562694.9924                   20562695.7814
  -9986386.91847  -7944043.30053  22889100.2504                   22889100.5704
  -3075052.13746  -2385800.97653  23668310.2274                   23668313.1334
 -14528309.914 6                  23893576.703
 -13368640.25847 -10406469.55243  21997436.1954                   21997436.6914
 -16509275.69548 -12805500.52143  22705255.5314                   22705260.3634
 -24107884.97747 -18770242.04844  21744833.0234                   21744833.3404
 -18537541.67247 -14434077.81043  21480261.5634                   21480262.0664
  -4989603.98446  -3863983.63143  23970297.4844                   23970299.5124
 11  9 23  1 11 30.0000000  0 10G02G29G30G18G12G15G25G05G26G21
 -25031421.77747 -19493075.98543  22831005.1724                   22831003.7464
 -24075782.58248 -18758036.74844  20550131.0084                   20550130.6374
  -9960705.82046  -7924032.14142  22893986.4064                   22893988.5044
  -3175319.336 6                  23649229.250
 -14453674.21547 -11248725.53253  23907779.5084                   23907781.4184
 -13472762.52047 -10487603.61643  21977622.9144                   21977622.5514
 -16457376.57447 -12765059.69543  22715131.4384                   22715135.8634
 -24051947.78947 -18726654.59543  21755477.5634                   21755478.0354
 -18607312.59847 -14488444.71843  21466984.7424                   21466983.9344
  -5070573.55947  -3927076.49252  23954889.1174                   23954892.3094
 11  9 23  1 12  0.0000000  0 10G02G29G30G18G12G15G25G05G26G21
 -24996844.21147 -19466132.43043  22837585.3054                   22837582.6294
 -24141386.20348 -18809156.37745  20537646.6334                   20537647.0004
  -9934607.54346  -7903695.82042  22898953.8914                   22898954.7304
  -3275358.879 6                  23630191.617
 -14379051.66047 -11190577.93843  23921979.5234                   23921984.7194
 -13576579.10548 -10568499.57043  21957867.1484                   21957867.4494
 -16405218.24247 -12724416.86943  22725056.7344                   22725060.4224
 -23995800.21547 -18682903.23244  21766162.7424                   21766162.6604
 -18676506.93447 -14542362.30143  21453817.9614                   21453816.1094
  -5151567.77747  -3990188.80543  23939476.8674                   23939476.9184
 11  9 23  1 12 30.0000000  0 10G02G29G30G18G12G15G25G05G26G21
 -24962130.19147 -19439082.47543  22844191.0164                   22844189.0554
 -24206561.39848 -18859942.21245  20525244.5474                   20525244.6884
  -9908092.06247  -7883034.53643  22903998.8524                   22904000.3204
  -3375167.070 6                  23611200.141
 -14304442.46147 -11132440.82343  23936178.3364                   23936180.9304
 -13680084.12147 -10649152.65343  21938169.8284                   21938170.8754
 -16352801.03147 -12683572.24043  22735031.5864                   22735036.7584
 -23939441.83647 -18638987.56644  21776887.4694                   21776886.8134
 -18745118.72747 -14595825.87843  21440761.3134                   21440761.1454
  -5232584.14147  -4053318.31843  23924059.9224                   23924059.7974
 11  9 23  1 13  0.0000000  0 10G02G29G30G18G12G15G25G05G26G21
 -24927280.55547 -19411927.01943  22850822.1024                   22850821.6884
 -24271307.17648 -18910393.39745  20512923.7424                   20512923.6024
  -9881163.20347  -7862050.91042  22909123.2344                   22909125.2974
  -3474744.422 6                  23592250.086
 -14229850.75047 -11074317.62243  23950371.0004                   23950375.5234
 -13783275.68047 -10729561.60343  21918533.3914                   21918533.8554
 -16300129.22748 -12642529.28643  22745055.0164                   22745058.2304
 -23882875.95347 -18594910.23244  21787651.1174                   21787651.9414
 -18813147.04747 -14648834.93843  21427815.7194                   21427815.6914
  -5313623.94947  -4116466.11043  23908638.5004                   23908638.3714
 11  9 23  1 13 30.0000000  0 10G02G29G30G18G12G15G25G05G26G21
 -24892295.44147 -19384665.81242  22857480.7814                   22857478.8404
 -24335622.01648 -18960508.78545  20500684.9064                   20500684.7894
  -9853824.52346  -7840748.19453  22914325.6174                   22914327.2704
  -3574091.04746  -2774661.13352  23573345.8444                   23573345.7934
 -14155279.89847 -11016210.49043  23964561.6644                   23964566.4924
 -13886151.67647 -10809724.52143  21898956.4384                   21898957.1954
 -16247206.66447 -12601290.94643  22755126.0234                   22755129.6094
 -23826105.78147 -18550673.67343  21798454.4224                   21798454.5634
 -18880589.66448 -14701387.53543  21414981.6804                   21414982.1414
  -5394688.09847  -4179632.78753  23893213.0704                   23893213.5704
 11  9 23  1 14  0.0000000  0 10G02G29G30G18G12G15G25G05G26G21
 -24857173.78147 -19357298.27043  22864163.8364                   22864160.9694
 -24399503.17648 -19010286.24245  20488528.7424                   20488528.9384
  -9826077.87146  -7819127.41343  22919605.4384                   22919608.1214
  -3673205.02046  -2851892.45742  23554483.7424                   23554484.7814
 -14080731.45347 -10958120.67053  23978748.3674                   23978757.4144
 -13988708.21148 -10889638.66443  21879440.6414                   21879440.3204
 -16194035.71947 -12559859.04743  22765243.5004                   22765248.2464
 -23769132.57447 -18506279.00644  21809296.0394                   21809296.4184
 -18947443.53548 -14753481.42843  21402260.2424                   21402260.4414
  -5475776.02346  -4242818.05943  23877781.8284                   23877782.3524
 11  9 23  1 14 30.0000000  0 10G02G29G30G18G12G15G25G05G26G21
 -24821917.22347 -19329825.65143  22870872.4924                   22870871.3244
 -24462951.03948 -19059726.12745  20476455.1414                   20476453.4344
  -9797927.96146  -7797192.32442  22924962.6024                   22924963.9064
  -3772087.820 6                  23535666.609
 -14006210.98047 -10900052.96253  23992929.2274                   23992934.2274
 -14090944.43748 -10969303.07143  21859985.6334                   21859985.6134
 -16140621.50847 -12518237.65943  22775408.1334                   22775411.4734
 -23711961.04748 -18461729.71244  21820175.6334                   21820175.4304
 -19013707.69948 -14805115.75943  21389650.5944                   21389651.2424
  -5556889.93047  -4306023.58343  23862346.2894                   23862346.9654
 11  9 23  1 15  0.0000000  0 10G02G29G30G18G12G15G25G05G26G21
 -24786523.09847 -19302245.68043  22877608.0164                   22877607.5904
 -24525960.63348 -19108824.44645  20464464.6884                   20464463.6954
  -9769375.25446  -7774943.53952  22930395.8834                   22930398.6954
  -3870736.06247  -3005812.44952  23516895.1254                   23516889.3674
 -13931718.83647 -10842007.00953  24007105.3444                   24007105.1484
 -14192854.85248 -11048713.71043  21840592.8914                   21840592.3244
 -16086964.73847 -12476427.19843  22785618.4224                   22785623.2854
 -23654590.95348 -18417025.75544  21831093.2504                   21831092.3404
 -19079377.58248 -14856287.01344  21377154.0784                   21377153.4654
  -5638027.51247  -4369247.75842  23846906.7734                   23846907.2934
 11  9 23  1 15 30.0000000  0 10G02G29G30G18G12G15G25G05G26G21
 -24750992.16047 -19274559.23943  22884369.2274                   22884368.0004
 -24588531.47748 -19157580.86544  20452557.6954                   20452556.5394
  -9740423.83246  -7752383.90543  22935905.1334                   22935906.7624
  -3969150.32447  -3082498.42242  23498166.9844                   23498163.7154
 -13857258.45347 -10783985.90242  24021274.3984                   24021276.1414
 -14294437.62547 -11127868.99443  21821261.9144                   21821262.6094
 -16033069.88347 -12434431.23043  22795874.3914                   22795878.8054
 -23597025.55948 -18372169.57444  21842047.5864                   21842046.2304
 -19144451.69948 -14906994.02143  21364770.8284                   21364769.9924
  -5719190.18447  -4432491.23443  23831461.3754                   23831462.2304
 11  9 23  1 16  0.0000000  0 10G02G29G30G18G12G15G25G05G26G21
 -24715322.86747 -19246765.06743  22891156.9224                   22891155.0514
 -24650660.21948 -19205992.83844  20440734.9224                   20440734.0664
  -9711075.21146  -7729514.71543  22941490.3134                   22941492.1414
  -4067328.81647  -3159000.94953  23479484.6334                   23479483.3594
 -13782832.11747 -10725991.43755  24035437.7034                   24035430.0234
 -14395688.41447 -11206765.61743  21801994.7344                   21801995.0434
 -15978938.83647 -12392251.23643  22806175.1884                   22806180.8404
 -23539266.11748 -18327162.19143  21853038.5784                   21853037.4144
 -19208926.43747 -14957233.98043  21352501.5394                   21352501.5314
  -5800376.86747  -4495753.50043  23816012.8594                   23816012.4264
 11  9 23  1 16 30.0000000  0 10G02G29G30G18G12G15G25G05G26G21
 -24679516.25447 -19218863.75243  22897971.2504                   22897970.0084
 -24712346.38348 -19254059.91844  20428996.1094                   20428995.3164
  -9681333.680 6                  22947149.867
  -4165272.043 6                  23460845.547
 -13708443.89547 -10668026.48453  24049593.9844                   24049595.4694
 -14496606.12147 -11285402.64743  21782789.6564                   21782791.2504
 -15924576.13747 -12349890.65443  22816519.7814                   22816524.1954
 -23481316.46947 -18282006.65343  21864065.8444                   21864064.4144
 -19272800.69147 -15007006.10143  21340346.6174                   21340346.4184
  -5881589.07447  -4559035.60143  23800558.0234                   23800558.7774
 11  9 23  1 17  0.0000000  0 10G02G29G30G18G12G15G25G05G26G21
 -24643571.25447 -19190854.68443  22904811.0944                   22904809.5514
 -24773586.89548 -19301779.76744  20417342.5394                   20417342.3324
  -9651201.13346  -7682859.56653  22952884.2504                   22952886.3244
  -4262978.62147  -3311455.02752  23442252.5394                   23442253.0354
 -13634095.523 6                  24063739.531
 -14597186.75447 -11363777.02943  21763650.2664                   21763650.9574
 -15869984.14847 -12307351.45543  22826909.2584                   22826913.3954
 -23423178.15647 -18236704.10144  21875129.2504                   21875128.3204
 -19336071.35247 -15056307.78943  21328306.0704                   21328307.2774
  -5962826.35246  -4622337.09743  23785098.4534                   23785098.5474
 11  9 23  1 17 30.0000000  0 10G02G29G30G18G12G15G25G05G26G21
 -24607488.44947 -19162738.15943  22911677.2034                   22911675.8794
 -24834380.73048 -19349151.56445  20405773.9614                   20405773.7274
  -9620681.34046  -7659078.12843  22958691.7194                   22958692.7234
  -4360448.359 6                  23423704.352
 -13559790.691 6                  24077879.078
 -14697428.35248 -11441887.30243  21744574.9454                   21744575.2424
 -15815166.80547 -12264636.74343  22837339.9144                   22837343.7774
 -23364854.25847 -18191256.88644  21886227.7114                   21886226.9804
 -19398736.67247 -15105137.86944  21316381.7344                   21316382.3554
  -6044089.59847  -4685658.94353  23769635.3914                   23769634.4414
 11  9 23  1 18  0.0000000  0 10G02G29G30G18G12G15G25G05G26G21
 -24571267.63747 -19134514.14043  22918569.4774                   22918568.4184
 -24894726.45748 -19396174.18045  20394290.7814                   20394289.7274
  -9589777.68046  -7634997.34053  22964571.3134                   22964569.0354
  -4457681.45746  -3463170.20653  23405200.7034                   23405205.9654
 -13485532.56246 -10494330.68553  24092012.9844                   24092015.4024
 -14797328.37948 -11519731.34143  21725564.8914                   21725564.4574
 -15760127.80547 -12221749.26043  22847813.9304                   22847817.7664
 -23306347.40648 -18145667.14944  21897361.4454                   21897360.8954
 -19460794.86347 -15153494.79944  21304572.0394                   21304573.1684
  -6125379.74647  -4749001.96143  23754166.0474                   23754165.5634
 11  9 23  1 18 30.0000000  0 10G02G29G30G18G12G15G25G05G26G21
 -24534906.94947 -19106181.22343  22925488.2034                   22925488.7234
 -24954620.57847 -19442844.86745  20382893.1954                   20382891.9884
  -9558491.371 6                  22970526.070
  -4554675.57047  -3538749.83653  23386743.9454                   23386749.3244
 -13411322.86347 -10436504.89043  24106133.5314                   24106136.9064
 -14896882.54748 -11597305.96643  21706620.1884                   21706620.1454
 -15704868.84847 -12178690.39043  22858328.3914                   22858334.5634
 -23247658.32447 -18099935.31344  21908529.3524                   21908528.9384
 -19522242.03947 -15201375.62743  21292879.0234                   21292879.9344
  -6206695.090 6                  23738691.609
 11  9 23  1 19  0.0000000  0 10G02G29G30G18G12G15G25G05G26G21
 -24498405.81646 -19077738.89643  22932433.6334                   22932434.4104
 -25014060.48448 -19489161.62845  20371581.6954                   20371580.6884
  -9526824.930 6                  22976551.328
  -4651429.29347  -3614142.32842  23368332.2974                   23368334.7854
 -13337163.57846 -10378718.49242  24120245.0944                   24120248.3364
 -14996087.06247 -11674608.07643  21687741.7274                   21687741.7664
 -15649392.48447 -12135462.03843  22868886.1024                   22868891.2154
 -23188788.98047 -18054063.08443  21919731.5474                   21919731.1524
 -19583075.31647 -15248778.13644  21281302.8754                   21281302.0904
  -6288035.44546  -4875746.26252  23723212.1174                   23723213.4804
 11  9 23  1 19 30.0000000  0 10G02G29G30G18G12G15G25G05G26G21
 -24461766.88347 -19049189.05143  22939406.7194                   22939405.9414
 -25073047.62548 -19535125.58545  20360357.1174                   20360355.4614
  -9494784.434 6                  22982647.852
  -4747945.32847  -3689349.60343  23349966.2584                   23349966.6334
 -13263060.71547 -10320975.64753  24134346.1724                   24134349.7544
 -15094942.54748 -11751638.21644  21668930.1484                   21668930.1804
 -15593705.12947 -12092069.30843  22879482.0634                   22879489.5314
 -23129744.80147 -18008054.66543  21930966.8524                   21930966.7894
 -19643295.62148 -15295702.95144  21269843.4774                   21269843.5274
  -6369403.88346  -4939150.09452  23707728.1804                   23707728.5274
 11  9 23  1 20  0.0000000  0 10G02G29G30G18G12G15G25G05G26G21
 -22849570.03147 -17792931.75453  23246197.4924                   23246195.0124
 -23556156.86348 -18353132.75545  20649011.6254                   20649010.5514
  -7886952.664 6                  23288608.688
  -3268798.63747  -2536767.67353  23631438.1254                   23631437.4304
 -11613598.27347  -9035680.52953  24448228.3914                   24448231.9494
 -13618021.41048 -10600790.43843  21949978.6414                   21949978.6414
 -13962390.68447 -10820915.16243  23189911.5314                   23189917.4024
 -21495108.56647 -16734312.10944  22242027.7034                   22242027.9304
 -18127477.46147 -14114545.92543  21558293.5394                   21558293.5204
  -4875376.76646  -3774972.96542  23992032.4224                   23992030.7464
 11  9 23  1 20 30.0000000  0 10G02G29G30G18G12G15G25G05G26G21
 -22812650.12547 -17764162.87643  23253222.7664                   23253221.8914
 -23614228.05948 -18398383.01745  20637961.0314                   20637960.5984
  -7854168.102 6                  23294847.563
  -3364832.70347  -2611598.81543  23613163.9454                   23613163.6564
 -11539611.88347  -8978028.86342  24462307.5474                   24462311.3984
 -13716165.16448 -10677266.02743  21931302.2734                   21931302.3874
 -13906286.34847 -10777197.62943  23200588.4224                   23200592.4224
 -21435716.53947 -16688032.58643  22253330.5394                   22253329.1644
 -18186460.55947 -14160506.64544  21547069.4224                   21547069.5314
  -4956797.25846  -3838417.41453  23976538.5474                   23976535.8204
 11  9 23  1 21  0.0000000  0 10G02G29G30G18G12G15G25G05G26G21
 -22775589.91047 -17735284.82042  23260275.1884                   23260273.6054
 -23671839.10547 -18443274.68045  20626998.2974                   20626997.1764
  -7821016.63346  -6256745.78552  23301156.4774                   23301157.8014
  -3460625.55947  -2686242.60542  23594934.0314                   23594934.8164
 -11465688.27746  -8920425.97753  24476374.8524                   24476376.3954
 -13813949.44147 -10753461.46544  21912694.9844                   21912695.3524
 -13849978.94147 -10733321.65543  23211302.7734                   23211306.7664
 -21376154.86747 -16641620.85843  22264664.5394                   22264663.5434
 -18244822.27047 -14205983.24143  21535963.6254                   21535963.2664
  -5038244.719 6                  23961038.469
 11  9 23  1 21 30.0000000  0 10G02G29G30G18G12G15G25G05G26G21
 -22738389.01647 -17706297.08943  23267354.6564                   23267352.0744
 -23728987.82848 -18487806.11645  20616123.1954                   20616122.3914
  -7787500.87146  -6230629.52342  23307533.4694                   23307535.6094
  -3556176.05947  -2760697.22453  23576751.3284                   23576746.2424
 -11391830.24247  -8862874.34042  24490429.5784                   24490430.7624
 -13911371.30948 -10829374.49144  21894156.2734                   21894156.6054
 -13793471.26647 -10689289.75543  23222056.4064                   23222059.7194
 -21316425.41447 -16595078.40043  22276030.2894                   22276029.6684
 -18302560.23848 -14250973.85044  21524976.0864                   21524976.2464
  -5119719.121 6                  23945534.656
 11  9 23  1 22  0.0000000  0 10G02G29G30G18G12G15G25G05G26G21
 -22701046.79346 -17677199.23343  23274460.6724                   23274458.0664
 -23785672.51248 -18531975.95245  20605336.3754                   20605335.6564
  -7753623.961 5                  23313979.563
  -3651483.98847  -2834963.13855  23558614.8594                   23558611.7854
 -11318040.84046  -8805376.16153  24504471.0864                   24504471.6524
 -14008428.00448 -10905002.98944  21875686.9454                   21875687.2894
 -13736766.89847 -10645104.65443  23232845.9774                   23232850.3524
 -21256530.66047 -16548407.14143  22287427.8444                   22287427.7154
 -18359672.66448 -14295476.85144  21514107.9694                   21514109.1564
  -5201220.87946  -4028878.52052  23930025.9304                   23930024.5594
 11  9 23  1 22 30.0000000  0 10G02G29G30G18G12G15G25G05G26G21
 -22663561.18047 -17647989.71143  23281594.5554                   23281591.6804
 -23841889.20348 -18575781.11545  20594638.2504                   20594638.0124
  -7719386.895 6                  23320494.875
  -3746546.996 6                  23540525.242
 -11244320.57847  -8747931.80943  24518499.7274                   24518501.3754
 -14105114.71548 -10980343.19044  21857287.8834                   21857288.0124
 -13679866.93447 -10600766.94943  23243674.5554                   23243678.9104
 -21196471.06247 -16501607.48743  22298856.8204                   22298856.0704
 -18416155.11348 -14339489.04943  21503359.8444                   21503358.4654
  -5282747.69546  -4092405.68643  23914511.7664                   23914510.7814
 11  9 23  1 23  0.0000000  0 10G02G29G30G18G12G15G25G05G26G21
 -22625934.14547 -17618669.88443  23288754.0474                   23288753.8364
 -23897638.73048 -18619222.27945  20584029.9144                   20584029.2074
  -7684795.07446  -6150599.21353  23327078.3444                   23327079.0124
  -3841366.26247  -2982923.84754  23522481.0554                   23522466.5554
 -11170674.72746  -8690545.22543  24532513.8444                   24532515.7734
 -14201431.00448 -11055394.66243  21838959.3524                   21838958.1454
 -13622777.00447 -10556281.37143  23254538.2344                   23254542.9694
 -21136250.83647 -16454682.64143  22310315.8054                   22310316.7894
 -18472008.21947 -14383010.91043  21492730.9694                   21492731.5204
  -5364302.187 6                  23898992.563
 11  9 23  1 23 30.0000000  0 10G02G29G30G18G12G15G25G05G26G21
 -22588163.59447 -17589238.31243  23295942.2584                   23295941.0514
 -23952917.37548 -18662296.43745  20573510.3204                   20573509.0664
  -7649849.63346  -6123368.73243  23333727.6804                   23333729.7464
  -3935939.92247  -3056615.46155  23504483.7814                   23504486.1174
 -11097104.12547  -8633217.35243  24546513.9924                   24546516.9734
 -14297372.00448 -11130153.76344  21820702.3134                   21820701.0394
 -13565498.32047 -10511648.66743  23265438.3914                   23265443.6054
 -21075870.47348 -16407632.93343  22321806.4224                   22321806.6334
 -18527227.73848 -14426039.02344  21482223.0944                   21482224.0474
  -5445882.89846  -4219523.44153  23883468.1174                   23883466.1374
 11  9 23  1 24  0.0000000  0 10G02G29G30G18G12G15G25G05G26G21
 -22550248.85547 -17559694.27943  23303156.7974                   23303155.1844
 -24007722.80148 -18705001.95845  20563081.2274                   20563080.4964
  -7614553.07046  -6095865.02753  23340444.1884                   23340447.0314
  -4030266.67247  -3130116.90053  23486534.4144                   23486531.7934
 -11023610.949 6                  24560499.281
 -14392934.56248 -11204618.00244  21802517.3524                   21802517.5904
 -13508033.71947 -10466870.90643  23276373.6484                   23276377.2584
 -21015331.82447 -16360460.03543  22333326.5474                   22333327.4184
 -18581811.41448 -14468571.66643  21471836.3204                   21471836.1214
  -5527489.29347  -4283112.88743  23867938.9384                   23867938.2774
 11  9 23  1 24 30.0000000  0 10G02G29G30G18G12G15G25G05G26G21
 -22512189.53947 -17530037.46243  23310399.4694                   23310398.2194
 -24062053.29348 -18747337.35245  20552742.5704                   20552741.7274
  -7578908.22746  -6068089.72743  23347226.9694                   23347229.8914
  -4124346.23046  -3203425.21552  23468631.3754                   23468628.7464
 -10950197.684 6                  24574469.773
 -14488115.83247 -11278785.12444  21784404.4534                   21784404.3444
 -13450386.30547 -10421951.00842  23287342.7734                   23287348.5594
 -20954636.85548 -16313165.12543  22344876.3754                   22344876.7624
 -18635757.10248 -14510607.21543  21461570.9924                   21461570.8284
  -5609121.17647  -4346721.95742  23852405.0234                   23852403.8404
 11  9 23  1 25  0.0000000  0 10G02G29G30G18G12G15G25G05G26G21
 -22473986.92246 -17500269.32143  23317668.8594                   23317667.6484
 -24115908.54348 -18789302.41345  20542493.9924                   20542494.0514
  -7542919.91046  -6040046.95643  23354075.3054                   23354077.2854
  -4218179.47347  -3276541.98153  23450775.9144                   23450770.9224
 -10876869.117 6                  24588423.148
 -14582914.77748 -11352654.30644  21766364.9304                   21766364.2114
 -13392560.95346 -10376892.33653  23298346.9224                   23298350.2854
 -20893789.69947 -16265751.74643  22356455.3204                   22356455.8524
 -18689064.41447 -14552145.32943  21451426.8984                   21451427.8054
  -5690780.44546  -4410352.26543  23836864.7504                   23836865.9264
 11  9 23  1 25 30.0000000  0 10G02G29G30G18G12G15G25G05G26G21
 -22435639.27346 -17470388.12243  23324965.2424                   23324964.8134
 -24169285.27748 -18830894.61145  20532336.8134                   20532336.3484
  -7506589.82846  -6011737.70342  23360989.3364                   23360990.6604
  -4311764.55947  -3349465.06543  23432967.0164                   23432964.7704
 -10803626.31646  -8404533.29253  24602361.4774                   24602365.7544
 -14677327.10948 -11426222.28243  21748398.5394                   21748397.9454
 -13334559.55146 -10331696.38742  23309383.4454                   23309388.3554
 -20832790.82847 -16218220.16843  22368063.1724                   22368062.4734
 -18741730.19547 -14593183.56043  21441404.4924                   21441405.6374
  -5772466.09446  -4474003.34042  23821321.0394                   23821321.4144
 11  9 23  1 26  0.0000000  0 10G02G29G30G18G12G15G25G05G26G21
 -22397148.15646 -17440395.06843  23332290.6414                   23332289.7814
 -24222183.71547 -18872114.15745  20522270.6174                   20522270.3874
  -7469922.68046  -5983165.89852  23367967.1884                   23367971.1644
  -4405102.69147  -3422196.00343  23415205.5084                   23415204.9734
 -10730473.64546  -8347531.26243  24616281.6254                   24616286.2424
 -14771351.80948 -11499488.15544  21730506.3054                   21730506.2894
 -13276386.78946 -10286367.08252  23320453.5314                   23320459.4064
 -20771644.38348 -16170573.58143  22379699.0234                   22379698.9924
 -18793753.87148 -14633721.40344  21431504.6024                   21431505.0474
  -5854179.41847  -4537675.96043  23805771.6644                   23805771.1454
 11  9 23  1 26 30.0000000  0 10G02G29G30G18G12G15G25G05G26G21
 -22358512.28146 -17410288.91643  23339642.4924                   23339640.9024
 -24274601.65648 -18912959.23445  20512295.4774                   20512294.6484
  -7432920.92246  -5954333.41543  23375007.9454                   23375011.4414
  -4498193.06647  -3494733.77053  23397490.2114                   23397489.9844
 -10657413.29347  -8290601.18343  24630185.2504                   24630188.1094
 -14864985.50448 -11572449.39144  21712688.8284                   21712688.8954
 -13218045.54746 -10240906.30143  23331556.4924                   23331560.5984
 -20710352.27048 -16122813.48943  22391362.3594                   22391362.2304
 -18845133.39147 -14673757.23544  21421727.4614                   21421728.4734
  -5935920.19546  -4601370.00243  23790215.9694                   23790217.1094
 11  9 23  1 27  0.0000000  0 10G02G29G30G18G12G15G25G05G26G21
 -22319730.73046 -17380069.87753  23347022.2344                   23347019.8404
 -24326535.94148 -18953427.46045  20502412.6414                   20502412.1884
  -7395586.57846  -5925241.31343  23382112.9144                   23382114.6644
  -4591033.85247  -3567077.26843  23379823.3674                   23379824.1804
 -10584446.891 6                  24644069.641
 -14958224.44148 -11645103.03243  21694945.6564                   21694945.7154
 -13159537.76247 -10195315.75243  23342690.8914                   23342696.8094
 -20648915.44948 -16074940.58643  22403053.1564                   22403052.5514
 -18895865.60947 -14713288.84044  21412073.0864                   21412073.7974
  -6017687.33246  -4665084.41143  23774656.4224                   23774657.1254
 11  9 23  1 27 30.0000000  0 10G02G29G30G18G12G15G25G05G26G21
 -22280803.64146 -17349736.83843  23354429.9064                   23354426.9104
 -24377985.46547 -18993517.96445  20492622.6724                   20492621.4774
  -7357923.316 6                  23389278.984
  -4683624.95747  -3639225.97643  23362203.8754                   23362205.4264
 -10511577.51647  -8176962.95353  24657936.8524                   24657938.6484
 -15051066.64848 -11717447.51244  21677278.2974                   21677277.9884
 -13100867.35546 -10149598.64842  23353854.8284                   23353861.0704
 -20587336.51247 -16026957.02443  22414771.0554                   22414771.8284
 -18945949.35947 -14752315.09444  21402542.5864                   21402542.7854
  -6099481.63746  -4728820.30353  23759090.9774                   23759090.9654
 11  9 23  1 28  0.0000000  0 10G02G29G30G18G12G15G25G05G26G21
 -22241730.70346 -17319290.35943  23361864.8834                   23361862.8554
 -24428948.81248 -19033229.56745  20482924.3984                   20482923.7034
  -7319933.92246  -5866291.47352  23396508.8834                   23396509.0904
  -4775965.71547  -3711179.68443  23344631.5864                   23344633.0514
 -10438807.79346  -8120259.23043  24671783.7584                   24671786.8484
 -15143509.05148 -11789480.45044  21659687.4384                   21659685.8134
 -13042037.242 6                  23365049.406
 -20525617.52047 -15978864.27843  22426516.2974                   22426516.5594
 -18995382.79347 -14790834.54743  21393135.7974                   21393135.9804
  -6181302.86746  -4792576.97943  23743520.9304                   23743520.7664
 11  9 23  1 28 30.0000000  0 10G02G29G30G18G12G15G25G05G26G21
 -22202509.85946 -17288728.61443  23369328.8834                   23369327.3984
 -24479422.59047 -19072559.76745  20473319.5314                   20473319.4964
  -7281620.152 6                  23403799.805
  -4868054.68747  -3782937.00143  23327107.2424                   23327107.0394
 -10366139.14546  -8063634.23743  24685611.8364                   24685614.1214
 -15235547.51648 -11861198.61744  21642172.7504                   21642172.2974
 -12983049.270 6                  23376274.516
 -20463759.14547 -15930662.87743  22438287.6484                   22438286.8874
 -19044162.37947 -14828844.52743  21383853.7114                   21383853.7194
  -6263149.34846  -4856353.47043  23727945.8134                   23727946.8754
 11  9 23  1 29  0.0000000  0 10G02G29G30G18G12G15G25G05G26G21
 -22163143.36346 -17258053.55543  23376820.4064                   23376818.2304
 -24529407.50448 -19111508.97645  20463807.8364                   20463807.1724
  -7242987.33646  -5806333.13553  23411151.4224                   23411153.4384
  -4959893.45747  -3854499.62743  23309630.6724                   23309630.5474
 -10293575.945 5                  24699419.922
 -15327181.61748 -11932601.77144  21624735.1724                   21624735.3364
 -12923908.91446 -10011709.37153  23387528.1954                   23387529.7424
 -20401765.78947 -15882356.36043  22450084.1644                   22450083.9304
 -19092289.09848 -14866345.81844  21374694.9844                   21374695.2194
  -6345023.83246  -4920151.60542  23712364.7814                   23712367.0044
 11  9 23  1 29 30.0000000  0 10G02G29G30G18G12G15G25G05G26G21
 -22123629.87546 -17227263.82353  23384339.6484                   23384337.9884
 -24578900.82048 -19150075.17645  20454389.2344                   20454388.6954
  -7204037.555 6                  23418563.016
  -5051480.23447  -3925865.86043  23292202.9064                   23292203.3364
 -10221120.328 5                  24713208.070
 -15418407.57848 -12003686.84844  21607375.5314                   21607375.5944
 -12864618.270 6                  23398811.531
 -20339638.59447 -15833945.56743  22461906.7664                   22461906.4064
 -19139759.93447 -14903335.97244  21365661.6564                   21365661.3444
  -6426925.023 6                  23696779.367
 11  9 23  1 30  0.0000000  0 10G02G29G30G18G12G15G25G05G26G21
 -22083969.78947 -17196359.81743  23391886.5944                   23391886.6524
 -24627901.64547 -19188257.59645  20445064.1334                   20445064.0164
  -7164774.79346  -5745388.03453  23426034.7114                   23426037.0044
  -5142815.80947  -3997036.22143  23274821.5704                   23274822.1024
 -10148775.680 5                  24726975.297
 -15509223.49248 -12074452.38544  21590093.4064                   21590094.1764
 -12805181.48847  -9919193.97253  23410121.9304                   23410125.9534
 -20277380.68048 -15785432.97943  22473754.0784                   22473752.8014
 -19186574.27747 -14939814.65543  21356753.2034                   21356753.2504
  -6508853.84046  -5047811.21853  23681189.5314                   23681189.6844
 11  9 23  1 30 30.0000000  0  9G02G29G30G18G15G25G05G26G21
 -22044161.48846 -17165340.30542  23399461.4614                   23399459.9384
 -24676407.09448 -19226054.01045  20435834.3054                   20435832.9494
  -7125200.641 6                  23433565.844
  -5233898.07047  -4068009.37542  23257489.3204                   23257490.0784
 -15599625.47748 -12144895.32444  21572890.9384                   21572891.2074
 -12745600.19147  -9872767.33242  23421460.3984                   23421464.7194
 -20214992.69147 -15736818.92943  22485626.0864                   22485626.1764
 -19232728.73848 -14975779.08944  21347970.8594                   21347969.3874
  -6590808.82447  -5111672.26543  23665594.6564                   23665593.7544
 11  9 23  1 31  0.0000000  0 10G02G29G30G18G12G15G25G05G26G21
 -22004204.94946 -17134205.19753  23407064.7344                   23407065.7034
 -24724415.68048 -19263463.28545  20426698.6094                   20426697.2194
  -7085318.414 6                  23441154.602
  -5324727.10947  -4138784.91443  23240204.8674                   23240205.8164
                                  24754444.570
 -15689611.15648 -12215013.98044  21555767.0784                   21555767.1914
 -12685877.801 6                  23432824.289
 -20152476.93047 -15688105.36644  22497522.9064                   22497522.3874
 -19278221.98847 -15011228.29144  21339312.9694                   21339312.2624
  -6672790.07447  -5175553.88843  23649993.7424                   23649993.7814
 11  9 23  1 31 30.0000000  0 10G02G29G30G18G12G15G25G05G26G21
 -21964101.45746 -17102956.20343  23414695.0084                   23414694.5664
 -24771927.68448 -19300485.55745  20417657.5234                   20417656.1804
  -7045133.164 6                  23448801.320
  -5415304.46947  -4209364.74743  23222969.2114                   23222969.3634
  -9932431.19546  -7725681.76252  24768144.2424                   24768144.5864
 -15779179.75447 -12284807.59844  21538722.1484                   21538721.5394
 -12626019.449 6                  23444215.445
 -20089837.33247 -15639295.27043  22509442.6094                   22509442.2814
 -19323054.45348 -15046162.56543  21330781.7584                   21330781.7074
  -6754799.656 6                  23634386.844
 11  9 23  1 32  0.0000000  0 10G02G29G30G18G12G15G25G05G26G21
 -21923849.19546 -17071590.41653  23422356.1564                   23422356.3204
 -24818939.68748 -19337118.25745  20408711.2194                   20408710.6414
  -7004645.961 6                  23456507.055
  -5505627.41846  -4279745.96343  23205780.7424                   23205782.1844
  -9860552.523 6                  24781823.195
 -15868326.28948 -12354272.37444  21521758.3054                   21521757.2624
 -12566026.12946  -9732839.49153  23455632.1954                   23455636.7074
 -20027074.02747 -15590388.81743  22521386.0004                   22521385.3674
 -19367222.38748 -15080579.17244  21322376.9064                   21322376.6484
  -6836835.46146  -5303380.98753  23618777.1804                   23618775.0004
 11  9 23  1 32 30.0000000  0 10G02G29G30G18G12G15G25G05G26G21
 -21883448.16847 -17040109.12142  23430045.1644                   23430043.5164
 -24865450.59448 -19373360.44745  20399860.5704                   20399859.7734
  -6963860.512 6                  23464267.125
  -5595696.33647  -4349929.45153  23188640.7504                   23188641.5704
  -9788797.13346  -7613758.98853  24795478.0234                   24795479.6454
 -15957049.07447 -12423406.92244  21504874.9304                   21504874.8554
 -12505901.80147  -9685989.40953  23467073.1484                   23467074.4844
 -19964189.54347 -15541387.87043  22533352.4454                   22533351.1094
 -19410725.05148 -15114477.24044  21314098.5864                   21314098.0984
  -6918897.97347  -5367325.71143  23603161.3284                   23603159.1024
 11  9 23  1 33  0.0000000  0  9G02G29G30G18G15G25G05G26G21
 -21842898.41847 -17008511.89543  23437761.3594                   23437758.8484
 -24911459.32048 -19409211.34945  20391105.2504                   20391104.5554
  -6922780.36746  -5556822.33252  23472084.8594                   23472085.3954
  -5685510.99247  -4419914.70453  23171549.7664                   23171548.4884
 -16045345.73447 -12492209.42944  21488072.7114                   21488072.2774
 -12445649.80147  -9639039.85753  23478539.1334                   23478542.9454
 -19901186.32847 -15492294.44543  22545341.2734                   22545340.5594
 -19453561.07848 -15147855.87643  21305947.2194                   21305946.8524
  -7000987.37147  -5431291.41842  23587539.8204                   23587537.2344
 11  9 23  1 33 30.0000000  0  9G02G29G30G18G15G25G05G26G21
 -21802197.94147 -16976797.28243  23445505.9844                   23445504.4494
 -24956961.86348 -19444667.85845  20382446.2894                   20382445.5434
  -6881406.55946  -5524583.14542  23479957.5394                   23479958.7464
  -5775069.05947  -4489700.24543  23154507.7424                   23154506.7424
 -16133211.68047 -12560676.24644  21471352.2894                   21471352.3444
 -12385271.41047  -9591991.82042  23490028.8364                   23490033.1134
 -19838064.67647 -15443108.79143  22557353.1724                   22557352.8244
 -19495727.17248 -15180712.55544  21297923.0864                   21297922.5554
  -7083101.75847  -5495276.51943  23571913.5944                   23571911.1294
 11  9 23  1 34  0.0000000  0  9G02G29G30G18G15G25G05G26G21
 -21761340.63347 -16944960.44343  23453281.6024                   23453279.0944
 -25001951.82848 -19479724.93245  20373884.6024                   20373883.7814
  -6839736.81646  -5492113.16452  23487886.9924                   23487889.7154
  -5864364.73447  -4559281.05653  23137514.6884                   23137514.9614
 -16220638.66447 -12628801.12844  21454715.5084                   21454714.5824
 -12324764.36347  -9544843.61953  23501543.5474                   23501547.6134
 -19774821.13347 -15393828.02343  22569387.8284                   22569388.9024
 -19537216.26248 -15213041.60344  21290027.9384                   21290027.3524
  -7165235.82847  -5559276.99143  23556284.1024                   23556283.0164
 11  9 23  1 34 30.0000000  0  9G02G29G30G18G15G25G05G26G21
 -21720323.05547 -16912998.61742  23461086.2734                   23461084.9384
 -25046424.07448 -19514378.60645  20365422.2584                   20365421.5864
  -6797770.98446  -5459412.58652  23495873.7814                   23495876.3094
  -5953394.27746  -4628654.50343  23120572.4844                   23120572.6604
 -16307620.85247 -12696579.36544  21438162.8364                   21438162.4964
 -12264128.37947  -9497594.73452  23513081.1804                   23513083.3404
 -19711454.03147 -15344451.03643  22581446.2274                   22581446.7114
 -19578023.71148 -15244839.60243  21282262.9224                   21282262.3284
  -7247385.96947  -5623289.77453  23540651.1724                   23540652.6804
 11  9 23  1 35  0.0000000  0  9G02G29G30G18G15G25G05G26G21
 -21679149.11347 -16880915.06143  23468921.5234                   23468920.3594
 -25090381.61348 -19548631.19045  20357057.0084                   20357056.2664
  -6755516.437 5                  23503912.352
  -6042161.51247  -4697823.51843  23103680.7034                   23103681.7704
 -16394160.45348 -12764012.66444  21421694.9144                   21421694.7624
 -12203370.97747  -9450251.46953  23524642.3364                   23524641.1724
 -19647970.05147 -15294982.95943  22593526.8284                   22593526.1134
 -19618152.50448 -15276108.78144  21274626.5084                   21274626.0354
  -7329556.59847  -5687318.82042  23525014.9304                   23525014.3954
 11  9 23  1 35 30.0000000  0  9G02G29G30G18G15G25G05G26G21
 -21637820.53146 -16848710.77043  23476785.5234                   23476783.8524
 -25133824.78148 -19582482.97345  20348790.9224                   20348788.7704
  -6712978.238 6                  23512008.203
  -6130668.38347  -4766789.79342  23086837.9454                   23086838.6174
 -16480256.26648 -12831100.27043  21405311.4144                   21405310.9184
 -12142497.242 6                  23536225.703
 -19584373.28547 -15245427.04144  22605628.8594                   22605629.0904
 -19657603.18748 -15306849.50244  21267119.1174                   21267118.1764
  -7411749.34847  -5751364.95943  23509373.5084                   23509372.9774
 11  9 23  1 36  0.0000000  0  9G02G29G30G18G15G25G05G26G21
 -21596336.75446 -16816386.24753  23484679.5784                   23484676.6524
 -25176752.04348 -19615932.77345  20340621.6334                   20340620.7774
  -6670159.391 6                  23520157.344
  -6218914.31646  -4835552.81653  23070045.7194                   23070045.7544
 -16565905.65248 -12897839.95044  21389013.2664                   21389012.3204
 -12081510.035 6                  23547831.703
 -19520665.41447 -15195784.57243  22617752.0554                   22617751.7894
 -19696374.28948 -15337060.71243  21259741.4454                   21259739.9024
  -7493964.00847  -5815428.32943  23493729.1564                   23493727.2974
 11  9 23  1 36 30.0000000  0  9G02G29G30G18G15G25G05G26G21
 -21554700.50847 -16783942.05343  23492603.2504                   23492599.4104
 -25219164.71148 -19648981.55545  20332550.5784                   20332549.3094
  -6627065.805 5                  23528356.328
  -6306901.71946  -4904114.29343  23053301.7504                   23053302.9264
 -16651109.16448 -12964232.20344  21372799.3984                   21372798.5434
 -12020415.344 6                  23559458.477
 -19456851.14547 -15146059.13543  22629895.6174                   22629895.6174
 -19734467.03548 -15366743.31243  21252492.3444                   21252491.3404
  -7576203.20347  -5879510.49343  23478079.2814                   23478078.4064
 11  9 23  1 37  0.0000000  0  9G02G29G30G18G15G25G05G26G21
 -21512911.80147 -16751379.42943  23500555.6024                   23500553.4264
 -25261061.42248 -19681628.30245  20324577.8754                   20324576.8984
  -6583700.828 6                  23536608.844
  -6394630.10547  -4972473.89743  23036607.2814                   23036607.5824
 -16735864.22348 -13030275.03844  21356670.9224                   21356669.6484
 -11959216.453 6                  23571104.438
 -19392932.61747 -15096252.44843  22642059.0944                   22642057.8444
 -19771880.33248 -15395896.48644  21245372.9064                   21245371.4264
  -7658467.10547  -5943612.26243  23462424.3674                   23462423.9384
 11  9 23  1 37 30.0000000  0  9G02G29G30G18G15G25G05G26G21
 -21470969.85546 -16718697.26043  23508536.2114                   23508534.6294
 -25302440.61348 -19713871.78045  20316703.5474                   20316702.8054
  -6540067.391 6                  23544912.453
  -6482099.14847  -5040631.61443  23019963.4924                   23019963.0904
 -16820168.28548 -13095966.39244  21340628.4774                   21340627.0744
 -11897916.34846  -9212234.56653  23582769.0944                   23582777.2974
 -19328911.79347 -15046366.14943  22654241.9694                   22654241.2974
 -19808613.10948 -15424519.36144  21238382.6254                   21238382.1334
  -7740755.53146  -6007733.10043  23446765.4224                   23446764.3554
 11  9 23  1 38  0.0000000  0  9G02G29G30G18G15G25G05G26G21
 -21428874.71146 -16685895.88443  23516546.4304                   23516544.9414
 -25343301.41048 -19745711.34645  20308928.2194                   20308927.4064
  -6496169.25846  -5224396.81753  23553265.5004                   23553269.4924
  -6569309.37547  -5108587.35943  23003367.0004                   23003367.4494
 -16904019.35948 -13161304.81944  21324671.6094                   21324671.0474
 -11836518.699 6                  23594452.453
 -19264791.07047 -14996401.95243  22666443.6254                   22666442.8244
 -19844664.54748 -15452611.33344  21231522.2424                   21231521.4414
  -7823068.15647  -6071872.30243  23431101.8914                   23431099.5004
 11  9 23  1 38 30.0000000  0  9G02G29G30G18G15G25G05G26G21
 -21386626.902 6                  23524585.195
 -25383642.97748 -19777146.29445  20301251.6644                   20301250.7194
  -6452010.027 6                  23561669.070
  -6656260.80947  -5176341.62143  22986821.3524                   22986819.6454
 -16987415.14148 -13226288.46744  21308801.7734                   21308801.2504
 -11775026.96147  -9116477.06252  23606154.5314                   23606158.0234
 -19200572.67247 -14946361.54943  22678663.6024                   22678662.9104
 -19880033.90248 -15480171.79744  21224791.8524                   21224790.7854
  -7905405.92247  -6136031.59153  23415433.9614                   23415432.5984
 11  9 23  1 39  0.0000000  0  9G02G29G30G18G15G25G05G26G21
 -21344228.023 6                  23532653.586
 -25423465.49648 -19808176.79445  20293673.4534                   20293672.4184
  -6407594.54346  -5155377.88453  23570121.5474                   23570124.3634
  -6742954.81647  -5243895.20943  22970324.1954                   22970323.4064
 -17070355.17248 -13290916.99044  21293018.9454                   21293018.5864
 -11713446.10547  -9068492.13543  23617872.6564                   23617877.6214
 -19136260.53947 -14896248.23343  22690902.0554                   22690901.7664
 -19914721.85948 -15507201.35744  21218190.5084                   21218189.9574
  -7987770.27047  -6200211.53343  23399760.3594                   23399759.2624
 11  9 23  1 39 30.0000000  0  9G02G29G30G18G15G25G05G26G21
 -21301675.95347 -16586779.76553  23540752.2274                   23540751.1604
 -25462766.07448 -19838800.56345  20286194.8204                   20286193.7274
  -6362924.285 6                  23578621.969
  -6829389.54747  -5311246.83643  22953875.5474                   22953874.2814
 -17152835.21948 -13355187.05744  21277323.8134                   21277323.3014
 -11651777.48447  -9020438.72353  23629608.4224                   23629602.8134
 -19071854.89847 -14846062.04443  22703158.3754                   22703156.3714
 -19948725.50848 -15533697.63144  21211719.9924                   21211719.1054
  -8070159.39847  -6264410.80143  23384081.6174                   23384081.5124
 11  9 23  1 40  0.0000000  0  9G02G29G30G18G15G25G05G26G21
 -21258971.93446 -16553504.13752  23548877.6254                   23548876.7424
 -25501544.98448 -19869017.89345  20278815.3134                   20278814.9264
  -6318004.17646  -5085566.80353  23587169.4844                   23587170.4534
  -6915566.21547  -5378397.14143  22937476.6334                   22937477.0004
 -17234854.59448 -13419098.19044  21261715.5864                   21261714.9184
 -11590025.88747  -8972321.46253  23641358.7974                   23641361.2854
 -19007359.28547 -14795805.67843  22715431.3054                   22715430.6094
 -19982045.50848 -15559661.20844  21205379.5704                   21205379.2424
  -8152574.68747  -6328630.48043  23368398.6644                   23368398.5824
 11  9 23  1 40 30.0000000  0  9G02G29G30G18G15G25G05G26G21
 -21216117.16847 -16520110.54443  23557033.1414                   23557032.0044
 -25539802.40248 -19898828.85045  20271534.9694                   20271533.4734
  -6272838.69146  -5050373.20752  23595764.6414                   23595768.1334
  -7001485.88747  -5445347.41043  22921126.6094                   22921126.1374
 -17316412.27747 -13482649.54444  21246196.0394                   21246195.4534
 -11528195.746 6                  23653125.117
 -18942777.10247 -14745481.87443  22727720.8594                   22727720.3754
 -20014682.07848 -15585092.26444  21199168.7114                   21199168.1454
  -8235017.53547  -6392871.57343  23352710.1804                   23352709.8094
 11  9 23  1 41  0.0000000  0  9G02G29G30G18G15G25G05G26G21
 -21173112.83246 -16486600.65753  23565215.6414                   23565215.6254
 -25577538.19148 -19928233.32945  20264354.3134                   20264352.8094
  -6227432.20747  -5014991.43042  23604405.2584                   23604409.5274
  -7087149.50447  -5512098.09343  22904825.0944                   22904824.2544
 -17397506.74247 -13545839.92144  21230763.6484                   21230763.4414
 -11466291.437 6                  23664904.797
 -18878111.27347 -14695092.91143  22740025.9924                   22740026.3444
 -20046635.60948 -15609991.05544  21193088.2194                   21193086.8404
  -8317488.77747  -6457134.80443  23337016.4384                   23337016.0234
 11  9 23  1 41 30.0000000  0  9G02G29G30G18G15G25G05G26G21
 -21129955.918 6                  23573428.258
 -25614748.74648 -19957228.53545  20257273.1334                   20257272.2624
  -6181785.40647  -4979422.48852  23613091.4454                   23613094.9344
  -7172554.48447  -5578647.31743  22888572.6724                   22888572.5474
 -17478133.48448 -13608665.90044  21215421.1484                   21215419.6524
 -11404313.430 6                  23676699.164
 -18813361.24647 -14644638.30543  22752346.5864                   22752346.7934
 -20077902.48848 -15634354.72844  21187137.9534                   21187137.4144
  -8399985.64547  -6521417.98943  23321317.6884                   23321317.1214
 11  9 23  1 42  0.0000000  0  9G02G29G30G18G15G25G05G26G21
 -21086643.51247 -16419222.14853  23581670.5234                   23581669.1334
 -25651429.94948 -19985811.25645  20250292.9924                   20250292.5944
  -6135898.80147  -4943666.66443  23621824.2424                   23621825.9264
  -7257697.79747  -5644992.68442  22872369.5864                   22872370.3874
 -17558287.39148 -13671123.42744  21200168.4064                   21200166.1684
 -11342262.160 6                  23688506.078
 -18748525.76647 -14594117.20943  22764684.9534                   22764684.9734
 -20108478.93048 -15658180.56143  21181319.5474                   21181319.2974
  -8482505.52347  -6585719.23443  23305614.8914                   23305613.4064
 11  9 23  1 42 30.0000000  0  9G02G29G30G18G15G25G05G26G21
 -21043178.88747 -16385353.77143  23589941.7344                   23589940.7624
 -25687583.99248 -20013983.18245  20243413.3444                   20243412.7624
  -6089779.020 6                  23630600.008
  -7342582.85247  -5711136.72953  22856216.7424                   22856216.6804
 -17637969.30548 -13733213.17743  21185005.4064                   21185004.0904
 -11280144.14547  -8730860.34452  23700328.3594                   23700332.8634
 -18683610.92647 -14543534.14843  22777037.6174                   22777037.2934
 -20138367.71948 -15681470.43944  21175632.2584                   21175632.0744
  -8565051.25847  -6650040.42343  23289907.0474                   23289904.7854
 11  9 23  1 43  0.0000000  0  9G02G29G30G18G15G25G05G26G21
 -20999560.12147 -16351364.84553  23598242.5784                   23598241.5234
 -25723208.21148 -20041742.27945  20236634.3364                   20236633.2384
  -6043427.66046  -4871611.31953  23639419.4774                   23639422.6644
  -7427207.594 6                  22840113.648
 -17717175.44947 -13794932.16444  21169932.5704                   21169931.5474
 -11217960.84046  -8682405.61943  23712161.6564                   23712167.3834
 -18618617.09047 -14492889.55443  22789405.6024                   22789406.1454
 -20167566.48448 -15704222.70144  21170075.4694                   21170075.0904
  -8647621.15647  -6714380.54643  23274194.7734                   23274193.8364
 11  9 23  1 43 30.0000000  0  9G02G29G30G18G15G25G05G26G21
 -20955786.46147 -16317255.56843  23606572.9384                   23606569.2934
 -25758300.84848 -20069087.12945  20229956.0944                   20229954.8014
  -5996847.500 6                  23648283.383
  -7511571.84046  -5842816.20053  22824058.9694                   22824058.5744
 -17795903.21548 -13856278.41044  21154951.3834                   21154949.9734
 -11155715.18446  -8633902.65053  23724005.7114                   23724012.7974
 -18553545.23847 -14442184.11343  22801788.4534                   22801788.2034
 -20196073.84448 -15726436.17644  21164650.7344                   21164650.8714
  -8730214.74247  -6778739.06643  23258477.6564                   23258476.4024
 11  9 23  1 44  0.0000000  0  9G02G29G30G18G15G25G05G26G21
 -20911859.04347 -16283026.22742  23614932.3984                   23614927.5594
 -25792861.98448 -20096017.84645  20223379.7344                   20223378.6054
  -5950042.859 6                  23657188.477
  -7595676.14547  -5908351.80043  22808055.2274                   22808053.1294
 -17874151.29347 -13917250.87544  21140061.4614                   21140059.8524
 -11093411.07046  -8585353.94343  23735860.9924                   23735867.0314
 -18488398.35947 -14391420.37643  22814185.6254                   22814185.8204
 -20223890.02348 -15748110.99843  21159357.2274                   21159356.7344
  -8812832.85947  -6843116.78843  23242755.6094                   23242754.9304
 11  9 23  1 44 30.0000000  0  9G02G29G30G18G15G25G05G26G21
 -20867777.89847 -16248677.41743  23623320.5084                   23623316.2114
 -25826890.51248 -20122533.56345  20216903.9924                   20216903.3914
  -5903017.30146  -4762200.04753  23666137.5164                   23666136.9104
  -7679520.56247  -5973685.00043  22792099.6564                   22792099.9184
 -17951917.83647 -13977848.07544  21125262.3984                   21125261.7734
 -11031051.937 6                  23747727.844
 -18423179.04347 -14340600.12343  22826596.6414                   22826596.2384
 -20251014.69548 -15769247.02444  21154195.6414                   21154194.4494
  -8895475.25847  -6907513.39043  23227029.3054                   23227027.6024
 11  9 23  1 45  0.0000000  0  9G02G29G30G18G15G25G05G26G21
 -20823542.10546 -16214207.98653  23631737.5004                   23631733.4774
 -25860384.82448 -20148632.97245  20210529.8364                   20210529.5354
  -5855773.203 6                  23675128.656
  -7763104.50447  -6038815.24443  22776194.0554                   22776193.7584
 -18029199.85548 -14038067.76044  21110556.5234                   21110554.7854
 -10968640.24646  -8488129.82953  23759604.7344                   23759609.1724
 -18357888.23847 -14289724.12843  22839020.4694                   22839019.8164
 -20277446.48048 -15789843.12344  21149165.7664                   21149164.9924
  -8978141.22747  -6971928.39243  23211298.0474                   23211295.7734
 11  9 23  1 45 30.0000000  0  9G02G29G30G18G15G25G05G26G21
 -20779151.445 6                  23640184.188
 -25893344.19948 -20174315.57445  20204258.0084                   20204257.4884
  -5808314.074 6                  23684160.125
  -7846428.06647  -6103742.45743  22760337.9384                   22760336.8874
 -18105995.25848 -14097908.28444  21095942.5314                   21095941.6374
 -10906179.21546  -8439459.08853  23771488.6804                   23771497.2154
 -18292527.51647 -14238793.71943  22851458.3984                   22851457.2194
 -20303184.96548 -15809899.06244  21144268.0554                   21144267.6994
  -9060830.81647  -7036361.68243  23195562.1644                   23195561.3984
 11  9 23  1 46  0.0000000  0  9G02G29G30G18G15G25G05G26G21
 -20734606.848 6                  23648660.156
 -25925768.66048 -20199581.36645  20198088.0634                   20198087.0664
  -5760644.203 7                  23693231.789
  -7929491.95347  -6168467.52443  22744531.6174                   22744530.9344
 -18182302.84448 -14157368.65544  21081421.7274                   21081420.6764
 -10843672.94946  -8390752.78353  23783385.4614                   23783392.0274
 -18227100.18747 -14187811.37843  22863909.2584                   22863908.3524
 -20328230.19548 -15829414.79143  21139501.8054                   21139500.4884
  -9143544.97747  -7100814.17543  23179822.5704                   23179821.5514
 11  9 23  1 46 30.0000000  0  9G02G29G30G18G15G25G05G26G21
 -20689908.367 6                  23657166.906
 -25957656.92248 -20224429.30745  20192020.0394                   20192018.8444
  -5712766.83647  -4613949.21353  23702342.1724                   23702343.4844
  -8012296.15647  -6232990.11043  22728774.7194                   22728773.4694
 -18258120.51248 -14216447.31744  21066993.8524                   21066991.8874
 -10781124.547 6                  23795287.945
 -18161607.92647 -14136778.46143  22876372.2194                   22876370.8364
 -20352581.98447 -15848390.18744  21134867.9224                   21134867.3594
  -9226283.16047  -7165285.38043  23164077.7664                   23164076.2154
 11  9 23  1 47  0.0000000  0  9G02G29G30G18G15G25G05G26G21
 -20645055.98446 -16075127.57452  23665702.5314                   23665701.1374
 -25989008.21548 -20248858.83745  20186053.8284                   20186053.2974
  -5664685.48047  -4576483.54453  23711492.0234                   23711495.6024
  -8094840.92247  -6297310.46343  22713066.0784                   22713065.2194
 -18333446.50848 -14275142.78644  21052659.5784                   21052658.3484
 -10718537.484 6                  23807197.578
 -18096053.09047 -14085696.72543  22888846.9144                   22888845.6764
 -20376239.96147 -15866824.91144  21130365.9224                   21130364.3794
  -9309045.45747  -7229775.26243  23148328.7734                   23148326.0004
 11  9 23  1 47 30.0000000  0  9G02G29G30G18G15G25G05G26G21
 -20600050.13746 -16040058.14743  23674266.3594                   23674266.3914
 -26019822.13348 -20272869.64445  20180190.3284                   20180189.3364
  -5616403.81247  -4538860.96753  23720679.8204                   23720681.7934
  -8177126.56247  -6361429.23243  22697407.7034                   22697406.9344
 -18408278.96948 -14333453.72144  21038419.3134                   21038417.4264
 -10655915.22747  -8244448.44454  23819114.8054                   23819118.6914
 -18030437.97347 -14034568.09243  22901332.6024                   22901333.1604
 -20399204.06648 -15884718.96544  21125995.6804                   21125994.5634
  -9391832.09847  -7294284.40343  23132574.7274                   23132571.9924
 11  9 23  1 48  0.0000000  0  9G02G29G30G18G15G25G05G26G21
 -20554889.71946 -16004868.04243  23682859.8594                   23682859.8554
 -26050097.05548 -20296460.44845  20174428.9454                   20174427.7504
  -5567924.34447  -4501084.77353  23729905.6024                   23729906.5824
  -8259152.35547  -6425345.14542  22681798.8984                   22681798.8134
 -18482615.01248 -14391377.82844  21024273.8524                   21024272.3554
 -10593259.949 6                  23831037.344
 -17964763.50047 -13983393.17643  22913830.2274                   22913830.4804
 -20421473.14147 -15902071.42944  21121758.5634                   21121756.9694
  -9474641.96547  -7358811.37243  23116816.2584                   23116813.2344
 11  9 23  1 48 30.0000000  0  9G02G29G30G18G15G25G05G26G21
 -20509574.45746 -15969557.46343  23691483.0944                   23691484.4384
 -26079832.06648 -20319630.53945  20168770.5864                   20168770.0434
  -5519250.30947  -4463157.01353  23739167.9614                   23739172.3754
  -8340918.00046  -6489058.51243  22666238.2894                   22666238.7734
 -18556452.72348 -14448913.62944  21010222.8754                   21010221.0314
 -10530574.848 6                  23842965.633
 -17899031.46547 -13932173.42143  22926338.9224                   22926337.7934
 -20443046.42247 -15918881.70943  21117653.0634                   21117651.6454
  -9557474.90647  -7423356.38443  23101054.1884                   23101051.6294
 11  9 23  1 49  0.0000000  0  9G02G29G30G18G15G25G05G26G21
 -20464103.23446 -15934125.48453  23700134.9614                   23700133.8244
 -26109024.82048 -20342378.11745  20163215.2274                   20163214.7934
  -5470383.98447  -4425079.18653  23748467.1094                   23748470.7274
  -8422422.87546  -6552568.51353  22650728.0474                   22650728.1954
 -18629789.08248 -14506058.76344  20996267.5864                   20996266.2304
 -10467862.047 6                  23854899.594
 -17833242.65647 -13880909.27143  22938857.7424                   22938857.8054
 -20463922.66447 -15935148.88143  21113680.6024                   21113679.0004
  -9640329.41047  -7487918.31943  23085286.9614                   23085285.7544
 11  9 23  1 49 30.0000000  0  9G02G29G30G18G15G25G05G26G21
 -20418477.55146 -15898572.85943  23708818.5704                   23708818.9844
 -26137676.10248 -20364703.74645  20157763.2114                   20157761.7894
  -5421330.145 6                  23757801.383
  -8503667.59046  -6615876.23543  22635268.4064                   22635267.4454
 -18702623.09848 -14562812.45244  20982407.2584                   20982406.8204
 -10405125.969 6                  23866837.672
 -17767400.50447 -13829603.79343  22951387.0234                   22951387.0664
 -20484103.01247 -15950873.75343  21109840.3054                   21109839.0274
  -9723206.80547  -7552497.94743  23069515.1724                   23069513.2814
 11  9 23  1 50  0.0000000  0  9G02G29G30G18G15G25G05G26G21
 -20372696.73847 -15862899.46143  23717530.7894                   23717530.0004
 -26165784.54348 -20386606.39145  20152414.1414                   20152413.2274
  -5372091.574 6                  23767171.484
  -8584652.56647  -6678981.22743  22619857.6094                   22619854.5274
 -18774952.56248 -14619172.99944  20968643.4304                   20968642.1254
 -10342369.27046  -8000127.50553  23878780.1334                   23878788.4964
 -17701506.19147 -13778257.52743  22963926.5004                   22963925.1884
 -20503586.71147 -15966055.81444  21106132.6804                   21106132.0514
  -9806106.53147  -7617094.91553  23053740.4614                   23053737.2304
 11  9 23  1 50 30.0000000  0  9G02G29G30G18G15G25G05G26G21
 -20326760.85547 -15827105.09543  23726271.7584                   23726271.1054
 -26193349.96948 -20408085.91845  20147168.7664                   20147167.7544
  -5322671.617 5                  23776575.609
  -8665377.80947  -6741883.85653  22604496.2194                   22604495.0704
 -18846775.51648 -14675138.95344  20954976.3674                   20954975.4064
 -10279595.207 6                  23890725.633
 -17635561.64547 -13726872.30743  22976475.1334                   22976475.4414
 -20522373.43047 -15980694.77343  21102557.4694                   21102556.7274
  -9889028.67247  -7681709.50243  23037960.1564                   23037958.0314
 11  9 23  1 51  0.0000000  0  9G02G29G30G18G15G25G05G26G21
 -20280668.71147 -15791189.22752  23735042.0474                   23735040.6844
 -26220370.01248 -20429140.45945  20142027.0784                   20142025.8794
  -5273072.48015                  23786014.109
  -8745841.87547  -6804583.13043  22589184.2734                   22589184.6214
 -18918088.75848 -14730707.55744  20941405.6954                   20941404.8134
 -10216805.676 6                  23902673.227
 -17569568.01247 -13675448.57743  22989033.1804                   22989032.5354
 -20540462.12948 -15994789.87544  21099115.1334                   21099114.4384
  -9971971.28147  -7746339.98343  23022177.6724                   23022174.8634
 11  9 23  1 51 30.0000000  0  9G02G29G30G18G15G25G05G26G21
 -20234418.55147 -15755150.06043  23743843.4384                   23743842.1684
 -26246842.10948 -20449768.03245  20136989.3364                   20136988.7934
  -5223295.96115                  23795482.945
  -8826043.18747  -6867077.53743  22573922.3914                   22573921.7894
 -18988889.05548 -14785876.55744  20927932.8204                   20927931.3834
 -10154002.059 6                  23914626.078
 -17503524.86747 -13623986.32643  23001601.2114                   23001601.1334
 -20557850.72348 -16008339.31643  21095806.4144                   21095805.5204
 -10054932.55547  -7810985.22943  23006389.9614                   23006390.3524
 11  9 23  1 52  0.0000000  0  9G02G29G30G18G15G25G05G26G21
 -20188012.40647 -15718989.53542  23752674.2194                   23752671.6334
 -26272767.94948 -20469969.94645  20132055.7274                   20132055.2034
  -5173347.02715                  23804987.906
  -8905983.91847  -6929368.75353  22558709.9144                   22558707.8484
 -19059176.48448 -14840645.90544  20914557.4924                   20914556.1644
 -10091189.562 6                  23926577.109
 -17437436.23047 -13572488.69543  23014176.7894                   23014176.2624
 -20574541.10948 -16021344.72244  21092629.8834                   21092628.7274
 -10137914.43747  -7875646.15443  22990599.0704                   22990598.3444
 11  9 23  1 52 30.0000000  0  8G02G29G18G15G25G05G26G21
 -20141452.09447 -15682708.73852  23761534.4224                   23761529.6024
 -26298148.77748 -20489747.16845  20127226.1254                   20127225.0434
  -8985666.46547  -6991458.78053  22543546.5164                   22543544.6844
 -19128951.20748 -14895015.75144  20901279.6564                   20901279.1914
 -10028373.383 6                  23938531.656
 -17371306.14847 -13520958.68543  23026761.2584                   23026760.5944
 -20590535.52348 -16033807.91143  21089586.5314                   21089585.2624
 -10220918.65247  -7940324.58943  22974803.8984                   22974802.0514
 11  9 23  1 53  0.0000000  0  8G02G29G18G15G25G05G26G21
 -20094735.05547 -15646305.90853  23770424.8834                   23770420.8874
 -26322981.06648 -20509096.98545  20122500.5554                   20122499.7584
  -9065088.08247  -7053345.68742  22528433.4224                   22528432.0124
 -19198208.54748 -14948982.45244  20888100.3834                   20888098.6454
  -9965553.88747  -7706505.02752  23950486.4614                   23950494.3754
 -17305133.44947 -13469395.54543  23039353.8054                   23039351.3634
 -20605831.01247 -16045726.41943  21086675.7894                   21086674.2304
 -10303942.33247  -8005018.23043  22959005.3674                   22959002.6604
 11  9 23  1 53 30.0000000  0  9G02G29G30G18G15G25G05G26G21
 -20047861.05946 -15609780.68452  23779343.5634                   23779341.2934
 -26347264.30948 -20528018.93845  20117879.4224                   20117878.1414
                                  23833694.891
  -9144248.69947  -7115029.08243  22513369.7734                   22513368.0474
 -19266946.50448 -15002544.42244  20875019.9774                   20875018.9734
  -9902733.863 6                  23962440.344
 -17238919.71147 -13417800.47943  23051953.2814                   23051951.7154
 -20620427.37948 -16057100.15144  21083898.1484                   21083897.1454
 -10386985.02046  -8069726.81543  22943202.4144                   22943199.1604
 11  9 23  1 54  0.0000000  0  9G02G29G30G18G15G25G05G26G21
 -20000830.426 6                  23788293.578
 -26370997.99648 -20546512.67645  20113363.1094                   20113362.1054
   4828972.910 5                  23843325.938
  -9223148.77047  -7176509.53343  22498355.0784                   22498353.9384
 -19335163.96148 -15055700.80344  20862038.5554                   20862037.5784
  -9839916.89146  -7608607.87152  23974393.6254                   23974401.0474
 -17172667.59847 -13366175.45743  23064561.0394                   23064558.0824
 -20634325.13748 -16067929.51543  21081253.4774                   21081252.9144
 -10470046.527 6                  22927395.758
 11  9 23  1 54 30.0000000  0  9G02G29G30G18G15G25G05G26G21
 -19953643.03147 -15536364.95254  23797273.4144                   23797244.7544
 -26394181.54748 -20564577.76045  20108951.0474                   20108950.3284
   4879732.941 6                  23852985.211
  -9301788.38747  -7237787.02243  22483390.4774                   22483389.2504
 -19402858.75448 -15108449.91144  20849156.7114                   20849156.0664
  -9777105.875 6                  23986345.625
 -17106378.28547 -13314521.50743  23077175.2894                   23077174.1054
 -20647524.00848 -16078214.30643  21078741.5314                   21078740.5124
 -10553127.17246  -8199187.86353  22911585.6884                   22911582.3984
 11  9 23  1 55  0.0000000  0  9G02G29G30G18G15G25G05G26G21
 -19906298.254 6                  23806282.883
 -26416813.47748 -20582213.02445  20104644.5704                   20104643.4454
   4930646.555 6                  23862673.375
  -9380167.00047  -7298861.13943  22468474.9844                   22468475.1994
 -19470028.37948 -15160789.83944  20836374.4774                   20836373.3914
  -9714303.203 5                  23998295.875
 -17040053.02346 -13262839.46143  23089796.6094                   23089795.4804
 -20660023.46948 -16087954.01644  21076363.1334                   21076361.5434
 -10636225.22746  -8263939.50442  22895773.0314                   22895769.9924
 11  9 23  1 55 30.0000000  0  9G02G29G30G18G15G25G05G26G21
 -19858796.67647 -15462451.34953  23815322.4614                   23815319.5904
 -26438894.10948 -20599418.66545  20100442.6484                   20100442.2274
   4981709.473 6                  23872388.805
  -9458285.57047  -7359732.64143  22453609.6954                   22453610.4694
 -19536671.67248 -15212719.63644  20823692.7114                   20823691.4654
  -9651512.750 6                  24010244.148
 -16973694.35947 -13211131.39043  23102424.2034                   23102423.4574
 -20671824.61748 -16097149.70544  21074117.8364                   21074116.1374
 -10719340.91047  -8328704.93343  22879956.5474                   22879954.2384
 11  9 23  1 56  0.0000000  0  9G02G29G30G18G15G25G05G26G21
 -19811138.40247 -15425315.17553  23824391.7584                   23824387.6844
 -26460422.73048 -20616194.18045  20096346.1804                   20096344.5784
   5032918.676 6                  23882133.094
  -9536143.97747  -7420401.38743  22438793.2034                   22438792.8364
 -19602787.32848 -15264238.23044  20811110.8284                   20811111.0944
  -9588737.422 6                  24022189.734
 -16907303.73447 -13159398.51642  23115057.5864                   23115056.3914
 -20682927.23448 -16105801.04143  21072004.7274                   21072002.9184
 -10802474.16847  -8393483.86743  22864137.1804                   22864133.4184
 11  9 23  1 56 30.0000000  0  9G02G29G30G18G15G25G05G26G21
 -19763322.69947 -15388055.85143  23833489.9224                   23833487.7074
 -26481398.40648 -20632538.83245  20092354.7194                   20092353.2304
   5084271.184 6                  23891905.953
  -9613741.92647  -7480867.16643  22424027.2974                   22424026.1804
 -19668373.44148 -15315344.24644  20798630.1564                   20798629.8714
  -9525979.723 6                  24034132.781
 -16840882.49646 -13107641.64943  23127697.2114                   23127696.0784
 -20693330.94948 -16113907.83043  21070025.2504                   21070022.2704
 -10885624.11747  -8458276.02342  22848313.5864                   22848310.3714
 11  9 23  1 57  0.0000000  0  9G02G29G30G18G15G25G05G26G21
 -19715350.51647 -15350674.96142  23842619.5784                   23842617.5044
 -26501821.57448 -20648452.94745  20088468.0474                   20088466.2504
   5135762.703 5                  23901704.586
  -9691080.71547  -7541131.05143  22409309.8984                   22409308.9494
 -19733428.49248 -15366036.42744  20786250.9304                   20786249.1054
  -9463243.844 6                  24046071.766
 -16774433.40647 -13055863.24643  23140342.1724                   23140341.3014
 -20703037.24248 -16121471.10144  21068177.8834                   21068176.6644
 -10968791.35547  -8523081.53553  22832487.6644                   22832485.4384
 11  9 23  1 57 30.0000000  0  9G02G29G30G18G15G25G05G26G21
 -19667221.625 6                  23851777.844
 -26521691.05948 -20663935.63845  20084687.3054                   20084685.4574
   5187390.332 6                  23911528.641
  -9768159.88748  -7601192.62143  22394642.6484                   22394641.5394
 -19797950.49648 -15416313.26044  20773972.7194                   20773971.4264
  -9400532.152 6                  24058004.742
 -16707957.67246 -13004063.96643  23152991.8444                   23152992.2234
 -20712045.74648 -16128490.67744  21066463.3204                   21066461.2974
 -11051975.37147  -8587900.25943  22816658.3594                   22816655.5634
 11  9 23  1 58  0.0000000  0  9G02G29G30G18G15G25G05G26G21
 -19618932.69946 -15275544.09452  23860967.1954                   23860965.0234
 -26541003.66448 -20678984.38645  20081011.8594                   20081010.5664
   5239153.914 6                  23921379.227
  -9844976.87947  -7661049.85243  22380024.8054                   22380023.3954
 -19861934.98848 -15466171.25444  20761796.5784                   20761795.4304
  -9337844.687 6                  24069934.063
 -16641453.94147 -12952242.80643  23165647.5164                   23165648.6374
 -20720353.68048 -16134964.37643  21064882.4224                   21064881.2234
 -11135172.54347  -8652729.08343  22800826.1334                   22800824.8134
 11  9 23  1 58 30.0000000  0  9G02G29G30G18G15G25G05G26G21
 -17995066.68446 -14010193.99242  24169978.4304                   24169976.3014
 -24984339.53548 -19465999.31845  20377235.4614                   20377234.0514
   6866467.34046  -2537401.78952  24231046.3204                   24231045.1174
  -8346110.12547  -6493101.77843  22665249.1644                   22665248.1524
 -18349959.10948 -14288008.15044  21049516.4844                   21049514.8984
  -7699767.59847  -5940958.98253  24381651.4844                   24381657.0274
 -14999507.08647 -11672803.75243  23478099.7734                   23478099.6254
 -19152542.16048 -14913292.98343  21363226.7814                   21363225.4184
  -9642961.10947  -7489966.91643  23084784.4844                   23084782.0664
 11  9 23  1 59  0.0000000  0  9G02G29G30G18G15G25G05G26G21
 -17946461.445 6                  24179227.805
 -25002540.90648 -19480182.16245  20373771.6484                   20373770.8244
   6918489.40646  -2496865.05142  24240946.2894                   24240946.9224
  -8422406.28147  -6552553.18143  22650730.7274                   22650729.3134
 -18412866.99248 -14337027.20144  21037545.2274                   21037544.2704
  -7637141.08247  -5892159.01642  24393569.1724                   24393573.7814
 -14932955.89847 -11620945.65343  23490763.4614                   23490764.7424
 -19159453.59848 -14918678.55843  21361912.0164                   21361910.8834
  -9726186.98047  -7554818.11643  23068946.9924                   23068944.0004
 11  9 23  1 59 30.0000000  0  9G02G29G30G18G15G25G05G26G21
 -17897696.85946 -13934321.28553  24188507.5084                   24188505.4534
 -25020184.50448 -19493930.39545  20370414.3054                   20370413.2114
   6970637.08246  -2456230.33343  24250870.0944                   24250870.5594
  -8498441.51247  -6611801.32343  22636261.3444                   22636259.3634
 -18475233.09848 -14385624.13844  21025677.3834                   21025675.7234
  -7574548.309 6                  24405479.023
 -14866382.37547 -11569070.20843  23503432.6024                   23503432.6604
 -19165665.92248 -14923519.23644  21360729.5634                   21360729.5164
  -9809425.28947  -7619679.01743  23053107.1804                   23053105.0554
 11  9 23  2  0  0.0000000  0  9G02G29G30G18G15G25G05G26G21
 -17848775.11347 -13896200.47943  24197816.7974                   24197814.2504
 -25037272.08248 -19507245.34945  20367162.7664                   20367161.4924
   7022904.75446  -2415502.37952  24260815.4924                   24260820.1094
  -8574217.79747  -6670847.58843  22621841.7974                   22621840.4924
 -18537058.06248 -14433799.35344  21013912.4844                   21013911.3134
  -7511994.410 6                  24417381.703
 -14799790.02347 -11517180.03943  23516104.0864                   23516103.7624
 -19171181.84048 -14927817.28443  21359679.9064                   21359678.8594
  -9892677.64147  -7684550.93543  23037265.0864                   23037263.7034
 11  9 23  2  0 30.0000000  0  9G02G29G30G18G15G25G05G26G21
 -17799693.94947 -13857955.48243  24207157.2504                   24207156.1174
 -25053801.34848 -19520125.25145  20364017.1804                   20364016.0784
   7075291.566 6                  24270783.617
  -8649733.10947  -6729690.55243  22607471.8204                   22607469.1684
 -18598337.84848 -14481549.76444  21002251.1644                   21002249.6484
  -7449480.117 6                  24429278.734
 -14733178.21147 -11465274.66343  23528780.5314                   23528779.3164
 -19175999.60548 -14931571.41044  21358763.4844                   21358762.5044
  -9975941.86347  -7749432.08843  23021420.4064                   23021418.4844
 11  9 23  2  1  0.0000000  0  9G02G29G30G18G15G25G05G26G21
 -17750453.24247 -13819585.97743  24216526.3364                   24216524.8204
 -25069771.52048 -19532569.53245  20360978.1174                   20360976.8054
   7127794.215 6                  24280774.484
  -8724987.54347  -6788330.36043  22593150.8524                   22593148.0314
 -18659070.71148 -14528874.06244  20990693.9224                   20990692.8404
  -7387008.172 6                  24441166.852
 -14666548.43747 -11413355.30043  23541459.6254                   23541458.9884
 -19180119.45748 -14934781.66144  21357979.2194                   21357978.6954
 -10059216.84847  -7814321.59243  23005573.3984                   23005571.5904
 11  9 23  2  1 30.0000000  0  9G02G29G30G18G15G25G05G26G21
 -17701052.00446 -13781091.40252  24225926.0634                   24225925.7194
 -25085181.34448 -19544577.13345  20358045.6024                   20358044.1134
   7180410.680 6                  24290786.883
  -8799980.41447  -6846766.22143  22578879.9774                   22578877.9384
 -18719254.45748 -14575770.38344  20979241.3054                   20979239.6914
  -7324580.488 6                  24453045.758
 -14599901.62547 -11361422.65143  23554142.3754                   23554140.6564
 -19183540.81648 -14937447.57144  21357328.2344                   21357327.6414
 -10142500.98847  -7879218.34143  22989724.8204                   22989722.6914
 11  9 23  2  2  0.0000000  0  9G02G29G30G18G15G25G05G26G21
 -17651493.02047 -13742473.96542  24235356.5474                   24235356.7194
 -25100033.40248 -19556150.14545  20355219.6414                   20355218.1054
   7233134.766 6                  24300819.875
  -8874714.59447  -6905000.53043  22564658.2974                   22564656.7624
 -18778890.19548 -14622239.73845  20967893.2894                   20967891.5704
  -7262202.789 5                  24464914.680
 -14533241.85547 -11309479.98343  23566826.9304                   23566826.1564
 -19186267.07448 -14939571.87343  21356809.6724                   21356808.3954
 -10225796.68447  -7944123.90443  22973874.6024                   22973872.4264
 11  9 23  2  2 30.0000000  0  9G02G29G30G18G15G25G05G26G21
 -17601774.44947 -13703732.20342  24244818.5164                   24244818.6054
 -25114325.52748 -19567286.83745  20352499.7664                   20352497.8984
   7285964.879 6                  24310874.445
  -8949188.85247  -6963032.32943  22550486.4224                   22550484.6174
 -18837974.83248 -14668279.69644  20956649.7194                   20956648.2544
  -7199876.37515                  24476775.492
 -14466569.08647 -11257527.25042  23579514.3054                   23579513.5084
 -19188297.12948 -14941153.74144  21356423.0474                   21356421.5204
 -10309102.04347  -8009037.13243  22958022.0784                   22958019.5474
 11  9 23  2  3  0.0000000  0  9G02G29G30G18G15G25G05G26G21
 -17551895.57847 -13664865.61143  24254310.0944                   24254308.0474
 -25128056.47348 -19577986.24945  20349886.6884                   20349885.4964
   7338898.898 6                  24320946.711
  -9023402.17247  -7020860.83343  22536363.9694                   22536362.1994
 -18896505.82848 -14713888.18845  20945511.7584                   20945510.6914
  -7137603.00016                  24488627.281
 -14399883.82446 -11205564.62653  23592204.0704                   23592201.8714
 -19189630.68748 -14942192.82643  21356169.0554                   21356167.4064
 -10392415.53147  -8073956.63043  22942167.8444                   22942166.0944
 11  9 23  2  3 30.0000000  0  9G02G29G30G18G15G25G05G26G21
 -17501856.69547 -13625874.16853  24263831.6564                   24263831.6724
 -25141226.82848 -19588248.87745  20347380.5084                   20347378.7424
   7391932.707 7                  24331038.461
  -9097355.87547  -7078486.96643  22522291.1024                   22522288.0554
 -18954482.41848 -14759064.66444  20934479.0314                   20934478.0784
  -7075386.402 6                  24500466.625
 -14333188.33246 -11153594.15143  23604895.1094                   23604894.9104
 -19190268.82448 -14942690.05943  21356047.2734                   21356046.5744
 -10475737.38747  -8138882.75243  22926312.2194                   22926311.2704
 11  9 23  2  4  0.0000000  0  9G02G29G30G18G15G25G05G26G21
 -17451656.99646 -13586757.55152  24273383.7664                   24273382.3484
 -25153835.07048 -19598073.46145  20344981.1804                   20344980.2774
   7445064.65247  -2086551.23453  24341150.0394                   24341171.4454
  -9171048.53147  -7135909.63343  22508267.7974                   22508264.4654
 -19011901.95348 -14803807.09844  20923552.4384                   20923551.3324
  -7013228.066 6                  24512294.797
 -14266482.67246 -11101615.74043  23617588.8524                   23617588.6374
 -19190210.96948 -14942644.89744  21356058.7114                   21356057.4494
 -10559065.65647  -8203813.71643  22910454.9384                   22910453.8014
 11  9 23  2  4 30.0000000  0  9G02G29G30G18G15G25G05G26G21
 -17401296.555 6                  24282966.828
 -25165881.15648 -19607460.00245  20342688.7584                   20342688.1054
   7498291.305 7                  24351278.320
  -9244480.05147  -7193128.94743  22494293.6644                   22494292.5124
 -19068763.26648 -14848114.55544  20912732.2504                   20912730.1604
  -6951131.066 5                  24524110.180
 -14199768.59046 -11049630.72243  23630284.2344                   23630282.7894
 -19189457.90248 -14942058.05843  21356201.7894                   21356200.1374
 -10642399.86747  -8268749.40943  22894597.3134                   22894595.1454
 11  9 23  2  5  0.0000000  0  9G02G29G30G18G15G25G05G26G21
 -17350776.453 6                  24292580.406
 -25177365.64848 -19616408.92345  20340503.5944                   20340502.2934
   7551608.273 6                  24361424.531
  -9317652.78547  -7250146.59043  22480369.3284                   22480368.7384
 -19125065.78948 -14891986.64544  20902018.0234                   20902016.4414
  -6889099.293 6                  24535913.992
 -14133048.77047 -10997641.25643  23642981.7584                   23642978.6374
 -19188011.39548 -14940930.88743  21356476.6094                   21356476.3914
 -10725740.43447  -8333690.06443  22878737.5864                   22878736.8244
 11  9 23  2  5 30.0000000  0  9G02G29G30G18G15G25G05G26G21
 -17300095.50845 -13468657.41852  24302226.0474                   24302228.1374
 -25188287.53148 -19624919.45445  20338425.0944                   20338424.0554
   7605013.457 6                  24371587.742
  -9390565.57047  -7306961.67343  22466493.6804                   22466492.9024
 -19180807.36748 -14935421.53144  20891410.5864                   20891409.3364
  -6827134.516 6                  24547706.570
 -14066323.65647 -10945647.62843  23655678.4064                   23655678.3524
 -19185871.31648 -14939263.27743  21356884.6484                   21356883.2384
 -10809085.97347  -8398634.48543  22862877.3444                   22862876.1844
 11  9 23  2  6  0.0000000  0  9G02G29G30G18G15G25G05G26G21
 -17249254.176 5                  24311899.563
 -25198647.19948 -19632991.90645  20336453.8444                   20336452.9924
   7658503.316 6                  24381765.766
  -9463218.96947  -7363574.55243  22452668.5164                   22452667.0594
 -19235986.87948 -14978418.52644  20880910.2034                   20880908.8484
  -6765240.008 6                  24559485.992
 -13999595.01647 -10893651.31543  23668376.1954                   23668377.4454
 -19183038.66048 -14937055.98343  21357423.7974                   21357421.9534
 -10892436.23847  -8463582.69343  22847016.3134                   22847015.7464
 11  9 23  2  6 30.0000000  0  9G02G29G30G18G15G25G05G26G21
 -17198250.99246 -13389298.06953  24321605.7504                   24321602.2274
 -25208443.00848 -19640624.97845  20334589.5634                   20334588.3954
   7712075.906 6                  24391959.727
  -9535611.86347  -7419984.56443  22438893.4384                   22438892.0784
 -19290601.91448 -15020975.63444  20870517.3524                   20870516.6214
  -6703417.180 5                  24571248.664
 -13932862.87947 -10841652.21843  23681075.1094                   23681074.3204
 -19179512.82048 -14934308.49644  21358094.5234                   21358093.9454
 -10975789.48447  -8528533.16743  22831154.3284                   22831151.9884
 11  9 23  2  7  0.0000000  0  9G02G29G30G18G15G25G05G26G21
 -17147086.96146 -13349429.89143  24331343.1644                   24331338.5434
 -25217675.89548 -19647819.41645  20332832.6804                   20332830.8444
   7765727.461 6                  24402169.328
  -9607745.52747  -7476192.55943  22425166.8834                   22425164.7114
 -19344651.68047 -15063092.25944  20860232.2664                   20860230.7504
  -6641669.590 6                  24582999.508
 -13866129.52746 -10789652.21843  23693774.4304                   23693771.4414
 -19175295.41447 -14931022.17144  21358896.7584                   21358896.3754
 -11059145.55547  -8593485.81743  22815292.4384                   22815290.0474
 11  9 23  2  7 30.0000000  0  9G02G29G30G18G15G25G05G26G21
 -17095760.836 6                  24341109.453
 -25226344.35248 -19654574.02145  20331183.0634                   20331181.3484
   7819455.773 6                  24412392.797
  -9679618.91447  -7532197.61743  22411489.7274                   22411488.0594
 -19398133.62148 -15104766.46144  20850054.7274                   20850052.7934
  -6579998.895 6                  24594734.750
 -13799395.19146 -10737651.49043  23706473.2274                   23706471.5084
 -19170386.30147 -14927196.87143  21359830.8054                   21359829.7544
 -11142502.66847  -8658439.34843  22799430.0314                   22799428.6134
 11  9 23  2  8  0.0000000  0  9G02G29G30G18G15G25G05G26G21
 -17044273.758 6                  24350907.563
 -25234449.20748 -19660889.47945  20329640.5394                   20329638.4494
   7873256.770 6                  24422631.641
  -9751233.34847  -7588001.02943  22397861.9614                   22397860.4884
 -19451047.91047 -15145998.34244  20839985.4224                   20839983.5234
  -6518408.957 6                  24606454.891
 -13732662.53546 -10685652.04543  23719171.9694                   23719169.9264
 -19164787.19947 -14922833.85844  21360895.9924                   21360895.5474
 -11225861.11347  -8723393.88643  22783567.8834                   22783565.7074
 11  9 23  2  8 30.0000000  0  9G02G29G30G18G15G25G05G26G21
 -16992624.965 6                  24360735.547
 -25241989.73048 -19666765.19445  20328205.7034                   20328203.7304
   7927128.211 5                  24432881.602
  -9822588.22347  -7643602.08843  22384283.1094                   22384281.3834
 -19503392.18447 -15186786.06144  20830024.2894                   20830022.7504
  -6456901.590 6                  24618158.984
 -13665931.63346 -10633653.83642  23731869.9064                   23731867.3834
 -19158498.18747 -14917933.29043  21362092.5314                   21362092.2854
 -11309219.48447  -8788348.34043  22767705.1724                   22767703.0004
 11  9 23  2  9  0.0000000  0  9G02G29G30G18G15G25G05G26G21
 -16940813.797 6                  24370595.820
 -25248965.23448 -19672200.58545  20326878.2734                   20326877.4384
   7981067.402 5                  24443147.016
  -9893683.29347  -7699000.76043  22370754.0784                   22370752.1564
 -19555164.59447 -15227128.12144  20820172.1094                   20820170.6254
  -6395478.98847  -4924648.39453  24629847.7974                   24629850.5124
 -13599203.43047 -10581657.91443  23744568.1564                   23744565.6374
 -19151519.75847 -14912495.57243  21363420.3444                   21363419.8164
 -11392576.55947  -8853301.76643  22751842.6484                   22751840.3164
 11  9 23  2  9 30.0000000  0  9G02G29G30G18G15G25G05G26G21
 -16888841.387 6                  24380485.531
 -25255376.94548 -19677196.73645  20325658.2584                   20325656.7774
   8035070.281 5                  24453423.086
  -9964519.98448  -7754198.09843  22357274.3364                   22357272.3954
 -19606365.41847 -15267024.82044  20810428.9694                   20810428.2384
  -6334144.94947  -4876856.08053  24641520.7974                   24641521.1844
 -13532480.695 6                  23757264.273
 -19143853.69947 -14906522.00043  21364879.2424                   21364879.0594
 -11475932.62947  -8918254.51843  22735980.1644                   22735977.7584
 11  9 23  2 10  0.0000000  0  8G29G30G18G15G25G05G26G21
 -25261223.32448 -19681752.32945  20324545.6024                   20324544.6454
                                  24463710.039
 -10035097.07447  -7809193.05743  22343844.0634                   22343842.3984
 -19656991.66047 -15306473.82144  20800795.3364                   20800793.8324
  -6272900.801 6                  24653173.063
 -13465762.97746 -10477678.13353  23769960.9384                   23769958.0234
 -19135500.05947 -14900012.57243  21366469.3754                   21366467.8094
 -11559285.71947  -8983204.81843  22720118.2584                   22720117.4144
 11  9 23  2 10 30.0000000  0  8G29G30G18G15G25G05G26G21
 -25266503.21148 -19685866.49845  20323540.9224                   20323539.8874
   8143259.73815                  24474010.602
 -10105413.89147  -7863985.32643  22330462.7114                   22330460.8014
 -19707041.05947 -15345473.25044  20791271.1484                   20791270.4264
  -6211748.230 6                  24664811.219
 -13399050.60946 -10425694.53243  23782655.6094                   23782653.3404
 -19126458.16447 -14892966.92243  21368190.1024                   21368187.7584
 -11642633.64847  -9048151.15543  22704258.1564                   22704256.8324
 11  9 23  2 11  0.0000000  0  8G29G30G18G15G25G05G26G21
 -25271212.10548 -19689535.75045  20322644.7734                   20322643.8404
   8197445.773 5                  24484322.414
 -10175465.74648  -7918571.11143  22317132.8204                   22317130.7424
 -19756508.18047 -15384019.02644  20781857.9144                   20781856.2344
  -6150685.203 6                  24676431.164
 -13332340.30547 -10373712.53143  23795350.9144                   23795349.3714
 -19116724.82447 -14885382.42944  21370041.6644                   21370040.9184
 -11725971.50047  -9113089.61643  22688399.1724                   22688398.7304
 11  9 23  2 11 30.0000000  0  8G29G30G18G15G25G05G26G21
 -25275346.93448 -19692757.68145  20321857.7894                   20321856.1524
   8251693.406 6                  24494646.477
 -10245249.98047  -7972948.33243  22303853.1564                   22303850.8164
 -19805388.48847 -15422107.51644  20772556.0864                   20772555.3634
  -6089711.012 6                  24688033.320
 -13265629.96947 -10321730.38543  23808046.3284                   23808044.4384
 -19106297.60247 -14877257.33443  21372026.1804                   21372024.9884
 -11809295.07047  -9178017.02443  22672542.6024                   22672541.6994
 11  9 23  2 12  0.0000000  0  8G29G30G18G15G25G05G26G21
 -25278906.46948 -19695531.32745  20321180.4304                   20321179.1994
   8306000.531 6                  24504979.461
 -10314765.87947  -8027116.45043  22290624.1954                   22290623.2734
 -19853679.34847 -15459736.70044  20763366.5784                   20763365.3364
  -6028827.367 6                  24699619.602
 -13198919.87147 -10269748.56943  23820740.6094                   23820739.7234
 -19095176.79347 -14868591.72143  21374142.2814                   21374141.7704
 -11892603.03947  -9242932.28643  22656690.0864                   22656688.6764
 11  9 23  2 12 30.0000000  0  8G29G30G18G15G25G05G26G21
 -25281893.77348 -19697859.06645  20320612.0944                   20320610.5784
   8360361.313 6                  24515324.344
 -10384016.47347  -8081077.91243  22277446.4454                   22277444.8984
 -19901382.97748 -15496908.31644  20754289.0164                   20754286.4694
  -5968039.937 6                  24711188.242
 -13132214.29347 -10217770.18743  23833433.7664                   23833434.7154
 -19083366.30947 -14859388.76543  21376389.1564                   21376388.6484
 -11975896.97347  -9307836.49843  22640839.0084                   22640837.4384
 11  9 23  2 13  0.0000000  0  8G29G30G18G15G25G05G26G21
 -25284311.10948 -19699742.69545  20320151.8594                   20320150.5204
   8414770.383 6                  24525676.758
 -10453004.51647  -8134834.70043  22264317.8054                   22264316.8324
 -19948500.68448 -15533623.40144  20745322.7194                   20745320.8244
  -5907353.66847  -4544290.28953  24722735.0864                   24722739.1214
 -13065516.78947 -10165798.02143  23846125.9844                   23846125.8524
 -19070869.49647 -14849650.92643  21378767.1334                   21378766.9654
 -12059178.33247  -9372731.07343  22624992.0784                   22624988.7704
 11  9 23  2 13 30.0000000  0  8G29G30G18G15G25G05G26G21
 -25286160.53548 -19701183.77045  20319799.7894                   20319798.7344
   8469223.109 6                  24536039.508
 -10521731.72747  -8188388.25743  22251239.7504                   22251237.8164
 -19995032.74648 -15569882.08545  20736468.3674                   20736466.8404
  -5846772.56647  -4497084.11742  24734262.5864                   24734268.3914
 -12998830.07047 -10113834.24943  23858816.2894                   23858815.4574
 -19057689.30947 -14839380.66843  21381275.3284                   21381275.5744
 -12142447.50447  -9437616.01243  22609146.5164                   22609144.0904
 11  9 23  2 14  0.0000000  0  7G29G30G18G15G05G26G21
 -25287442.86348 -19702182.98845  20319555.8524                   20319554.4734
   8523715.359 6                  24546409.188
 -10590199.60547  -8241739.76243  22238210.2664                   22238208.3984
 -20040979.41448 -15605684.66044  20727724.9224                   20727723.1764
 -12932156.63747 -10061881.03143  23871503.3284                   23871503.6054
 -19043827.82047 -14828579.45243  21383913.2114                   21383913.3794
 -12225705.70347  -9502492.49743  22593302.5474                   22593300.1884
 11  9 23  2 14 30.0000000  0  7G29G30G18G15G05G26G21
 -25288158.38348 -19702740.48045  20319419.7974                   20319418.6804
   8578244.383 6                  24556786.188
 -10658408.15647  -8294889.28243  22225230.9534                   22225229.1954
 -20086339.36748 -15641030.02844  20719093.2664                   20719091.1914
 -12865497.14147 -10009938.44943  23884187.6954                   23884188.0704
 -19029285.94148 -14817248.06643  21386680.5084                   21386679.6914
 -12308951.53147  -9567359.25843  22577461.6884                   22577459.5164
 11  9 23  2 15  0.0000000  0  7G29G30G18G15G05G26G21
 -25288303.78148 -19702853.77645  20319392.2194                   20319390.9384
   8632810.543 6                  24567169.711
 -10726354.47347  -8347834.33343  22212300.8914                   22212298.6254
 -20131108.36748 -15675914.90944  20710573.3284                   20710571.7154
 -12798849.44947  -9958005.32443  23896870.4064                   23896870.1214
 -19014062.03148 -14805385.29843  21389577.7814                   21389576.9224
 -12392180.50447  -9632212.90443  22561623.5474                   22561622.3054
 11  9 23  2 15 30.0000000  0  7G29G30G18G15G05G26G21
 -25287874.53148 -19702519.24745  20319473.6024                   20319471.3484
   8687415.652 6                  24577558.797
 -10794034.04347  -8400571.56543  22199422.1954                   22199420.2274
 -20175280.46948 -15710334.70244  20702168.1564                   20702166.3014
 -12732209.99247  -9906078.40243  23909551.0314                   23909552.1724
 -18998152.13347 -14792987.89643  21392605.0784                   21392604.3324
 -12475387.14547  -9697049.21843  22545789.4924                   22545787.5864
 11  9 23  2 16  0.0000000  0  7G29G30G18G15G05G26G21
 -25286872.27748 -19701738.27445  20319664.6024                   20319663.0514
   8742055.02346  -1075917.41852  24587957.1094                   24587960.0784
 -10861448.80547  -8453102.50643  22186593.3834                   22186591.9804
 -20218856.38748 -15744289.90544  20693875.8444                   20693873.9494
 -12665581.60247  -9854160.28443  23922231.3284                   23922230.6644
 -18981559.11748 -14780058.24343  21395762.7584                   21395760.7934
 -12558571.68047  -9761868.28243  22529960.4454                   22529958.0594
 11  9 23  2 16 30.0000000  0  7G29G30G18G15G05G26G21
 -25285296.34048 -19700510.24845  20319964.7814                   20319963.2274
   8796726.770 5                  24598360.602
 -10928598.00447  -8505426.51443  22173815.2194                   22173813.2934
 -20261834.29348 -15777779.15045  20685697.5004                   20685695.0864
 -12598964.37547  -9802250.57243  23934907.8204                   23934906.1454
 -18964283.60248 -14766596.83143  21399050.1564                   21399048.1684
 -12641732.64847  -9826668.93043  22514135.9534                   22514133.4574
 11  9 23  2 17  0.0000000  0  7G29G30G18G15G05G26G21
 -25283150.26248 -19698837.96345  20320373.0554                   20320371.6564
   8851424.844 6                  24608769.688
 -10995484.94947  -8557546.10843  22161087.1094                   22161084.3794
 -20304216.46948 -15810804.16844  20677632.5394                   20677630.3054
 -12532362.37546  -9750352.93543  23947581.5944                   23947581.1254
 -18946329.79747 -14752606.85643  21402466.4614                   21402464.6254
 -12724872.55547  -9891453.13943  22498313.9384                   22498312.2034
 11  9 23  2 17 30.0000000  0  7G29G30G18G15G05G26G21
 -25280437.83248 -19696724.36745  20320888.9774                   20320888.2934
   8906142.59846   -948057.69952  24619182.4304                   24619180.2704
 -11062113.46547  -8609464.28243  22148407.9384                   22148405.7194
 -20346005.38348 -15843366.89545  20669680.2344                   20669678.1054
 -12465780.30546  -9698470.88243  23960251.7504                   23960251.5274
 -18927702.96147 -14738092.34943  21406010.9534                   21406009.3444
 -12807993.75847  -9956222.79443  22482496.1644                   22482493.7114
 11  9 23  2 18  0.0000000  0  7G29G30G18G15G05G26G21
 -25277158.97348 -19694169.40945  20321512.7664                   20321511.7584
   8960877.520 5                  24629597.484
 -11128484.03147  -8661181.48643  22135778.0234                   22135774.4694
 -20387199.95748 -15875466.55845  20661840.9614                   20661838.9344
 -12399219.145 6                  23972917.734
 -18908404.04747 -14723054.22743  21409683.3204                   21409683.5434
 -12891094.87147 -10020976.87143  22466683.6334                   22466680.9804
 11  9 23  2 18 30.0000000  0  7G29G30G18G15G05G26G21
 -25273314.08248 -19691173.38245  20322244.3834                   20322242.5594
   9015626.609 6                  24640016.969
 -11194596.89147  -8712697.96343  22123197.4224                   22123194.0234
 -20427799.36748 -15907102.43145  20654114.8914                   20654113.5594
 -12332679.78947  -9594756.17252  23985579.5474                   23985578.8874
 -18888434.52747 -14707493.54943  21413483.3524                   21413483.6054
 -12974174.46147 -10085714.17743  22450873.7114                   22450871.4494
 11  9 23  2 19  0.0000000  0  7G29G30G18G15G05G26G21
 -25268904.87548 -19687737.60444  20323083.5634                   20323081.7814
   9070385.492 5                  24650437.039
 -11260453.65247  -8764014.87543  22110665.3134                   22110663.0474
 -20467804.23048 -15938274.96244  20646502.5164                   20646501.0044
 -12266164.94546  -9542926.29843  23998237.1954                   23998235.5824
 -18867797.00447 -14691412.32743  21417410.5944                   21417411.0634
 -13057233.90247 -10150435.64443  22435068.3364                   22435065.1374
 11  9 23  2 19 30.0000000  0  7G29G30G18G15G05G26G21
 -25263932.25448 -19683862.81444  20324030.2504                   20324028.3054
   9125150.648 5                  24660860.547
 -11326055.30947  -8815132.94143  22098181.6254                   22098179.5704
 -20507214.46548 -15968984.23144  20639002.7114                   20639001.2304
 -12199676.12946  -9491116.79443  24010889.8134                   24010888.8634
 -18846494.09447 -14674812.61343  21421464.5474                   21421464.5744
 -13140272.43447 -10215140.93443  22419265.5084                   22419263.8914
 11  9 23  2 20  0.0000000  0  7G29G30G18G15G05G26G21
 -25258394.60248 -19679547.78944  20325083.6954                   20325081.5164
   9179921.47315                  24671281.813
 -11391399.91047  -8866050.66343  22085746.8674                   22085744.5354
 -20546026.94948 -15999227.66244  20631616.9774                   20631615.4844
 -12133212.28946  -9439326.87943  24023537.7664                   24023537.3874
 -18824524.65247 -14657693.56743  21425645.1884                   21425644.7194
 -13223286.83647 -10279827.44843  22403468.6484                   22403466.3714
 11  9 23  2 20 30.0000000  0  7G29G30G18G15G05G26G21
 -25252294.44148 -19674794.38044  20326244.7114                   20326242.7664
   9234692.70715                  24681704.523
 -11456489.87547  -8916770.02643  22073360.6484                   22073357.4804
 -20584243.22748 -16029006.52944  20624344.2584                   20624342.2154
 -12066776.66046  -9387558.85443  24036179.9304                   24036179.8164
 -18801892.77347 -14640058.29543  21429952.0234                   21429950.6764
 -13306278.38347 -10344496.03443  22387676.2584                   22387674.2894
 11  9 23  2 21  0.0000000  0  7G29G30G18G15G05G26G21
 -25245632.73048 -19669603.42244  20327512.2114                   20327510.3874
   9289460.801 6                  24692125.852
 -11521326.50847  -8967292.02543  22061022.3524                   22061020.2034
 -20621863.14848 -16058320.70444  20617185.3134                   20617183.5314
 -12000370.83646  -9335814.01843  24048816.1644                   24048816.5084
 -18778600.34847 -14621908.41843  21434384.5004                   21434382.9804
 -13389246.40247 -10409146.37243  22371887.8054                   22371885.6764
 11  9 23  2 21 30.0000000  0  7G29G30G18G15G05G26G21
 -25238409.83248 -19663975.18145  20328886.6644                   20328885.0004
   9344223.344 6                  24702547.766
 -11585910.04347  -9017616.78143  22048732.4454                   22048729.9264
 -20658886.19148 -16087169.78745  20610140.0394                   20610138.6684
 -11933995.58646  -9284092.98842  24061446.4614                   24061445.6644
 -18754649.02047 -14603244.97643  21438942.4924                   21438941.1564
 -13472190.03547 -10473777.69643  22356104.3444                   22356101.6564
 11  9 23  2 22  0.0000000  0  7G29G30G18G15G05G26G21
 -25230624.93748 -19657909.01744  20330367.7734                   20330365.8484
   9398978.340 6                  24712965.992
 -11650239.54347  -9067743.55543  22036491.2194                   22036488.5164
 -20695309.89548 -16115551.83644  20603208.9304                   20603207.0824
 -11867650.41046  -9232395.44043  24074071.6174                   24074071.4494
 -18730039.02747 -14584068.30343  21443625.4534                   21443624.0904
 -13555107.27047 -10538388.50243  22340325.3674                   22340323.1254
 11  9 23  2 22 30.0000000  0  7G29G30G18G15G05G26G21
 -25222278.16048 -19651405.04644  20331956.5234                   20331954.1414
   9453723.559 6                  24723383.977
 -11714314.75047  -9117672.29043  22024297.7114                   22024296.3484
 -20731133.44147 -16143466.26544  20596391.6254                   20596390.1054
 -11801336.14146  -9180722.03443  24086690.8524                   24086689.9534
 -18704771.51647 -14564379.27543  21448433.1334                   21448431.7304
 -13637995.82447 -10602976.92843  22324552.3984                   22324548.0084
 11  9 23  2 23  0.0000000  0  7G29G30G18G15G05G26G21
 -25213370.54347 -19644463.99344  20333651.2194                   20333649.5434
   9508455.71546   -478722.44552  24733798.7734                   24733800.7154
 -11778136.66847  -9167403.54843  22012152.7034                   22012150.8404
 -20766356.54348 -16170912.78644  20589688.8914                   20589687.8364
 -11735054.12146  -9129073.74643  24099303.8364                   24099303.4414
 -18678848.71947 -14544179.69043  21453366.3054                   21453365.3954
 -13720855.49247 -10667542.80543  22308784.2274                   22308780.8244
 11  9 23  2 23 30.0000000  0  7G29G30G18G15G05G26G21
 -25203903.66848 -19637087.17745  20335452.9064                   20335451.3284
   9563170.60247   -436087.43453  24744209.9844                   24744211.8794
 -11841706.90647  -9216938.67043  22000055.7814                   22000054.2344
 -20800980.16047 -16197892.20144  20583100.3524                   20583098.6454
 -11668806.71546  -9077452.35253  24111910.4774                   24111907.9614
 -18652273.88347 -14523472.01443  21458423.8914                   21458422.4344
 -13803686.59847 -10732086.47843  22293022.5084                   22293019.6914
 11  9 23  2 24  0.0000000  0  7G29G30G18G15G05G26G21
 -25193878.60948 -19629275.43444  20337360.6094                   20337359.1374
   9617865.09446   -393468.60453  24754618.1484                   24754620.1764
 -11905026.09847  -9266278.30743  21988006.6724                   21988003.6804
 -20835004.00447 -16224404.26644  20576625.8444                   20576624.4064
 -11602595.33246  -9025858.67043  24124510.0164                   24124508.2814
 -18625048.59447 -14502257.47143  21463604.1484                   21463603.5234
 -13886487.67248 -10796606.74043  22277265.2584                   22277262.3634
 11  9 23  2 24 30.0000000  0  6G29G18G15G05G26G21
 -25183294.89148 -19621028.37644  20339374.5394                   20339373.5594
 -11968093.89547  -9315421.87343  21976004.9694                   21976002.7854
 -20868426.35248 -16250447.61344  20570265.8754                   20570264.3794
 -11536419.55946  -8974293.69143  24137103.0084                   24137099.5944
 -18597174.05147 -14480537.06843  21468908.4384                   21468906.7194
 -13969257.69947 -10861102.72543  22261514.7344                   22261511.5434
 11  9 23  2 25  0.0000000  0  6G29G18G15G05G26G21
 -25172154.90248 -19612347.84844  20341494.5704                   20341492.4964
 -12030912.13747  -9364371.15343  21964050.8984                   21964048.9384
 -20901248.69947 -16276023.40244  20564019.6884                   20564018.5084
 -11470282.160 6                  24149688.547
 -18568653.05947 -14458312.87243  21474335.8284                   21474334.8984
 -14051996.64147 -10925574.68743  22245769.8524                   22245767.1644
 11  9 23  2 25 30.0000000  0  6G29G18G15G05G26G21
 -25160453.56648 -19603229.91144  20343720.7424                   20343718.9184
 -12093475.64847  -9413121.78143  21952144.9304                   21952143.4144
 -20933464.35548 -16301126.50245  20557889.6024                   20557888.1334
 -11404178.191 6                  24162267.516
 -18539482.35947 -14435582.37943  21479886.8204                   21479887.1804
 -14134697.65648 -10990016.91343  22230032.4924                   22230029.9304
 11  9 23  2 26  0.0000000  0  6G29G18G15G05G26G21
 -25148185.77748 -19593670.56044  20346055.4384                   20346054.1884
 -12155779.03547  -9461669.82443  21940289.0314                   21940287.6054
 -20965067.21548 -16325752.05845  20551875.7194                   20551874.0004
 -11338102.95746  -8819760.86953  24174841.0944                   24174840.5004
 -18509657.94947 -14412342.59443  21485562.1644                   21485561.2704
 -14217354.07048 -11054424.50843  22214303.2504                   22214300.6214
 11  9 23  2 26 30.0000000  0  6G29G18G15G05G26G21
 -25135353.75048 -19583671.58344  20348497.1884                   20348495.2424
 -12217824.54347  -9510016.92943  21928482.4304                   21928478.6644
 -20996058.78948 -16349901.27845  20545978.3444                   20545976.2934
 -11272059.047 6                  24187408.719
 -18479183.33647 -14388596.11843  21491361.6804                   21491359.1414
 -14299965.99647 -11118797.34243  22198582.5084                   22198580.1024
 11  9 23  2 27  0.0000000  0  6G29G18G15G05G26G21
 -25121962.06648 -19573236.48344  20351045.7974                   20351043.8404
 -12279616.12547  -9558166.15543  21916723.4534                   21916721.2974
 -21026442.26648 -16373576.68845  20540196.5164                   20540195.1374
 -11206050.99246  -8716863.23753  24199970.5084                   24199966.2664
 -18448064.04347 -14364347.24743  21497283.6174                   21497281.5474
 -14382536.66447 -11183138.09543  22182870.1954                   22182867.1254
 11  9 23  2 27 30.0000000  0  6G29G18G15G05G26G21
 -25108014.10548 -19562367.90545  20353699.8364                   20353698.3634
 -12341156.82447  -9606119.84743  21905013.1804                   21905011.8524
 -21056220.02748 -16396780.08845  20534529.9774                   20534528.2854
 -11140082.36346  -8665459.13742  24212523.8674                   24212520.4734
 -18416304.64547 -14339599.66943  21503327.2344                   21503324.2464
 -14465067.09448 -11247447.44043  22167165.6564                   22167162.3554
 11  9 23  2 28  0.0000000  0  6G29G18G15G05G26G21
 -25093509.99648 -19551065.99245  20356460.1644                   20356458.8054
 -12402446.69947  -9653878.10943  21893349.7034                   21893348.0434
 -21085391.21148 -16419510.84145  20528978.9844                   20528977.2774
 -11074153.46946  -8614086.00943  24225068.6804                   24225066.5664
 -18383906.49647 -14314354.44343  21509492.3134                   21509489.2274
 -14547555.62548 -11311724.18343  22151468.3054                   22151465.5434
 11  9 23  2 28 30.0000000  0  6G29G18G15G05G26G21
 -25078452.70348 -19539333.04644  20359325.2274                   20359323.9024
 -12463488.19147  -9701442.79943  21881734.6564                   21881732.2734
 -21113957.24248 -16441770.06845  20523542.9534                   20523540.8634
 -11008267.17646  -8562746.02153  24237605.6644                   24237603.5744
 -18350873.65247 -14288614.45343  21515777.5314                   21515776.2154
 -14630003.17248 -11375968.98043  22135779.0234                   22135775.6844
 11  9 23  2 29  0.0000000  0  6G29G18G15G05G26G21
 -25062843.23448 -19527169.79444  20362295.3594                   20362293.8054
 -12524282.19948  -9748814.73243  21870165.6334                   21870163.2274
 -21141918.27048 -16463557.87345  20518222.1484                   20518220.8284
 -10942424.586 6                  24250136.172
 -18317208.59447 -14262381.91643  21522184.0164                   21522182.9964
 -14712408.70748 -11440181.04643  22120097.7734                   22120093.9264
 11  9 23  2 29 30.0000000  0  6G29G18G15G05G26G21
 -25046682.94548 -19514577.36344  20365371.0084                   20365369.2704
 -12584829.32048  -9795994.17543  21858643.6024                   21858640.5784
 -21169274.49648 -16484874.35545  20513016.5394                   20513014.2344
 -10876626.840 6                  24262657.477
 -18282913.42247 -14235658.40843  21528710.5634                   21528708.8244
 -14794771.49648 -11504359.80743  22104424.4304                   22104421.4734
 11  9 23  2 30  0.0000000  0  6G29G18G15G05G26G21
 -25029970.59048 -19501554.74144  20368550.7194                   20368549.3324
 -12645128.35948  -9842980.48043  21847168.7894                   21847165.7274
 -21196024.22748 -16505718.24545  20507926.2114                   20507924.4414
 -10810873.629 6                  24275169.727
 -18247988.70747 -14208444.30143  21535356.6564                   21535355.1254
 -14877088.94548 -11568503.24743  22088759.9534                   22088758.0514
 11  9 23  2 30 30.0000000  0  6G29G18G15G05G26G21
 -25012709.64848 -19488104.61644  20371835.5004                   20371833.2854
 -12705182.10948  -9889775.45043  21835741.1724                   21835738.3244
 -21222169.52348 -16526091.16145  20502950.9384                   20502948.6684
 -10745167.297 6                  24287673.453
 -18212438.67247 -14180742.93543  21542121.8284                   21542120.1214
 -14959362.12547 -11632612.16744  22073103.7274                   22073102.6054
 11  9 23  2 31  0.0000000  0  6G29G18G15G05G26G21
 -24994902.55548 -19474228.98044  20375224.1254                   20375222.7464
 -12764993.28548  -9936381.57243  21824359.4384                   21824356.7194
 -21247711.25847 -16545993.79045  20498090.2584                   20498088.7544
 -10679510.727 6                  24300166.773
 -18176267.23047 -14152557.41143  21549004.6094                   21549002.7274
 -15041591.22347 -11696686.67543  22057456.1174                   22057453.5904
 11  9 23  2 31 30.0000000  0  6G29G18G15G05G26G21
 -24976548.74248 -19459927.29144  20378716.8284                   20378715.4224
 -12824560.32848  -9982797.38743  21813024.1254                   21813021.1604
 -21272647.93048 -16565424.92945  20493344.7734                   20493343.5084
 -10613903.250 6                  24312651.211
 -18139474.88747 -14123888.03243  21556005.7194                   21556003.3834
 -15123773.40247 -11760724.63643  22041816.9844                   22041814.1254
 11  9 23  2 32  0.0000000  0  6G29G18G15G05G26G21
 -24957650.23848 -19445201.18144  20382312.9924                   20382312.0204
 -12883884.51248 -10029024.01543  21801735.2344                   21801732.8874
 -21296980.85248 -16584385.62944  20488714.3594                   20488712.7304
 -10548346.535 6                  24325127.305
 -18102064.80147 -14094737.33043  21563124.7114                   21563121.9224
 -15205908.62547 -11824726.11843  22026187.0784                   22026185.5824
 11  9 23  2 32 30.0000000  0  6G29G18G15G05G26G21
 -24938207.10248 -19430050.67144  20386013.3204                   20386012.0984
 -12942965.76248 -10075061.28443  21790492.4224                   21790489.0164
 -21320708.73447 -16602874.84744  20484198.9844                   20484197.4734
 -10482840.39846  -8153326.50852  24337592.2974                   24337593.1054
 -18064038.36747 -14065106.32043  21570361.2504                   21570358.8364
 -15287994.64847 -11888689.21543  22010566.7974                   22010563.7194
 11  9 23  2 33  0.0000000  0  6G29G18G15G05G26G21
 -24918220.19148 -19414476.46644  20389816.3204                   20389815.1414
 -13001804.24248 -10120909.38843  21779295.5864                   21779292.4304
 -21343831.39147 -16620892.42844  20479798.6804                   20479797.5904
 -10417385.500 6                  24350048.352
 -18025397.57047 -14034996.60243  21577714.1484                   21577711.1054
 -15370030.03947 -11952612.80343  21994955.8054                   21994953.1724
 11  9 23  2 33 30.0000000  0  6G29G18G15G05G26G21
 -24897691.33648 -19398479.93244  20393722.7734                   20393721.2704
 -13060401.71148 -10166569.69043  21768144.7504                   21768141.4654
 -21366349.49647 -16638438.95444  20475513.4384                   20475511.5824
 -10351983.41446  -8051359.90252  24362494.8284                   24362493.6134
 -17986145.27047 -14004410.35743  21585183.7974                   21585181.7584
 -15452014.13747 -12016496.47843  21979354.6564                   21979352.7304
 11  9 23  2 34  0.0000000  0  6G29G18G15G05G26G21
 -24876622.09048 -19382062.33844  20397732.2344                   20397730.7774
 -13118758.76648 -10212042.71643  21757039.9844                   21757036.0784
 -21388263.59447 -16655514.83544  20471343.3204                   20471341.3714
 -10286635.551 6                  24374929.391
 -17946284.21147 -13973349.78343  21592769.0474                   21592767.1684
 -15533946.20347 -12080339.61443  21963763.2504                   21963759.8244
 11  9 23  2 34 30.0000000  0  6G29G18G15G05G26G21
 -24855013.64848 -19365224.57045  20401844.6254                   20401843.5314
 -13176876.09048 -10257328.88343  21745980.7274                   21745977.3484
 -21409574.34448 -16672120.60044  20467288.3204                   20467286.2504
 -10221342.77346  -7949560.12053  24387354.7664                   24387348.1914
 -17905817.20747 -13941816.98843  21600469.5084                   21600467.1214
 -15615825.54347 -12144141.63143  21948182.1414                   21948178.8364
 11  9 23  2 35  0.0000000  0  7G22G29G18G15G05G26G21
   6189459.32416                  24543210.117
 -24832866.41848 -19347966.95744  20406058.6484                   20406058.3284
 -13234754.02347 -10302428.55943  21734965.9534                   21734963.9804
 -21430280.90248 -16688255.53944  20463347.8364                   20463345.8244
 -10156105.352 6                  24399768.523
 -17864745.76647 -13909813.27443  21608285.3444                   21608283.4694
 -15697650.12947 -12207901.00643  21932611.6094                   21932608.0354
 11  9 23  2 35 30.0000000  0  7G22G29G18G15G05G26G21
   6095827.684 6                  24525391.820
 -24810186.56648 -19330294.35944  20410374.9924                   20410372.9344
 -13292397.93447 -10347345.76243  21723996.5394                   21723994.4774
 -21450387.88348 -16703923.29344  20459521.6484                   20459520.1334
 -10090928.88346  -7847937.94753  24412170.4774                   24412169.0514
 -17823077.16047 -13877344.17343  21616214.3204                   21616211.8484
 -15779423.53948 -12271620.47843  21917050.7894                   21917047.2384
 11  9 23  2 36  0.0000000  0  7G22G29G18G15G05G26G21
   6002348.301 5                  24507602.547
 -24786979.44548 -19312210.90344  20414790.8674                   20414789.0474
 -13349812.28147 -10392084.23443  21713071.5084                   21713069.1684
 -21469899.88348 -16719127.42445  20455809.1094                   20455806.4454
 -10025817.910 6                  24424561.313
 -17780817.84047 -13844414.89043  21624256.2504                   21624254.3404
 -15861148.59848 -12335302.29643  21901499.0234                   21901495.1054
 11  9 23  2 36 30.0000000  0  6G29G18G15G05G26G21
 -24763246.18748 -19293717.41645  20419306.7194                   20419304.6564
 -13406997.46548 -10436644.04143  21702189.3834                   21702187.1724
 -21488817.02048 -16733868.04745  20452209.1804                   20452207.2304
  -9960773.277 6                  24436938.320
 -17737970.23447 -13811027.16143  21632409.7034                   21632407.2854
 -15942824.07847 -12398945.48043  21885956.8594                   21885952.7544
 11  9 23  2 37  0.0000000  0  6G29G18G15G05G26G21
 -24738985.86348 -19274813.26145  20423923.4454                   20423921.9534
 -13463952.32848 -10481024.45043  21691351.7344                   21691348.4264
 -21507137.23448 -16748143.51145  20448722.9304                   20448720.4344
  -9895793.664 6                  24449303.164
 -17694534.34447 -13777181.03143  21640675.1174                   21640672.7584
 -16024446.46948 -12462547.29243  21870424.2194                   21870420.8364
 11  9 23  2 37 30.0000000  0  7G22G29G18G15G05G26G21
   5722824.32415                  24454413.320
 -24714198.80948 -19255498.67845  20428640.2114                   20428639.2814
 -13520676.60248 -10525225.15543  21680557.5704                   21680553.8324
 -21524859.91848 -16761953.38645  20445350.5314                   20445348.6294
  -9830878.988 6                  24461656.750
 -17650512.21547 -13742878.00443  21649052.2734                   21649050.2704
 -16106013.49247 -12526105.94144  21854902.9224                   21854900.2344
 11  9 23  2 38  0.0000000  0  7G22G29G18G15G05G26G21
   7205388.000 6                  24736536.719
 -23113465.47348 -18008173.98745  20733250.1804                   20733249.0164
 -12001747.43048  -9341643.89643  21969600.1334                   21969596.2774
 -19966563.10248 -15547696.10244  20741884.0554                   20741882.3094
  -8190610.723 6                  24773789.297
 -16030485.93447 -12480519.78543  21957333.1564                   21957331.6094
 -14612099.62548 -11362017.13443  22139184.8524                   22139182.7384
 11  9 23  2 38 30.0000000  0  7G22G29G18G15G05G26G21
   7112687.219 5                  24718897.789
 -23087624.68448 -17988038.32645  20738167.2814                   20738165.5124
 -12058008.07448  -9385483.33943  21958893.7974                   21958892.0904
 -19983087.34048 -15560572.04945  20738739.8594                   20738738.0434
  -8125824.148 6                  24786117.953
 -15985294.17647 -12445305.44443  21965932.8754                   21965931.2274
 -14693547.84448 -11425483.21744  22123685.9774                   22123683.6334
 11  9 23  2 39  0.0000000  0  7G22G29G18G15G05G26G21
   7020147.105 5                  24701286.477
 -23061256.31648 -17967491.53645  20743184.7274                   20743183.6604
 -12114035.19548  -9429140.76843  21948232.3444                   21948229.7344
 -19999010.41448 -15572979.65145  20735709.5864                   20735707.0704
  -8061099.629 5                  24798433.031
 -15939518.54747 -12409636.07843  21974643.8524                   21974641.6024
 -14774931.69548 -11488899.14744  22108199.1884                   22108196.6604
 11  9 23  2 39 30.0000000  0  7G22G29G18G15G05G26G21
   6927767.547 5                  24683706.586
 -23034362.12948 -17946534.99645  20748302.8914                   20748300.9104
 -12169829.75048  -9472617.04644  21937614.9224                   21937611.5784
 -20014332.65648 -15584919.00945  20732794.0944                   20732792.4494
  -7996438.617 6                  24810738.609
 -15893162.21947 -12373514.32043  21983465.2734                   21983463.5274
 -14856251.07848 -11552264.86644  22092723.5084                   22092721.4024
 11  9 23  2 40  0.0000000  0  6G29G18G15G05G26G21
 -23006944.03548 -17925170.26445  20753520.0394                   20753518.3204
 -12225393.45347  -9515913.35743  21927041.0634                   21927038.3554
 -20029055.48448 -15596391.34745  20729992.3834                   20729989.8014
  -7931842.535 6                  24823030.734
 -15846228.42247 -12336942.39243  21992396.3134                   21992393.8794
 -14937504.87948 -11615579.41844  22077262.0704                   22077259.9344
 11  9 23  2 40 30.0000000  0  6G29G18G15G05G26G21
 -22979002.77048 -17903397.84445  20758836.8594                   20758835.9384
 -12280725.64148  -9559029.27344  21916511.8594                   21916509.9694
 -20043178.09448 -15607395.93144  20727304.7584                   20727302.7854
  -7867311.184 6                  24835310.984
 -15798719.02747 -12299922.08043  22001436.8204                   22001435.9454
 -15018691.14148 -11678841.44444  22061813.0944                   22061809.9494
 11  9 23  2 41  0.0000000  0  6G29G18G15G05G26G21
 -22950541.16448 -17881219.95645  20764253.0164                   20764252.2814
 -12335828.50447  -9601966.46443  21906025.7584                   21906023.6564
 -20056702.68448 -15617934.54245  20724731.1254                   20724728.8404
  -7802846.703 6                  24847578.211
 -15750637.96547 -12262456.36643  22010586.4774                   22010585.1174
 -15099809.88747 -11742050.78543  22046376.2814                   22046372.7894
 11  9 23  2 41 30.0000000  0  7G22G29G18G15G05G26G21
   7818421.03115                  24613694.438
 -22921558.32848 -17858635.94045  20769768.3834                   20769767.0084
 -12390700.47747  -9644723.79743  21895583.7894                   21895580.9384
 -20069627.52748 -15628005.83944  20722271.7504                   20722269.0984
  -7738447.637 6                  24859832.836
 -15701985.62547 -12224545.39343  22019844.7664                   22019842.8444
 -15180857.60548 -11805204.80643  22030953.7584                   22030950.1644
 11  9 23  2 42  0.0000000  0  7G22G29G18G15G05G26G21
   7726844.56615                  24596265.297
 -22892056.81648 -17835647.76545  20775382.6884                   20775380.9614
 -12445343.34048  -9687302.65343  21885185.9844                   21885183.5634
 -20081953.70748 -15637610.58944  20719925.8984                   20719923.4384
  -7674115.645 6                  24872076.211
 -15652765.58247 -12186192.09443  22029210.8984                   22029209.3634
 -15261833.59048 -11868302.94043  22015544.6644                   22015540.9964
 11  9 23  2 42 30.0000000  0  7G22G29G18G15G05G26G21
   7635431.223 5                  24578871.117
 -22862036.37548 -17812255.17945  20781095.3444                   20781093.1844
 -12499756.18047  -9729702.20843  21874830.8284                   21874828.9224
 -20093680.00048 -15646747.92444  20717694.5474                   20717692.2114
  -7609849.125 5                  24884304.586
 -15602978.61347 -12147397.09243  22038684.8594                   22038683.5314
 -15342734.67248 -11931342.70844  22000149.7274                   22000145.1334
 11  9 23  2 43  0.0000000  0  7G22G29G18G15G05G26G21
   7544179.219 4                  24561502.914
 -22831499.58248 -17788460.33344  20786906.3134                   20786904.4924
 -12553940.37147  -9771923.54743  21864520.2034                   21864518.0434
 -20104808.27348 -15655419.32245  20715577.0944                   20715574.2384
  -7545650.500 5                  24896521.844
 -15552628.98047 -12108163.66143  22048266.0634                   22048263.6954
 -15423560.70747 -11994323.96843  21984768.8914                   21984765.6564
 11  9 23  2 43 30.0000000  0  6G29G18G15G05G26G21
 -22800449.23048 -17764265.20444  20792814.5634                   20792812.7234
 -12607898.02048  -9813968.41343  21854252.8914                   21854249.6174
 -20115340.37148 -15663626.12145  20713572.5784                   20713570.4534
  -7481521.223 6                  24908725.070
 -15501720.38347 -12068494.56243  22057953.4454                   22057951.0474
 -15504312.03547 -12057247.03544  21969401.9774                   21969399.9964
 11  9 23  2 44  0.0000000  0  5G29G18G15G26G21
 -22768886.87948 -17739671.16144  20798820.6024                   20798819.8484
 -12661629.54348  -9855837.11943  21844028.1954                   21844025.3594
 -20125276.69148 -15671368.68645  20711682.0084                   20711680.5234
 -15450255.46147 -12028392.03943  22067747.2894                   22067745.3754
 -15584986.93448 -12120110.52343  21954049.7034                   21954047.3284
 11  9 23  2 44 30.0000000  0  5G29G18G15G26G21
 -22736811.73448 -17714677.54645  20804924.7814                   20804924.0004
 -12715134.05148  -9897528.89844  21833846.2114                   21833843.7114
 -20134615.77048 -15678645.87044  20709904.6024                   20709902.0704
 -15398234.82847 -11987856.37943  22077646.2734                   22077644.5514
 -15665581.44147 -12182911.40343  21938713.5314                   21938709.3284
 11  9 23  2 45  0.0000000  0  6G22G29G18G15G26G21
                                  24492358.109
 -22704221.50448 -17689282.55844  20811126.1334                   20811124.8914
 -12768407.89548  -9939040.90443  21823708.1724                   21823705.9024
 -20143354.34848 -15685455.12945  20708241.7424                   20708239.3554
 -15345657.40647 -11946887.04843  22087651.0004                   22087650.3094
 -15746090.69947 -12245645.88943  21923393.3204                   21923389.3554
 11  9 23  2 45 30.0000000  0  6G22G29G18G15G26G21
   7723267.88715                  24475146.563
 -22671113.19548 -17663483.82644  20817426.6954                   20817425.0124
 -12821447.25048  -9980370.21743  21813615.5314                   21813613.0354
 -20151488.36748 -15691793.32045  20706693.5944                   20706692.3484
 -15292521.27747 -11905482.24443  22097762.7814                   22097760.9574
 -15826508.42247 -12308308.96143  21908089.8054                   21908086.8914
 11  9 23  2 46  0.0000000  0  6G22G29G18G15G26G21
   7633009.059 5                  24457971.117
 -22637489.53148 -17637283.57144  20823824.9224                   20823823.1994
 -12874254.04747 -10021518.33644  21803566.3674                   21803563.9344
 -20159019.63348 -15697661.81745  20705260.5084                   20705258.7424
 -15238830.23047 -11863645.06343  22107979.5554                   22107978.7154
 -15906834.33647 -12370900.59944  21892804.6174                   21892801.7274
 11  9 23  2 46 30.0000000  0  6G22G29G18G15G26G21
   7542915.766 5                  24440827.313
 -22603356.82048 -17610686.62544  20830320.4384                   20830318.6484
 -12926833.29348 -10062489.17243  21793560.9144                   21793558.7734
 -20165953.17648 -15703064.54844  20703941.0634                   20703939.5594
 -15184591.82847 -11821381.25043  22118300.8594                   22118299.3324
 -15987071.12147 -12433422.68943  21877535.2894                   21877534.1604
 11  9 23  2 47  0.0000000  0  6G22G29G18G15G26G21
   7452986.738 6                  24423715.180
 -22568717.87547 -17583695.25644  20836911.5784                   20836910.1294
 -12979187.32848 -10103284.44943  21783598.1884                   21783595.4144
 -20172291.45348 -15708003.45945  20702735.2814                   20702732.8484
 -15129810.23047 -11778694.35643  22128725.5554                   22128724.4694
 -16067219.14547 -12495875.71343  21862284.1414                   21862281.9264
 11  9 23  2 47 30.0000000  0  6G22G29G18G15G26G21
   7363222.766 5                  24406630.883
 -22533574.30148 -17556310.64344  20843599.3364                   20843597.7704
 -13031316.35247 -10143904.35743  21773678.5634                   21773675.1644
 -20178035.25048 -15712479.10244  20701642.1884                   20701639.7734
 -15074488.03947 -11735586.13343  22139252.9694                   22139251.0744
 -16147277.06247 -12558258.47443  21847049.3834                   21847046.7194
 11  9 23  2 48  0.0000000  0  6G22G29G18G15G26G21
   7273624.844 5                  24389583.008
 -22497926.62148 -17528533.21944  20850382.8204                   20850381.5824
 -13083220.23447 -10184348.97743  21763801.1174                   21763797.8284
 -20183183.76248 -15716490.89045  20700662.3914                   20700660.3324
 -15018626.68047 -11692057.82543  22149883.4924                   22149881.7344
 -16227241.11347 -12620568.10944  21831833.0554                   21831829.8244
 11  9 23  2 48 30.0000000  0  6G22G29G18G15G26G21
   7184190.88715                  24372561.383
 -22461778.50448 -17500365.86944  20857261.3594                   20857260.6914
 -13134901.15247 -10224619.76744  21753966.2894                   21753964.0164
 -20187739.45748 -15720040.78144  20699795.3754                   20699792.7034
 -14962231.12147 -11648113.21443  22160615.1644                   22160613.9884
 -16307112.88347 -12682805.79044  21816633.4064                   21816630.7734
 11  9 23  2 49  0.0000000  0  6G22G29G18G15G26G21
   7094920.78914                  24355578.406
 -22425131.52747 -17471809.77244  20864235.5554                   20864234.1994
 -13186360.12547 -10264717.62544  21744173.9774                   21744172.1174
 -20191703.69148 -15723129.76244  20699041.2114                   20699038.6994
 -14905304.29747 -11603754.66543  22171447.8134                   22171447.0474
 -16386890.18447 -12744969.92044  21801452.4844                   21801449.4384
 11  9 23  2 49 30.0000000  0  6G22G29G18G15G26G21
   7005816.012 5                  24338621.063
 -22387986.45347 -17442865.58744  20871303.5944                   20871301.8874
 -13237596.87947 -10304642.33544  21734424.4144                   21734422.2934
 -20195075.96148 -15725757.48144  20698399.2114                   20698396.2074
 -14847848.10247 -11558983.57843  22182381.3524                   22182379.2734
 -16466570.88347 -12807058.76243  21786289.6174                   21786286.5314
 11  9 23  2 50  0.0000000  0  5G29G18G15G26G21
 -22350347.38748 -17413536.45944  20878466.6094                   20878464.3594
 -13288613.99247 -10344395.83744  21724716.0314                   21724713.6054
 -20197859.46948 -15727926.42644  20697869.3444                   20697867.4494
 -14789867.69547 -11513804.07843  22193414.5864                   22193412.5234
 -16546155.25447 -12869072.48243  21771145.4384                   21771142.3014
 11  9 23  2 50 30.0000000  0  5G29G18G15G26G21
 -22312215.76647 -17383823.49344  20885722.8054                   20885721.0744
 -13339412.37547 -10383978.97644  21715049.2974                   21715046.5474
 -20200055.08248 -15729637.26345  20697451.7424                   20697450.0474
 -14731365.81247 -11468218.18043  22204546.9774                   22204545.0474
 -16625642.20747 -12931010.33043  21756019.6094                   21756016.2974
 11  9 23  2 51  0.0000000  0  6G29G09G18G15G26G21
 -22273595.70747 -17353729.94144  20893071.6414                   20893070.1994
   7750736.92215                  24929444.648
 -13389994.85947 -10423393.92043  21705423.8984                   21705420.6174
 -20201665.69148 -15730892.30945  20697145.1484                   20697143.0044
 -14672347.34047 -11422229.79043  22215778.2584                   22215776.4024
 -16705031.65647 -12992872.20243  21740911.8524                   21740908.9184
 11  9 23  2 51 30.0000000  0  5G29G18G15G26G21
 -22234490.27747 -17323258.19644  20900513.3524                   20900510.6334
 -13440363.44947 -10462642.10143  21695838.9304                   21695835.6524
 -20202693.84448 -15731693.41744  20696949.8054                   20696946.9024
 -14612816.73447 -11375842.20243  22227106.0784                   22227103.9344
 -16784323.33647 -13054657.88943  21725823.8134                   21725819.7344
 11  9 23  2 52  0.0000000  0  5G29G18G15G26G21
 -22194906.72747 -17292413.86444  20908045.6644                   20908043.5784
 -13490524.28947 -10501728.44444  21686293.9534                   21686289.9884
 -20203145.74648 -15732045.54344  20696863.6954                   20696861.6484
 -14552782.28147 -11329062.17643  22238529.7194                   22238529.0084
 -16863521.73047 -13116370.92143  21710752.4534                   21710749.0704
 11  9 23  2 52 30.0000000  0  5G29G18G15G26G21
 -22154846.33648 -17261197.96344  20915669.1884                   20915666.4924
 -13540477.50447 -10540652.98244  21676787.9844                   21676784.6174
 -20203021.31648 -15731948.54744  20696886.8054                   20696885.3324
 -14492246.49647 -11281891.39743  22250049.7734                   22250047.8164
 -16942623.83247 -13178008.90644  21695699.9304                   21695696.4264
 11  9 23  2 53  0.0000000  0  5G29G18G15G26G21
 -22114306.58247 -17229608.56744  20923382.9844                   20923381.9104
 -13590219.05547 -10579412.59643  21667322.7504                   21667318.7424
 -20202317.77048 -15731400.29644  20697020.5554                   20697018.4224
 -14431207.69946 -11234328.78143  22261665.0784                   22261663.8714
 -17021624.45347 -13239567.78344  21680666.3914                   21680663.0784
 11  9 23  2 53 30.0000000  0  5G29G18G15G26G21
 -22073290.33647 -17197647.83844  20931188.3834                   20931187.1644
 -13639751.14147 -10618009.03043  21657896.6564                   21657894.8484
 -20201037.05948 -15730402.31944  20697264.5864                   20697262.6334
 -14369670.12947 -11186377.44943  22273374.8674                   22273373.1764
 -17100522.73847 -13301046.92244  21665652.9384                   21665650.2034
 11  9 23  2 54  0.0000000  0  5G29G18G15G26G21
 -22031798.91847 -17165316.81644  20939083.8754                   20939082.2464
 -13689074.02347 -10656442.46043  21648510.9384                   21648507.6454
 -20199179.64848 -15728954.98544  20697618.3134                   20697615.7774
 -14307635.97347 -11138039.02543  22285180.5164                   22285179.3164
 -17179316.58248 -13362444.71144  21650659.2034                   21650655.6804
 11  9 23  2 54 30.0000000  0  5G29G18G15G26G21
 -21989832.35247 -17132615.61344  20947069.8204                   20947067.9964
 -13738186.17647 -10694711.59343  21639164.7114                   21639161.4144
 -20196744.57048 -15727057.51644  20698081.7584                   20698079.2344
 -14245106.47747 -11089314.78943  22297078.9384                   22297078.0554
 -17258002.19547 -13423758.14044  21635685.3524                   21635682.2624
 11  9 23  2 55  0.0000000  0  5G29G18G15G26G21
 -21947391.77347 -17099545.00444  20955146.4534                   20955144.2664
 -13787088.01247 -10732816.88243  21629859.3444                   21629855.4384
 -20193732.44548 -15724710.40145  20698654.8134                   20698651.9844
 -14182084.29747 -11040206.62243  22309070.9304                   22309070.1414
 -17336577.57847 -13484985.67244  21620733.3284                   21620729.8284
 11  9 23  2 55 30.0000000  0  5G29G18G15G26G21
 -21904480.64147 -17066107.75444  20963311.8984                   20963310.3364
 -13835781.23447 -10770759.69643  21620593.6644                   21620589.9574
 -20190145.55948 -15721915.39044  20699337.6414                   20699335.3054
 -14118573.19947 -10990717.48043  22321157.3054                   22321155.2544
 -17415042.28147 -13546126.96544  21605801.8754                   21605798.5004
 11  9 23  2 56  0.0000000  0  5G29G18G15G26G21
 -21861098.69147 -17032303.64244  20971566.9694                   20971564.8324
 -13884264.25047 -10808538.57443  21611367.5554                   21611363.2854
 -20185982.96548 -15718671.77944  20700129.3984                   20700127.4264
 -14054574.59847 -10940848.49543  22333336.0554                   22333334.5164
 -17493392.57848 -13607179.12944  21590892.0944                   21590889.4774
 11  9 23  2 56 30.0000000  0  6G29G09G18G15G26G21
 -21817251.03548 -16998136.66344  20979911.0704                   20979909.9734
                                  24707219.984
 -13932541.25847 -10846156.98943  21602180.5704                   21602177.2504
 -20181248.88348 -15714982.89945  20701030.0394                   20701027.3984
 -13990094.39147 -10890603.95343  22345606.6724                   22345605.2774
 -17571630.03547 -13668143.36644  21576004.3204                   21575999.7734
 11  9 23  2 57  0.0000000  0  5G29G18G15G26G21
 -21772936.89848 -16963606.15644  20988343.9224                   20988343.2424
 -13980610.20348 -10883613.28544  21593033.3364                   21593031.1914
 -20175941.77748 -15710847.47945  20702039.8594                   20702038.1844
 -13925132.93047 -10839984.71743  22357968.6804                   22357967.2274
 -17649749.96547 -13729015.96743  21561137.9144                   21561134.3244
 11  9 23  2 57 30.0000000  0  5G29G18G15G26G21
 -21728159.74648 -16928714.87144  20996864.7974                   20996862.4924
 -14028473.13748 -10920909.02844  21583925.0944                   21583923.1334
 -20170064.09848 -15706267.43945  20703158.3204                   20703156.8244
 -13859694.64547 -10788993.87043  22370420.8674                   22370419.0984
 -17727751.96148 -13789796.75843  21546294.8444                   21546291.1214
 11  9 23  2 58  0.0000000  0  5G29G18G15G26G21
 -21682921.14148 -16893464.03944  21005473.5004                   21005471.4494
 -14076130.73447 -10958044.77544  21574856.4534                   21574854.3014
 -20163617.16048 -15701243.83645  20704385.6254                   20704383.6334
 -13793782.32447 -10737633.82443  22382963.2814                   22382961.6484
 -17805634.45748 -13850484.36644  21531473.8834                   21531470.7304
 11  9 23  2 58 30.0000000  0  5G29G18G15G26G21
 -21637222.14548 -16857854.38844  21014169.3444                   21014167.7774
 -14123582.40647 -10995020.10343  21565826.1564                   21565823.5634
 -20156601.05548 -15695776.73344  20705720.6644                   20705719.2814
 -13727398.02746 -10685905.77343  22395595.2114                   22395593.7974
 -17883394.39147 -13911076.50844  21516676.8364                   21516673.0044
 11  9 23  2 59  0.0000000  0  6G22G29G18G15G26G21
   7793926.16016                  24022213.617
 -21591064.65248 -16821887.57244  21022952.9224                   21022951.2544
 -14170828.87548 -11031835.47844  21556835.8524                   21556832.7194
 -20149016.59848 -15689866.73845  20707163.8834                   20707161.9494
 -13660544.85946 -10633812.25143  22408317.3134                   22408316.9064
 -17961029.88748 -13971571.67544  21501903.4454                   21501899.8244
 11  9 23  2 59 30.0000000  0  6G22G29G18G15G26G21
   7708010.578 6                  24005865.789
 -21544453.02748 -16785566.82044  21031822.7344                   21031821.9614
 -14217872.92647 -11068493.17144  21547883.5864                   21547880.6334
 -20140867.64848 -15683516.91844  20708714.9224                   20708712.0204
 -13593227.83647 -10581357.40943  22421126.7274                   22421127.0784
 -18038541.66447 -14031970.47144  21487153.0554                   21487150.1764
 11  9 23  3  0  0.0000000  0  6G22G29G18G15G26G21
   7622249.805 6                  23989545.656
 -21497392.75848 -16748896.50544  21040778.1564                   21040777.6454
 -14264718.77048 -11104996.38144  21538969.0394                   21538965.9844
 -20132158.67648 -15676730.68544  20710371.7814                   20710368.8594
 -13525453.74646 -10528546.51943  22434024.3674                   22434023.8954
 -18115931.26648 -14092274.05644  21472426.9614                   21472422.3674
 11  9 23  3  0 30.0000000  0  6G22G29G18G15G26G21
   7536639.563 6                  23973254.586
 -21449890.31248 -16711881.57644  21049817.3834                   21049815.5044
 -14311371.62947 -11141349.19143  21530090.9064                   21530088.5634
 -20122895.56247 -15669512.70744  20712134.6094                   20712131.8874
 -13457229.97347 -10475385.29743  22447007.0234                   22447004.4964
 -18193201.32448 -14152484.43544  21457722.6414                   21457719.2814
 11  9 23  3  1  0.0000000  0  6G22G29G18G15G26G21
   7451179.535 6                  23956991.156
 -21401947.68448 -16674523.74544  21058940.7114                   21058938.6214
 -14357832.18748 -11177552.22144  21521249.9384                   21521247.7704
 -20113079.58247 -15661863.84844  20714002.3444                   20713999.5824
 -13388559.64547 -10421875.89143  22460074.2974                   22460073.1604
 -18270350.04348 -14212600.29244  21443042.0474                   21443038.9694
 11  9 23  3  1 30.0000000  0  7G22G29G18G06G15G26G21
   7365872.648 6                  23940757.211
 -21353564.21548 -16636822.36544  21068147.9924                   21068147.4344
 -14404098.10547 -11213603.55943  21512446.0634                   21512443.4774
   7643299.46515                  24740442.328
 -20102709.10248 -15653782.94844  20715975.8834                   20715973.5234
 -13319443.04347 -10368018.81943  22473227.2974                   22473225.4184
 -18347373.02347 -14272618.15144  21428384.5394                   21428382.1174
 11  9 23  3  2  0.0000000  0  7G22G29G18G06G15G26G21
   7280719.273 6                  23924551.242
 -21304741.44548 -16598778.64844  21077438.7114                   21077437.4144
 -14450169.57447 -11249503.31744  21503679.2114                   21503675.3054
                                  24720543.000
 -20091785.07048 -15645270.72444  20718054.2424                   20718052.0984
 -13249882.37546 -10313815.67143  22486464.0164                   22486462.1684
 -18424267.93747 -14332536.32844  21413751.8444                   21413748.9144
 11  9 23  3  2 30.0000000  0  7G22G29G18G06G15G26G21
   7195721.246 6                  23908378.086
 -21255479.44148 -16560392.67744  21086812.7504                   21086811.2464
 -14496045.12547 -11285250.50844  21494949.2894                   21494946.3954
   7434416.38315                  24700697.172
 -20080306.55547 -15636326.40044  20720238.6484                   20720236.3364
 -13179879.07447 -10259267.69743  22499785.4304                   22499782.6804
 -18501030.64147 -14392351.40044  21399144.6484                   21399140.5004
 11  9 23  3  3  0.0000000  0  6G22G29G18G15G26G21
   7110878.324 6                  23892232.555
 -21205780.63348 -16521666.29544  21096270.1254                   21096268.5664
 -14541726.21147 -11320846.10744  21486256.5394                   21486253.1724
 -20068275.81247 -15626951.80344  20722528.0004                   20722525.2854
 -13109436.86347 -10204377.82443  22513190.1804                   22513187.9304
 -18577659.80947 -14452062.38744  21384562.8524                   21384558.7774
 11  9 23  3  3 30.0000000  0  7G22G29G18G06G15G26G21
   7026191.309 6                  23876118.406
 -21155646.52048 -16482600.76244  21105810.2344                   21105808.5554
 -14587212.61347 -11356289.99244  21477599.9774                   21477597.4304
   7226601.93015                  24661150.031
 -20055693.18748 -15617147.12944  20724922.5634                   20724920.6374
 -13038557.66846 -10149147.25343  22526678.4924                   22526676.2384
 -18654151.80947 -14511666.52644  21370006.7504                   21370003.4804
 11  9 23  3  4  0.0000000  0  7G22G29G18G06G15G26G21
   6941661.180 5                  23860031.523
 -21105077.80548 -16443196.58344  21115433.1174                   21115431.7704
 -14632503.90247 -11391581.94944  21468981.7424                   21468978.9574
   7123103.570 5                  24641454.414
 -20042558.90647 -15606912.63344  20727422.1644                   20727419.7774
 -12967243.60946 -10093577.75543  22540248.2814                   22540248.0594
 -18730504.91047 -14571162.43744  21355477.2894                   21355474.9184
 11  9 23  3  4 30.0000000  0  7G22G29G18G06G15G26G21
   6857287.492 5                  23843974.680
 -21054077.29748 -16403455.93344  21125138.6644                   21125136.8634
 -14677600.81247 -11426722.37444  21460400.4144                   21460397.2504
   7019880.836 5                  24621811.977
 -20028874.89848 -15596249.76144  20730025.8754                   20730023.4024
 -12895497.91847 -10037672.23943  22553901.3524                   22553901.1764
 -18806717.32847 -14630548.72644  21340974.3834                   21340971.3014
 11  9 23  3  5  0.0000000  0  7G22G29G18G06G15G26G21
   6773070.324 5                  23827951.063
 -21002646.79748 -16363380.20244  21134925.3674                   21134923.9654
 -14722503.88747 -11461711.71644  21451855.4384                   21451851.6454
   6916936.430 6                  24602222.766
 -20014642.40248 -15585159.51444  20732734.1564                   20732731.7274
 -12823323.73446  -9981432.55643  22567636.0394                   22567633.2704
 -18882786.55547 -14689823.44044  21326498.5634                   21326495.9224
 11  9 23  3  5 30.0000000  0  6G29G18G06G15G26G21
 -20950787.35248 -16322970.23544  21144793.6954                   21144791.7704
 -14767212.73047 -11496549.76944  21443347.5084                   21443344.6334
   6814273.852 6                  24582686.320
 -19999861.44547 -15573641.85344  20735546.6094                   20735544.2154
 -12750723.07846  -9924860.57043  22581451.3364                   22581449.1484
 -18958710.49247 -14748984.92144  21312051.0634                   21312048.3674
 11  9 23  3  6  0.0000000  0  6G29G18G06G15G26G21
 -20898502.32448 -16282228.67844  21154743.6484                   21154741.0234
 -14811729.15647 -11531237.84244  21434876.5634                   21434873.2114
   6711894.391 6                  24563204.727
 -19984534.51248 -15561698.79044  20738463.0784                   20738461.5164
 -12677700.05146  -9867959.52343  22595346.3754                   22595344.8014
 -19034487.74247 -14808032.11444  21297631.3674                   21297627.9774
 11  9 23  3  6 30.0000000  0  6G29G18G06G15G26G21
 -20845793.21948 -16241156.62744  21164773.6414                   21164772.3134
 -14856053.02747 -11565775.89944  21426441.6804                   21426439.0984
   6609801.25815                  24543771.820
 -19968662.90648 -15549331.32344  20741483.7894                   20741481.9384
 -12604256.90646  -9810731.20342  22609322.4454                   22609321.2274
 -19110115.33647 -14866962.67244  21283239.7274                   21283236.7624
 11  9 23  3  7  0.0000000  0  7G22G29G18G06G15G26G21
   7819739.73015                  23764145.180
 -20792662.05948 -16199755.73644  21174884.3054                   21174882.6684
 -14900185.18747 -11600164.61144  21418043.7114                   21418040.4264
   6507996.492 5                  24524403.289
 -19952248.01648 -15536540.44844  20744607.4614                   20744604.9494
 -12530397.33246  -9753178.57743  22623377.5784                   22623376.7194
 -19185591.80147 -14925775.45844  21268876.8754                   21268873.5354
 11  9 23  3  7 30.0000000  0  7G22G29G18G06G15G26G21
   7736307.297 6                  23748269.102
 -20739110.76248 -16158027.38844  21185074.1884                   21185072.8834
 -14944125.77047 -11634403.96344  21409682.1334                   21409678.8364
   6406482.910 5                  24505083.859
 -19935291.03948 -15523327.21045  20747834.0314                   20747831.9384
 -12456123.71146  -9695302.90653  22637511.4064                   22637511.2894
 -19260914.85548 -14984468.76444  21254543.7424                   21254540.8284
 11  9 23  3  8  0.0000000  0  7G22G29G18G06G15G26G21
   7653030.441 6                  23732420.820
 -20685143.09448 -16115974.68444  21195343.7344                   21195342.0744
 -14987877.24247 -11668496.04943  21401356.1024                   21401353.4494
   6305261.121 6                  24485824.422
 -19917795.05948 -15509693.98744  20751163.6334                   20751162.5084
 -12381441.04346  -9637108.44643  22651722.8284                   22651720.7854
 -19336083.91848 -15043042.01944  21240239.1804                   21240235.8834
 11  9 23  3  8 30.0000000  0  7G22G29G18G06G15G26G21
   7569908.117 6                  23716604.281
 -20630762.51648 -16073600.20444  21205692.4614                   21205690.0704
 -15031441.03547 -11702441.79844  21393066.0554                   21393063.5864
   6204332.859 5                  24466617.195
 -19899762.53148 -15495642.64344  20754594.8524                   20754593.3754
 -12306352.93046  -9578598.27743  22666012.6484                   22666010.8954
 -19411098.31247 -15101494.76944  21225964.2974                   21225961.5634
 11  9 23  3  9  0.0000000  0  7G22G29G18G06G15G26G21
   7486940.965 6                  23700816.367
 -20575970.27748 -16030904.97144  21216119.2664                   21216117.8914
 -15074816.49247 -11736240.83044  21384812.4144                   21384809.2814
   6103701.418 5                  24447468.781
 -19881194.18448 -15481173.77844  20758128.7584                   20758126.9384
 -12230861.95747  -9519774.14543  22680378.2664                   22680376.3984
 -19485954.54347 -15159824.27344  21211719.9304                   21211716.6764
 11  9 23  3  9 30.0000000  0  7G22G29G18G06G15G26G21
   7404129.191 5                  23685056.180
 -20520768.35548 -15987890.49344  21226623.6024                   21226621.7074
 -15118004.58647 -11769893.84943  21376593.5084                   21376589.9884
   6003369.164 6                  24428377.063
 -19862091.16048 -15466288.31444  20761763.8444                   20761761.5354
 -12154971.03947  -9460638.58243  22694819.3754                   22694818.6214
 -19560651.11748 -15218029.41844  21197505.2974                   21197501.7274
 11  9 23  3 10  0.0000000  0  7G22G29G18G06G15G26G21
   7321470.234 5                  23669326.164
 -20465161.37548 -15944560.42044  21237205.2664                   21237204.7934
 -15161008.18047 -11803403.09143  21368410.4534                   21368407.5634
   5903336.250 5                  24409339.547
 -19842457.71148 -15450989.54844  20765499.6024                   20765498.0434
 -12078685.51647  -9401195.27743  22709335.3674                   22709335.5234
 -19635188.23448 -15276110.23144  21183321.4304                   21183318.0434
 11  9 23  3 10 30.0000000  0  7G22G29G18G06G15G26G21
   7238969.770 5                  23653628.805
 -20409145.77748 -15900911.90544  21247864.5314                   21247863.2464
 -15203822.18047 -11836764.66743  21360263.0164                   21360260.3244
   5803610.836 6                  24390362.805
 -19822289.52348 -15435274.03544  20769337.3204                   20769335.4384
 -12002002.60547  -9341442.33643  22723928.2664                   22723927.8134
 -19709558.08648 -15334060.73644  21169169.4614                   21169165.9224
 11  9 23  3 11  0.0000000  0  8G22G29G09G18G06G15G26G21
   7156624.355 6                  23637958.930
 -20352727.21547 -15856949.40644  21258600.3834                   21258599.5004
                                  24115840.734
 -15246450.69148 -11869981.65943  21352151.0394                   21352148.5944
   5704191.805 6                  24371443.109
 -19801591.87948 -15419145.96944  20773276.4614                   20773274.1334
 -11924929.26247  -9281385.04153  22738594.7114                   22738592.4654
 -19783761.50448 -15391881.56544  21155048.6174                   21155044.8094
 11  9 23  3 11 30.0000000  0  8G22G29G09G18G06G15G26G21
   7074433.055 5                  23622317.117
 -20295908.53947 -15812675.11544  21269413.4144                   21269412.0784
   7490801.44914                  24095429.375
 -15288894.84847 -11903054.96543  21344074.2974                   21344071.7074
   5605080.887 6                  24352585.117
 -19780366.93048 -15402607.06244  20777315.3364                   20777312.3874
 -11847469.35547  -9221026.78542  22753335.0004                   22753331.8834
 -19857797.65648 -15449572.04344  21140959.7504                   21140956.7424
 11  9 23  3 12  0.0000000  0  7G22G29G18G06G15G26G21
   6992394.664 5                  23606706.383
 -20238693.96547 -15768092.23444  21280300.6724                   21280299.3484
 -15331156.86348 -11935986.34544  21336032.4844                   21336029.4344
   5506278.492 6                  24333781.039
 -19758618.14148 -15385659.97144  20781454.2194                   20781451.5744
 -11769627.25846  -9160370.56642  22768147.0474                   22768144.8204
 -19931666.21948 -15507131.95644  21126902.9224                   21126900.2114
 11  9 23  3 12 30.0000000  0  7G22G29G18G06G15G26G21
   6910510.512 5                  23591122.828
 -20181084.25447 -15723201.63644  21291263.2034                   21291261.8754
 -15373235.91048 -11968775.20444  21328025.2424                   21328022.2894
   5407788.844 6                  24315039.758
 -19736345.48848 -15368304.60844  20785692.3524                   20785690.2894
 -11691404.78546  -9099418.05253  22783032.8284                   22783034.4694
 -20005363.62548 -15564558.50744  21112879.2424                   21112875.2274
 11  9 23  3 13  0.0000000  0  8G22G29G09G18G06G15G26G21
   6828780.727 6                  23575570.766
 -20123080.92648 -15678004.21244  21302301.3134                   21302300.0984
   7828519.10915                  24034215.148
 -15415132.11348 -12001421.56244  21320052.1024                   21320049.6484
   5309615.000 6                  24296358.477
 -19713550.03548 -15350541.89044  20790030.2274                   20790028.1094
 -11612804.32446  -9038171.01743  22797989.9614                   22797989.8404
 -20078887.05948 -15621849.43744  21098887.8834                   21098884.3754
 11  9 23  3 13 30.0000000  0  8G22G29G09G18G06G15G26G21
   6747204.016 6                  23560047.250
 -20064687.23848 -15632502.62944  21313413.1024                   21313411.4924
   7721363.793 5                  24013825.305
 -15456847.10948 -12033926.78444  21312113.9844                   21312112.0124
   5211758.074 6                  24277736.461
 -19690234.54348 -15332374.00544  20794466.8054                   20794464.6454
 -11533830.18046  -8976632.87243  22813018.3594                   22813017.2584
 -20152235.27747 -15679003.85343  21084930.4454                   21084927.3204
 11  9 23  3 14  0.0000000  0  8G22G29G09G18G06G15G26G21
   6665780.027 6                  23544552.469
 -20005906.30548 -15586699.31844  21324598.9064                   21324597.2034
   7614246.453 5                  23993440.406
 -15498381.75448 -12066291.36344  21304210.9304                   21304207.5864
   5114219.97346   3911609.98453  24259175.9064                   24259177.3674
 -19666401.37548 -15313802.68544  20799002.4454                   20798999.8674
 -11454485.99647  -8914806.21843  22828117.3524                   22828115.6724
 -20225407.31248 -15736021.04844  21071006.2504                   21071002.8134
 11  9 23  3 14 30.0000000  0  8G22G29G09G18G06G15G26G21
   6584510.090 6                  23529087.625
 -19946739.13348 -15540595.04944  21335857.5784                   21335855.4534
   7507171.793 5                  23973066.734
 -15539735.32048 -12098514.94544  21296341.2584                   21296338.4614
   5017004.320 6                  24240675.047
 -19642050.56248 -15294828.00644  20803636.4454                   20803633.8554
 -11374773.54347  -8852692.69943  22843286.5394                   22843285.5474
 -20298399.12548 -15792897.74444  21057116.4384                   21057112.8714
 11  9 23  3 15  0.0000000  0  8G22G29G09G18G06G15G26G21
   6503393.527 6                  23513651.656
 -19887188.16448 -15494191.68944  21347190.2114                   21347189.3484
                                  23952696.727
 -15580908.87547 -12130598.19044  21288506.1884                   21288503.0474
   4920113.203 6                  24222237.453
 -19617184.84448 -15275452.12344  20808368.1334                   20808364.5664
 -11294696.39847  -8790294.83243  22858524.3204                   22858522.6334
 -20371209.55147 -15849633.13644  21043260.8444                   21043257.6604
 11  9 23  3 15 30.0000000  0  8G22G29G09G18G06G15G26G21
   6422429.715 6                  23498245.156
 -19827256.52048 -15447491.71944  21358594.9064                   21358593.3204
   7293162.72715                  23932341.203
 -15621903.93448 -12162542.37044  21280704.9924                   21280702.4104
   4823548.270 6                  24203862.398
 -19591806.20348 -15255676.52244  20813197.2584                   20813195.0514
 -11214258.27747  -8727615.90043  22873830.9844                   22873829.9304
 -20443836.70348 -15906225.69044  21029440.2424                   21029437.6684
 11  9 23  3 16  0.0000000  0  8G22G29G09G18G06G15G26G21
   6341617.777 6                  23482866.469
 -19766947.49648 -15400497.66544  21370070.9844                   21370069.7464
                                  23911992.688
 -15662721.90647 -12194348.56544  21272937.4924                   21272934.4304
   4727310.836 6                  24185549.492
 -19565917.10548 -15235503.20845  20818123.2584                   20818120.8484
 -11133463.20347  -8664658.34043  22889205.5084                   22889204.0044
 -20516279.57848 -15962674.65844  21015655.1334                   21015651.7424
 11  9 23  3 16 30.0000000  0  8G22G29G09G18G06G15G26G21
   6260956.824 6                  23467516.930
 -19706264.15248 -15353211.98644  21381619.0784                   21381617.0394
   7079358.375 5                  23891655.727
 -15703363.81648 -12226017.55143  21265203.4384                   21265199.3444
   4631402.832 6                  24167297.008
 -19539520.30548 -15214934.25144  20823146.6804                   20823144.6844
 -11052314.80147  -8601426.16043  22904648.3524                   22904645.2934
 -20588536.41048 -16018978.69244  21001905.1644                   21001901.5864
 11  9 23  3 17  0.0000000  0  8G22G29G09G18G06G15G26G21
   6180447.500 5                  23452195.852
 -19645207.86348 -15305635.65844  21393237.3284                   21393235.6484
   6972541.26215                  23871328.531
 -15743829.58247 -12257549.29743  21257503.0554                   21257499.3324
   4535827.23446   3460909.45053  24149111.1804                   24149110.2344
 -19512616.73448 -15193970.46044  20828266.3284                   20828263.9494
 -10970815.55547  -8537920.32442  22920156.9454                   22920155.4454
 -20660604.39548 -16075135.50644  20988191.1564                   20988187.2034
 11  9 23  3 17 30.0000000  0  7G22G29G18G06G15G26G21
   6100089.289 5                  23436902.570
 -19583781.55548 -15257770.99344  21404926.4844                   21404925.3364
 -15784119.87548 -12288944.27143  21249835.8914                   21249832.8444
   4440586.14846   3386695.73442  24130987.2424                   24130985.5944
 -19485208.75848 -15172613.55844  20833482.1174                   20833479.8164
 -10888968.94147  -8474143.86243  22935731.6254                   22935731.5594
 -20732481.76248 -16131143.86444  20974512.9774                   20974509.6454
 11  9 23  3 18  0.0000000  0  7G22G29G18G06G15G26G21
   7595305.66415                  23721434.250
 -17946568.66448 -13982020.71044  21716477.9064                   21716475.9964
 -14248813.22347 -11092601.47443  21541994.8284                   21541991.5124
   5921105.656 7                  24412721.883
 -17881877.93748 -13923264.87744  21138585.7034                   21138583.0514
  -9231359.96946  -7182500.54653  23251164.1334                   23251164.5164
 -19228743.11348 -14959399.42044  21260665.3364                   21260661.8984
 11  9 23  3 18 30.0000000  0  7G22G29G18G06G15G26G21
   7515249.266 6                  23706201.156
 -17884409.67248 -13933585.18544  21728306.3834                   21728303.8054
 -14288754.90247 -11123724.81644  21534394.0164                   21534390.8204
   5826540.06646   4466659.94453  24394725.4224                   24394724.8284
 -17853466.51648 -13901126.08744  21143992.3134                   21143990.0004
  -9148828.19147  -7118190.12753  23266869.7664                   23266871.3244
 -19300233.44548 -15015106.14144  21247060.9694                   21247057.4534
 11  9 23  3 19  0.0000000  0  7G22G29G18G06G15G26G21
   7435344.39846   3199766.12152  23690994.7584                   23690995.4184
 -17821887.14548 -13884866.28144  21740203.9144                   21740202.1684
 -14328522.62548 -11154712.57644  21526826.9774                   21526823.9844
   5732316.03946   4393238.62942  24376793.9304                   24376794.3484
 -17824555.37548 -13878597.92944  21149493.5704                   21149491.0554
  -9065958.164 7                  23282639.313
 -19371526.10248 -15070658.82944  21233494.5084                   21233490.5744
 11  9 23  3 19 30.0000000  0  7G22G29G18G06G15G26G21
   7355590.91446   3137620.53343  23675818.9224                   23675814.8954
 -17759003.44548 -13835866.02944  21752170.4384                   21752168.6644
 -14368116.53547 -11185564.97444  21519292.5084                   21519288.4224
   5638436.63347   4320085.93842  24358932.8204                   24358929.7034
 -17795146.45748 -13855681.82544  21155089.9304                   21155087.5744
  -8982752.38347  -6988779.45753  23298473.1884                   23298473.5124
 -19442618.75047 -15126055.70044  21219966.0704                   21219962.0434
 11  9 23  3 20  0.0000000  0  8G22G29G09G18G06G15G26G21
   7275988.853 6                  23660670.625
 -17695760.99248 -13786586.23044  21764204.6564                   21764202.8594
   9340455.81615                  24049429.141
 -14407537.19947 -11216282.35944  21511790.8834                   21511787.5704
   5544903.84847   4247203.35543  24341132.1484                   24341131.1054
 -17765241.40248 -13832379.20444  21160781.0084                   21160778.1134
  -8899214.12547  -6923684.47353  23314369.8754                   23314365.6414
 -19513509.39548 -15181295.14544  21206475.8204                   21206472.1804
 11  9 23  3 20 30.0000000  0  8G22G29G09G18G06G15G26G21
   7196535.867 6                  23645551.516
 -17632164.18448 -13737030.27244  21776306.7734                   21776304.8914
   9234140.941 6                  24029197.383
 -14446787.15248 -11246866.76044  21504322.4144                   21504318.5394
   5451718.18847   4174591.15953  24323399.6024                   24323399.6334
 -17734844.24648 -13808693.09744  21166565.2814                   21166562.7934
  -8815348.52347  -6858334.87152  23330328.9844                   23330320.3634
 -19584197.92248 -15236377.06444  21193024.1884                   21193021.0784
 11  9 23  3 21  0.0000000  0  8G22G29G09G18G06G15G26G21
   7117230.297 6                  23630459.734
 -17568217.24648 -13687201.54444  21788475.8524                   21788474.0744
   9127908.648 6                  24008981.273
 -14485868.94948 -11277320.03444  21496885.2194                   21496881.7854
   5358879.97346   4102249.78542  24305730.5084                   24305731.9344
 -17703958.37948 -13784626.20844  21172442.3674                   21172439.9344
  -8731160.39847  -6792733.85653  23346348.9694                   23346345.4344
 -19654683.64148 -15291300.97744  21179610.7504                   21179607.6094
 11  9 23  3 21 30.0000000  0  8G22G29G09G18G06G15G26G21
   7038075.500 6                  23615397.203
 -17503919.25848 -13637099.23444  21800711.5394                   21800709.3164
   9021765.852 6                  23988783.539
 -14524779.66847 -11307640.01244  21489480.5554                   21489477.3324
   5266394.88347   4030183.62542  24288133.8284                   24288131.1644
 -17672582.52048 -13760177.48144  21178413.1644                   21178411.2704
  -8646649.469 6                  23362431.172
 -19724960.97747 -15346062.47744  21166237.7114                   21166234.2384
 11  9 23  3 22  0.0000000  0  8G22G29G09G18G06G15G26G21
   6959069.918 6                  23600362.664
 -17439273.49648 -13586725.87645  21813012.8984                   21813011.2154
   8915715.17646   5730149.80353  23968603.6024                   23968601.1914
 -14563521.04348 -11337828.10544  21482108.3754                   21482105.7304
   5174264.06346   3958393.25343  24270599.5554                   24270600.0514
 -17640720.01648 -13735349.54344  21184476.2664                   21184474.6484
  -8561819.94547  -6660780.22753  23378574.2664                   23378575.9184
 -19795028.95347 -15400660.91344  21152904.1414                   21152900.4064
 11  9 23  3 22 30.0000000  0  8G22G29G09G18G06G15G26G21
   6880213.031 6                  23585356.078
 -17374283.08648 -13536084.03644  21825379.8754                   21825378.8324
   8809759.383 6                  23948440.430
 -14602094.25848 -11367885.13144  21474768.3284                   21474764.8484
   5082489.23847   3886880.54742  24253138.4924                   24253134.4384
 -17608373.32448 -13710144.30644  21190631.8134                   21190630.0124
  -8476675.73447  -6594434.04653  23394776.8204                   23394776.7384
 -19864886.04348 -15455094.96644  21139610.5554                   21139607.3714
 11  9 23  3 23  0.0000000  0  8G22G29G09G18G06G15G26G21
   6801505.90646   2705862.72253  23570379.1724                   23570372.8754
 -17308949.82448 -13485175.03644  21837812.7734                   21837811.5354
   8703903.305 6                  23928295.906
 -14640498.38747 -11397810.43144  21467459.8284                   21467456.8754
   4991073.94146   3815647.99953  24235739.8524                   24235737.8794
 -17575542.56648 -13684561.92744  21196879.4774                   21196877.0664
  -8391218.52047  -6527844.21353  23411037.6954                   23411035.0864
 -19934528.75047 -15509362.00344  21126358.1644                   21126355.0704
 11  9 23  3 23 30.0000000  0  8G22G29G09G18G06G15G26G21
   6722945.13746   2644646.28542  23555428.9384                   23555423.3444
 -17243278.74648 -13434002.76244  21850309.5394                   21850308.0234
   8598147.012 6                  23908170.586
 -14678737.10947 -11427606.79144  21460183.4454                   21460179.8404
   4900017.02747   3744694.74443  24218413.6094                   24218410.1054
 -17542233.02748 -13658606.40344  21203218.1094                   21203215.6844
  -8305454.67647  -6461015.09842  23427359.1174                   23427355.6764
 -20003957.82847 -15563462.56944  21113146.3364                   21113142.9804
 11  9 23  3 24  0.0000000  0  8G22G29G09G18G06G15G26G21
   6644531.273 6                  23540508.094
 -17177271.55148 -13382568.61543  21862870.4534                   21862868.5744
   8492495.105 6                  23888066.461
 -14716810.60948 -11457274.43243  21452937.6334                   21452935.5704
   4809321.72346   3674023.06943  24201154.4064                   24201151.6914
 -17508446.44148 -13632279.23844  21209647.5314                   21209644.0554
  -8219386.42247  -6393949.03142  23443737.5554                   23443735.6024
 -20073170.53948 -15617394.54944  21099975.9614                   21099971.9494
 11  9 23  3 24 30.0000000  0  8G22G29G09G18G06G15G26G21
   6566263.26246   2522556.56253  23525613.7974                   23525609.3364
 -17110932.05148 -13330875.55443  21875494.2974                   21875491.8164
   8386950.383 6                  23867981.570
 -14754719.61348 -11486813.91643  21445724.1804                   21445721.0164
   4718989.289 6                  24183964.313
 -17474185.35548 -13605582.23644  21216166.8444                   21216164.6414
  -8133017.98847  -6326649.06353  23460172.7344                   23460167.5634
 -20142165.60948 -15671156.90044  21086846.3284                   21086842.1994
 11  9 23  3 25  0.0000000  0  8G22G29G09G18G06G15G26G21
   6488142.39146   2461683.09442  23510747.9924                   23510742.4694
 -17044261.44147 -13278924.39143  21888181.2734                   21888178.6214
   8281517.105 6                  23847918.234
 -14792464.22348 -11516225.30644  21438541.1884                   21438538.1414
   4629023.16447   3533530.70153  24166845.4694                   24166842.3364
 -17439450.94148 -13578516.45544  21222776.5634                   21222774.1454
  -8046351.207 6                  23476664.297
 -20210939.27048 -15724746.76144  21073759.2034                   21073755.7114
 11  9 23  3 25 30.0000000  0  8G22G29G09G18G06G15G26G21
   6410167.71946   2400923.70053  23495910.2814                   23495904.0634
 -16977262.60947 -13226717.56543  21900930.5234                   21900928.7544
   8176198.395 6                  23827876.945
 -14830045.35547 -11545509.27443  21431389.8364                   21431387.3204
   4539424.84846   3463713.96443  24149794.4304                   24149791.5634
 -17404245.69548 -13551083.77744  21229476.1024                   21229473.1994
  -7959389.727 6                  23493211.945
 -20279490.41048 -15778163.18144  21060714.3204                   21060710.7704
 11  9 23  3 26  0.0000000  0  8G22G29G09G18G06G15G26G21
   6332338.68046   2340278.02342  23481099.7034                   23481093.2734
 -16909938.75047 -13174257.40644  21913742.0234                   21913739.1024
   8070997.703 6                  23807857.914
 -14867463.92247 -11574666.55843  21424269.0944                   21424266.0084
   4450196.13747   3394185.18852  24132816.5234                   24132811.7814
 -17368571.96547 -13523286.07744  21236264.8674                   21236262.0394
  -7872137.051 6                  23509816.609
 -20347816.59848 -15831404.35244  21047712.4924                   21047709.1804
 11  9 23  3 26 30.0000000  0  8G22G29G09G18G06G15G26G21
   6254653.77346   2279744.05152  23466316.3444                   23466310.3754
 -16842293.56247 -13121546.96844  21926614.6414                   21926612.3754
   7965917.262 6                  23787861.500
 -14904721.42247 -11603698.34144  21417179.5634                   21417176.4614
   4361337.96146   3324945.26642  24115905.9774                   24115901.9534
 -17332433.04748 -13495125.87544  21243141.6564                   21243139.1254
  -7784597.602 6                  23526474.414
 -20415917.29748 -15884469.88144  21034752.8834                   21034750.1454
 11  9 23  3 27  0.0000000  0  8G22G29G09G18G06G15G26G21
   6177114.039 6                  23451561.063
 -16774328.65247 -13068587.29244  21939547.6094                   21939545.8014
   7860961.25846   4908259.99853  23767888.1724                   23767896.0864
 -14941817.92248 -11632604.69043  21410119.9454                   21410117.3594
   4272853.53947   3255996.35743  24099068.9304                   24099065.5044
 -17295829.86348 -13466603.91444  21250106.8444                   21250104.6844
  -7696773.37147  -5986721.20752  23543186.2114                   23543186.2384
 -20483789.14148 -15937356.98044  21021837.4064                   21021834.0514
 11  9 23  3 27 30.0000000  0  8G22G29G09G18G06G15G26G21
   6099718.16447   2159015.35953  23436833.0164                   23436827.2154
 -16706047.55947 -13015381.28743  21952541.3914                   21952540.8554
   7756132.23847   4826575.07553  23747941.3204                   23747941.5904
 -14978755.00848 -11661386.85144  21403091.5944                   21403087.9184
   4184743.89846   3187339.69043  24082300.2424                   24082298.7814
 -17258766.00448 -13437722.99944  21257160.1024                   21257157.6174
  -7608668.84046  -5918068.38752  23559953.2344                   23559948.3014
 -20551431.39848 -15990065.21844  21008965.2734                   21008962.1334
 11  9 23  3 28  0.0000000  0  8G22G29G09G18G06G15G26G21
   6022467.988 6                  23422132.703
 -16637450.80947 -12961929.26343  21965594.6884                   21965593.5164
   7651436.56647   4744994.35053  23728018.0164                   23728016.9494
 -15015530.72348 -11690043.20944  21396093.5164                   21396090.0394
   4097013.37146   3118978.06653  24065606.3054                   24065607.9064
 -17221241.11348 -13408482.82244  21264300.6094                   21264298.4064
  -7520284.523 6                  23576771.008
 -20618839.05548 -16042590.65844  20996138.2664                   20996135.1684
 11  9 23  3 28 30.0000000  0  8G22G29G09G18G06G15G26G21
   5945361.59846   2038737.63253  23407460.1094                   23407453.8444
 -16568542.58247 -12908234.50743  21978707.5784                   21978705.4494
   7546875.50847   4663518.51043  23708121.1094                   23708118.8094
 -15052147.72748 -11718576.01744  21389125.0704                   21389122.2704
   4009662.12546   3050912.36742  24048984.5394                   24048984.0554
 -17183259.15648 -13378886.45744  21271527.8754                   21271525.9574
  -7431625.49647  -5780112.50953  23593643.2814                   23593639.9064
 -20686011.84448 -16094933.06044  20983355.6954                   20983352.1524
 11  9 23  3 29  0.0000000  0  8G22G29G09G18G06G15G26G21
   5868401.02047   1978768.37943  23392814.8754                   23392809.0274
 -16499323.13747 -12854297.45043  21991879.7344                   21991878.4144
   7442454.98047   4582151.53142  23688250.2734                   23688248.8794
 -15088603.99648 -11746983.45044  21382188.2814                   21382185.1724
   3922694.83247   2983145.79053  24032434.7274                   24032431.2894
 -17144820.13748 -13348933.96944  21278843.3284                   21278841.1994
  -7342692.81247  -5710814.36043  23610566.1024                   23610564.0124
 -20752945.08248 -16147088.86244  20970618.8204                   20970615.6524
 11  9 23  3 29 30.0000000  0  8G22G29G09G18G06G15G26G21
   5791583.36747   1918910.35843  23378196.6804                   23378192.3444
 -16429797.89547 -12800121.89843  22005110.0784                   22005107.7664
   7338176.03147   4500895.28942  23668407.1334                   23668405.7074
 -15124902.85248 -11775268.25244  21375280.6564                   21375277.7234
   3836111.14147   2915678.10242  24015958.3284                   24015955.7894
 -17105928.78547 -13318629.02444  21286244.0474                   21286241.0664
  -7253491.88746  -5641307.30843  23627540.9224                   23627540.4454
 -20819639.38348 -16199058.39844  20957927.1094                   20957923.6294
 11  9 23  3 30  0.0000000  0  8G22G29G09G18G06G15G26G21
   5714909.13347   1859164.23143  23363606.2584                   23363601.7034
 -16359969.02747 -12745709.79943  22018398.2114                   22018396.5824
   7234042.50047   4419752.22843  23648590.3444                   23648589.7344
 -15161044.48448 -11803430.55644  21368403.4694                   21368400.6844
   3749912.82846   2848510.69843  23999555.0314                   23999553.6724
 -17066586.45747 -13287972.70144  21293730.6804                   21293728.5204
  -7164025.96147  -5571593.41053  23644565.7424                   23644564.7934
 -20886092.18448 -16250839.80744  20945281.7974                   20945278.3554
 11  9 23  3 30 30.0000000  0  8G22G29G09G18G06G15G26G21
   5638376.69547   1799528.65343  23349043.0004                   23349037.4494
 -16289840.27047 -12691064.06043  22031742.7274                   22031742.0664
   7130056.70347   4338724.38443  23628802.1644                   23628799.5124
 -15197030.59448 -11831471.69944  21361555.2424                   21361552.3524
   3664101.14546   2781644.36243  23983225.4774                   23983223.9614
 -17026796.93448 -13256967.82944  21301302.1024                   21301300.0864
  -7074298.87547  -5501676.35743  23661640.7584                   23661639.6524
 -20952302.64848 -16302432.37644  20932682.5634                   20932678.4924
 11  9 23  3 31  0.0000000  0  8G22G29G09G18G06G15G26G21
   5561986.36347   1740003.81943  23334506.4924                   23334501.8014
 -16219413.39147 -12636186.04543  22045145.1024                   22045143.6254
   7026222.98447   4257815.29043  23609044.0004                   23609043.8404
 -15232861.09848 -11859391.53944  21354736.7424                   21354733.7194
   3578679.012 6                  23966970.375
 -16986561.47747 -13225615.51744  21308958.2584                   21308956.2814
  -6984313.09446  -5431557.62142  23678763.2114                   23678763.0704
 -21018267.66048 -16353833.65844  20920129.6884                   20920125.1604
 11  9 23  3 31 30.0000000  0  9G22G29G09G18G06G15G14G26G21
   5485737.48047   1680589.07943  23319996.6414                   23319991.8984
 -16148692.06247 -12581078.46643  22058602.4454                   22058600.2974
   6922543.92247   4177026.28943  23589314.7504                   23589312.4654
 -15268537.17248 -11887191.06644  21347947.8134                   21347945.0824
   3493647.42646   2648823.99253  23950789.4844                   23950786.0944
 -16945883.10248 -13193918.08744  21316699.4064                   21316697.3954
   9304652.87516                  24635808.117
  -6894072.64846  -5361240.36352  23695935.1484                   23695934.9924
 -21083985.46148 -16405042.31244  20907623.8284                   20907620.2234
 11  9 23  3 32  0.0000000  0  9G22G29G09G18G06G15G14G26G21
   5409625.14847   1621280.81543  23305512.8284                   23305508.1564
 -16077683.62547 -12525747.21843  22072115.2974                   22072112.2774
   6819018.60247   4096357.26343  23569614.6254                   23569613.1414
 -15304064.05548 -11914874.33344  21341187.6724                   21341184.7344
   3409004.07846   2582867.82943  23934682.2034                   23934679.7774
 -16904768.57448 -13161880.76544  21324523.1174                   21324520.1414
                                  24611640.227
  -6803585.00046  -5290730.64253  23713154.5944                   23713155.0274
 -21149458.69148 -16456060.40744  20895164.8444                   20895160.9384
 11  9 23  3 32 30.0000000  0  9G22G29G09G18G06G15G14G26G21
   5333643.35247   1562074.23543  23291054.0784                   23291048.6564
 -16006396.06647 -12470198.51443  22085681.1174                   22085678.4774
   6715645.14847   4015806.60743  23549942.7194                   23549941.7894
 -15339447.82048 -11942446.08644  21334454.0474                   21334450.9964
   3324745.15646   2517211.28053  23918647.8834                   23918645.7074
 -16863226.04748 -13129509.97144  21332428.6094                   21332426.4774
   9050772.43815                  24587499.086
  -6712859.03147  -5220035.02742  23730419.6954                   23730420.3554
 -21214690.68448 -16506890.53544  20882751.2814                   20882748.6954
 11  9 23  3 33  0.0000000  0  9G22G29G09G18G06G15G14G26G21
   5257793.60247   1502970.65143  23276620.0864                   23276615.8204
 -15934830.25447 -12414432.98043  22099299.1414                   22099297.0744
   6612428.81647   3935378.43153  23530300.8754                   23530298.0984
 -15374687.51648 -11969905.60344  21327748.0944                   21327744.7034
   3240874.53946   2451858.07842  23902687.5394                   23902685.9264
 -16821255.67648 -13096805.79444  21340415.2504                   21340412.0704
                                  24563364.555
  -6621896.11347  -5149154.70243  23747729.7734                   23747730.2544
 -21279677.38348 -16557529.48144  20870384.5784                   20870380.9964
 11  9 23  3 33 30.0000000  0  9G22G29G09G18G06G15G14G26G21
   5182077.44947   1443970.97043  23262212.1484                   23262206.1254
 -15862987.13347 -12358451.39443  22112970.6804                   22112967.7074
   6509375.06347   3855076.50243  23510691.1644                   23510688.4924
 -15409781.46147 -11997251.52644  21321069.4614                   21321067.3164
   3157395.934 6                  23886802.242
 -16778857.98848 -13063768.61644  21348483.3674                   21348480.6174
   8797272.37915                  24539256.039
  -6530697.36747  -5078091.17353  23765084.3674                   23765085.9064
 -21344414.59848 -16607974.04344  20858066.0084                   20858062.6844
 11  9 23  3 34  0.0000000  0  9G22G29G09G18G06G15G14G26G21
   5106497.12147   1385077.24143  23247829.7814                   23247824.2504
 -15790867.00047 -12302253.90243  22126694.7034                   22126692.3754
   6406489.85947   3774906.40242  23491111.9614                   23491109.7624
 -15444728.09048 -12024482.60844  21314419.7504                   21314416.2504
   3074313.91846   2322070.46353  23870992.7034                   23870987.8134
 -16736032.82848 -13030398.38644  21356633.1804                   21356629.9614
   8670676.379 6                  24515166.172
  -6439263.48047  -5006843.88453  23782483.7194                   23782483.3524
 -21408897.98448 -16658220.84644  20845794.9614                   20845791.1524
 11  9 23  3 34 30.0000000  0  9G22G29G09G18G06G15G14G26G21
   5031053.92247   1326290.33343  23233472.5944                   23233467.9964
 -15718470.81247 -12245841.31643  22140470.7424                   22140469.4884
   6303778.27347   3694871.41842  23471566.5164                   23471565.6914
 -15479526.33248 -12051598.07144  21307797.5864                   21307793.5744
   2991631.93046   2257643.20553  23855258.3834                   23855255.6804
 -16692780.93748 -12996695.62844  21364863.1954                   21364860.4384
   8544188.348 6                  24491096.805
  -6347596.13347  -4935414.77743  23799927.6724                   23799926.5704
 -21473123.33648 -16708266.54844  20833573.2504                   20833569.2854
 11  9 23  3 35  0.0000000  0  9G22G29G09G18G06G15G14G26G21
   4955747.42647   1267609.83143  23219142.5314                   23219137.0744
 -15645801.54347 -12189215.85243  22154299.6174                   22154298.2854
   6201243.74247   3614974.48553  23452055.3204                   23452052.1524
 -15514176.84047 -12078598.47444  21301203.6644                   21301201.1524
   2909351.71946   2193528.82042  23839601.6414                   23839597.5394
 -16649104.62547 -12962662.13244  21373174.3914                   21373171.7344
   8417810.551 5                  24467046.602
  -6255698.51647  -4863806.21142  23817415.0944                   23817413.1054
 -21537088.84847 -16758109.84344  20821401.1024                   20821397.7664
 11  9 23  3 35 30.0000000  0  9G22G29G09G18G06G15G14G26G21
   4880576.36747   1209035.22743  23204838.1724                   23204832.7074
 -15572863.10547 -12132380.78243  22168178.8204                   22168176.8404
   6098888.57847   3535217.41043  23432577.2504                   23432573.3984
 -15548681.02748 -12105484.86444  21294638.1724                   21294635.3634
   2827474.109 6                  23824020.508
 -16605007.84048 -12928300.97744  21381566.1954                   21381563.9064
   8291544.25414                  24443017.695
  -6163575.02347  -4792021.76953  23834945.8674                   23834947.8754
 -21600793.63748 -16807749.89744  20809278.6414                   20809275.2544
 11  9 23  3 36  0.0000000  0  9G22G29G09G18G06G15G14G26G21
   4805541.02347   1150566.13643  23190559.7424                   23190553.9384
 -15499657.42647 -12075337.40743  22182109.7974                   22182108.1564
   5996717.54347   3455603.56342  23413134.3984                   23413131.6094
 -15583039.07848 -12132257.31744  21288100.4534                   21288096.7854
   2746001.699 6                  23808515.945
 -16560491.69548 -12893613.08644  21390037.4614                   21390034.3634
   8165392.813 5                  24419012.609
  -6071227.53947  -4720063.84453  23852518.8524                   23852512.4654
 -21664234.51648 -16857184.32344  20797206.1724                   20797202.6884
 11  9 23  3 36 30.0000000  0  9G22G29G09G18G06G15G14G26G21
   4730641.87147   1092203.21743  23176306.0704                   23176301.3094
 -15426186.08247 -12018087.05643  22196090.5474                   22196089.2544
   5894734.67647   3376135.96553  23393727.2734                   23393724.0474
 -15617250.81248 -12158915.88044  21281589.8674                   21281586.3984
   2664937.33246   2003076.29752  23793090.0944                   23793083.2234
 -16515557.27748 -12858599.28644  21398587.9144                   21398585.1564
   8039358.945 5                  24395029.344
  -5978658.727 6                  23870133.227
 -21727408.35548 -16906410.71944  20785184.3054                   20785181.2074
 11  9 23  3 37  0.0000000  0  9G22G29G09G18G06G15G14G26G21
   4655876.97747   1033944.94543  23162079.1954                   23162074.5314
 -15352453.93747 -11960633.47443  22210121.8284                   22210119.2154
   5792941.51647   3296817.14253  23374357.1174                   23374353.5704
 -15651318.33647 -12185461.94144  21275107.1884                   21275104.6054
   2584280.74646   1940227.12542  23777741.8284                   23777737.6374
 -16470209.25848 -12823263.11444  21407216.9304                   21407214.7424
   7913443.598 6                  24371067.594
  -5885873.39847  -4575631.91553  23887790.1414                   23887789.7194
 -21790314.90247 -16955428.72344  20773213.7504                   20773209.8984
